     2              OBSERVATION DATA    GPS                 RINEX VERSION / TYPE
ASRINEXO V2.4.4 UX USGS 23-APR-96 11:18                     PGM / RUN BY / DATE
                                                            COMMENT
Original Marker Name: pbb4 PB#4_4545.196_USCE               COMMENT
Campaign Name: usgs.cajon.monit                             COMMENT
4-Character Station Name: PBB4                              COMMENT
6-Character Antenna Code: ASHGD3                            COMMENT
Vertical Measurement Point: EGP                             COMMENT
Vertical Offset to Rinex Ref. Point: 0.0594                 COMMENT
Radial Measurement Point: EGP                               COMMENT
Radial Offset to Rinex Ref. Point: 0.1837                   COMMENT
Antenna Height from Field Measurement: 1.2250 m             COMMENT
Additional Antenna Identification Info.:                    COMMENT
The Whopper                                                 COMMENT
Original XYZ: -2336548.6600 -4754118.3100 3542814.9700      COMMENT
New XYZ position is based on association with SCEC monument COMMENT
E1D0U7Q9+0011. Position of that monument is believed to be  COMMENT
valid to within 1 m horizontally; vertical accuracy         COMMENT
should be no worse than 3-times this value.                 COMMENT
                                                            COMMENT
Revised Rinex header created by UCSD GPS archive for        COMMENT
GSAC on 11-Nov-1999 (1999:315) 02:49:35 GMT                 COMMENT
For assistance contact dagnew@ucsd.edu or hjohnson@ucsd.edu COMMENT
                                                            COMMENT
PBB4 PB#4_4545.196_USCE                                     MARKER NAME
JMS US GEOLOGICAL SURVEY                                    OBSERVER / AGENCY
707 ASHTECH Z-XII3 1F00                                     REC # / TYPE / VERS
404 ASHTECH GEODETIC III                                    ANT # / TYPE
 -2336565.0000 -4754175.0000  3542826.0000                  APPROX POSITION XYZ
        1.1517        0.0000        0.0000                  ANTENNA: DELTA H/E/N
     1     1     0                                          WAVELENGTH FACT L1/2
     5    C1    L1    L2    P1    P2                        # / TYPES OF OBSERV
    30                                                      INTERVAL
  1996     4    18     0    19    0.000000                  TIME OF FIRST OBS
  1996     4    18     6    36   60.000000                  TIME OF LAST OBS
                                                            END OF HEADER
 96  4 18  0 19  0.0000000  0  7 16 24 20  5  6  4  9
  19921823.848      -60424.11619
  19932306.309       53152.52619     31128.07959                  19932309.0104
  19206252.235      -45044.89319    -25734.94659                  19206254.8454
  18672952.780       19474.48519      9858.29159                  18672954.0644
  21071723.547      -69473.08819    -37056.96059                  21071725.9574
  22633462.920       71140.51619
  23085835.333       70679.04619
 96  4 18  0 19 30.0000000  0  7 16 24 20  5  6  4  9
  19909655.155     -124363.835 9
  19943541.536      112198.59959     77138.00549  19943539.7064   19943545.2974
  19197039.246      -93455.98059    -63457.86849  19197036.2664   19197042.2684
  18675822.318       34559.52959     21612.86149  18675819.2994   18675824.7824
  21058356.510     -139723.10159    -91797.19649  21058352.5144   21058358.1364
  22650677.516      161595.614 9
  23101825.494      154722.717 9    109919.78559                  23101830.9864
 96  4 18  0 20  0.0000000  0  7 16 24 20  5  6  4  9
  21696320.390     -187892.997 9
  21753557.266      171364.78149    123241.52349  21753553.5604   21753559.1644
  20986666.049     -141425.70949   -100836.87049  20986662.9304   20986668.4184
  20477533.467       50106.93859     33727.72159  20477532.5174   20477538.1254
  22843741.021     -209980.95049   -146543.54349  22843736.8654   22843743.5024
  24466622.236      251961.764 9
  24916539.429      238587.41659    175268.81749  24916538.5294   24916544.4684
 96  4 18  0 20 30.0000000  0  7 16 24 20  5  6  4  9
  21684305.071     -251043.957 9
  21764846.166      230695.61459    169473.34059  21764843.5294   21764848.9344
  20977621.706     -188962.28959   -137878.34659  20977616.5954   20977622.7304
  20480581.034       66112.58649     46199.65249  20480578.5604   20480583.8024
  22830362.788     -280273.95959   -201317.27859  22830361.3154   22830367.2634
  24483809.659      342267.31259    244892.95959  24483807.6854   24483814.3574
  24932466.278      322301.49859    240500.45659  24932466.8664   24932475.5794
 96  4 18  0 21  0.0000000  0  7 16 24 20  5  6  4  9
  21672363.437     -313800.532 9
  21776167.428      290185.80949    215829.33249  21776164.3854   21776169.9194
  20968661.548     -236039.41249   -174561.81149  20968658.2464   20968664.2564
  20483715.565       82576.11349     59028.36849  20483711.6014   20483716.8714
  22816985.183     -350579.56949   -256100.83749  22816982.2234   22816987.9364
  24500977.383      432489.97649    315196.30259  24500974.9134   24500980.6664
  24948370.711      405848.48549    305601.93749  24948366.8584   24948373.8164
 96  4 18  0 21 30.0000000  0  7 16 24 20  5  6  4  9
  21660501.607     -376132.996 9
  21787518.724      349846.04849    262317.82849  21787516.9554   21787522.9554
  20959795.445     -282630.70349   -210866.70349  20959792.3344   20959798.5644
  20486939.114       99516.42249     72228.59849  20486935.3764   20486940.4344
  22803605.593     -420885.91549   -310884.98349  22803603.4404   22803609.1474
  24518134.373      522645.74459    385447.54449  24518129.0814   24518138.7674
  24964241.065      489233.46649    370577.09749  24964234.3574   24964242.3504
 96  4 18  0 22  0.0000000  0  6 16 24 20  5  6  4
  21648721.887     -438036.029 9    -26137.89359                  21648724.5914
  21798904.494      409667.72149    308932.11949  21798900.9244   21798906.4424
  20951023.230     -328730.66149   -246788.74249  20951019.8884   20951025.9454
  20490255.274      116947.47449     85811.21249  20490252.1304   20490257.3174
  22790228.362     -491186.70749   -365664.80649  22790225.4144   22790231.5834
  24535276.179      612742.84549    455653.05949  24535273.8784   24535278.0404
 96  4 18  0 22 30.0000000  0  6 16 24 20  5  6  4
  21637019.824     -499532.46959    -74057.17049  21637015.8964   21637022.4284
  21810312.693      469617.94249    355646.58449  21810309.3414   21810314.8164
  20942339.247     -374362.02549   -282345.64249  20942336.3394   20942342.4034
  20493666.942      134876.86449     99782.14949  20493663.9844   20493669.0964
  22776851.252     -561490.21649   -420446.72449  22776846.9854   22776853.0814
  24552416.903      702760.68649                                  24552405.7404
 96  4 18  0 23  0.0000000  0  6 16 24 20  5  6  4
  21625399.568     -560590.73449   -121635.01949  21625397.0884   21625403.4754
  21821745.084      529703.08149    402466.17149  21821742.8874   21821748.8054
  20933750.009     -419503.23149   -317520.60649  20933747.0504   20933752.5714
  20497179.964      153337.44949    114166.99749  20497176.9464   20497182.2444
  22763474.928     -631776.11749   -475214.91349  22763472.2414   22763477.9244
  24569526.714      792722.22349    595896.85359  24569529.4184   24569532.7794
 96  4 18  0 23 30.0000000  0  6 16 24 20  5  6  4
  21613861.586     -621222.40249   -168880.45849  21613859.3004   21613865.7694
  21833200.553      589906.65249    449378.04149  21833199.2774   21833204.7884
  20925247.992     -464178.67649   -352332.63549  20925245.2304   20925250.6494
  20500790.104      172308.35649    128949.49149  20500786.9054   20500792.3074
  22750098.033     -702067.36149   -529987.28449  22750095.9274   22750102.0494
  24586629.207      882599.39749    665930.92449  24586627.1264   24586637.5754
 96  4 18  0 24  0.0000000  0  6 16 24 20  5  6  4
  21602412.089     -681393.50149   -215767.00349  21602409.1714   21602415.5654
  21844687.332      650264.88149    496410.41949  21844685.0594   21844690.5444
  20916839.797     -508364.70049   -386763.29749  20916836.8964   20916842.4174
  20504502.530      191817.84549    144151.66849  20504499.8924   20504504.9664
  22736729.098     -772323.94349   -584732.65949  22736726.6684   22736733.0594
  24603722.887      972417.45849    735918.98549  24603722.7204   24603727.6834
 96  4 18  0 24 30.0000000  0  6 16 24 20  5  6  4
  21591051.943     -741093.35349   -262286.34949  21591048.6164   21591054.7404
  21856205.464      710797.26149    543578.50549  21856204.0034   21856209.6524
  20908524.580     -552058.77749   -420810.62549  20908522.1854   20908528.0594
  20508317.245      211862.52249    159770.88649  20508314.2544   20508319.5034
  22723367.667     -842545.23049   -639450.51549  22723364.6764   22723370.6384
  24620806.749     1062182.18449    805865.52149  24620804.4134   24620809.4964
 96  4 18  0 25  0.0000000  0  6 16 24 20  5  6  4
  21579783.742     -800308.78749   -308428.22049  21579780.3164   21579786.7904
  21867760.970      771516.12449    590891.89649  21867758.5494   21867764.5694
  20900304.424     -595257.27249   -454471.77849  20900301.7494   20900307.9554
  20512230.985      232432.54949    175799.46549  20512228.3594   20512233.8014
  22710008.345     -912738.40149   -694146.45649  22710006.7514   22710012.6234
  24637882.636     1151906.79649    875780.74249  24637878.2024   24637884.6274
 96  4 18  0 25 30.0000000  0  6 16 24 20  5  6  4
  21568606.137     -859042.81449   -354194.96949  21568603.7524   21568610.4074
  21879349.106      832415.95449    638346.31049  21879347.4234   21879353.0164
  20892175.733     -637973.55649   -487757.18249  20892173.0214   20892179.1514
  20516242.951      253517.46549    192229.24449  20516240.6114   20516246.0104
  22696655.544     -982908.08849   -748824.11349  22696654.2354   22696659.8564
  24654945.239     1241586.14549    945660.73249  24654943.0304   24654949.8334
 96  4 18  0 26  0.0000000  0  6 16 24 20  5  6  4
  21557522.641     -917285.57549   -399578.92749  21557520.3564   21557526.9404
  21890973.708      893509.31449    685951.52049  21890972.9824   21890978.6024
  20884142.519     -680180.95849   -520646.06249  20884141.0724   20884147.0714
  20520359.534      275152.29749    209087.53249  20520357.8384   20520362.9644
  22683310.180    -1053041.29049   -803473.33849  22683308.0004   22683313.5254
  24672007.200     1331248.94749   1015527.81949  24672003.7864   24672011.7304
 96  4 18  0 26 30.0000000  0  6 16 24 20  5  6  4
  21546530.477     -975044.46949   -444585.83049  21546528.8394   21546535.6934
  21902635.434      954790.90149    733703.40249  21902634.6924   21902640.3804
  20876210.615     -721870.71149   -553131.58149  20876208.1554   20876213.6764
  20524583.712      297349.28249    226383.87249  20524582.0674   20524586.8124
  22669968.780    -1123148.06149   -858101.97149  22669967.7474   22669973.5794
  24689068.292     1420897.46549   1085383.74749  24689065.5824   24689071.2264
 96  4 18  0 27  0.0000000  0  6 16 24 20  5  6  4
  21535632.331    -1032318.24149   -489214.71549  21535630.3964   21535636.5144
  21914332.523     1016253.21149    781596.10849  21914330.5754   21914336.0994
  20868379.660     -763020.11549   -585196.04249  20868377.3864   20868383.2694
  20528916.995      320119.77249    244127.10349  20528915.0634   20528920.2904
  22656635.989    -1193215.38749   -912699.85049  22656633.9084   22656640.4414
  24706120.408     1510530.35349   1155227.56249  24706122.2484   24706125.8654
 96  4 18  0 27 30.0000000  0  6 16 24 20  5  6  4
  21524826.148    -1089106.64349   -533465.39749  21524823.9804   21524830.4764
  21926062.327     1077899.11849    829631.87549  21926061.4734   21926067.0614
  20860654.271     -803614.16449   -616827.76049  20860652.8954   20860658.5034
  20533360.837      343477.39449    262327.83149  20533359.5754   20533364.9374
  22643312.900    -1263216.98549   -967246.52449  22643312.8804   22643319.4694
  24723176.020     1600149.83249   1225060.90649  24723174.8484   24723181.0904
 96  4 18  0 28  0.0000000  0  6 16 24 20  5  6  4
  21514111.924    -1145404.65549   -577333.95649  21514110.6174   21514117.1824
  21937828.332     1139729.17949    877811.14349  21937827.3224   21937833.0044
  20853035.224     -843657.09149   -648030.03749  20853033.0504   20853038.5054
  20537917.867      367421.41149    280985.47749  20537916.0954   20537921.3514
  22630004.755    -1333156.65349  -1021744.93149  22630004.2184   22630009.9264
  24740232.150     1689749.92249   1294879.11449  24740224.7784   24740231.4104
 96  4 18  0 28 30.0000000  0  6 16 24 20  5  6  4
  21503494.595    -1201202.33049   -620812.64249  21503492.6164   21503499.3624
  21949631.314     1201759.60249    926146.53049  21949631.2414   21949636.8554
  20845516.697     -883160.11349   -678811.60849  20845515.5424   20845521.4544
  20542582.450      391932.55749    300085.03649  20542580.3244   20542585.6834
  22616711.798    -1403019.64449  -1076183.60449  22616709.6764   22616715.4744
  24757278.077     1779333.68849   1364684.58649  24757273.2394   24757278.9534
 96  4 18  0 29  0.0000000  0  6 16 24 20  5  6  4
  21492969.138    -1256510.69149   -663910.04749  21492967.6754   21492974.3034
  21961472.642     1263980.13149    974630.04249  21961471.3044   21961477.1144
  20838098.067     -922144.71849   -709189.21649  20838097.0864   20838102.6764
  20547348.011      416978.90449    319601.65949  20547346.7524   20547352.1824
  22603428.811    -1472810.46949  -1130566.05049  22603428.6044   22603434.1204
  24774311.554     1868879.05249   1434460.16449  24774314.6764   24774320.3964
 96  4 18  0 29 30.0000000  0  6 16 24 20  5  6  4
  21482538.318    -1311323.44649   -706621.25049  21482537.2754   21482543.5494
  21973349.756     1326400.12749   1023268.99349  21973349.8054   21973355.0044
  20830775.582     -960624.76949   -739173.65349  20830774.6264   20830780.5694
  20552213.203      442546.47049    339524.43449  20552211.7564   20552217.2094
  22590159.494    -1542542.59949  -1184902.74449  22590159.1244   22590165.3794
  24791346.611     1958378.87059   1504200.30859  24791344.7104   24791347.1904
 96  4 18  0 30  0.0000000  0  6 16 24 20  5  6  4
  21472206.377    -1365627.18849   -748935.83649  21472203.9734   21472209.7424
  21985268.120     1389026.09649   1072068.44449  21985266.6944   21985272.7224
  20823551.993     -998586.85549   -768754.49549  20823550.3944   20823556.4844
  20557176.079      468626.97249    359846.89349  20557175.1924   20557180.5744
  22576898.123    -1612232.75449  -1239206.73649  22576897.2384   22576903.3874
  24808351.980     2047819.68159   1573894.38459  24808361.9804   24808372.4884
 96  4 18  0 30 30.0000000  0  6 16 24 20  5  6  4
  21461969.118    -1419415.99049   -790849.15949  21461968.3124   21461974.3304
  21997220.937     1451844.86649   1121018.13749  21997221.2624   21997226.5124
  20816432.301    -1035999.91349   -797907.52549  20816431.1894   20816436.8224
  20562237.794      495223.72949    380571.63449  20562236.3764   20562241.7014
  22563645.621    -1681873.98749  -1293472.60349  22563645.0954   22563651.0034
  24825367.939     2137204.70849   1643545.01249  24825371.6134   24825379.9644
 96  4 18  0 31  0.0000000  0  6 16 24 20  5  6  4
  21451832.017    -1472685.90749   -832358.16649  21451831.0624   21451837.4384
  22009205.084     1514818.26249   1170088.31349  22009204.7654   22009210.0334
  20809422.497    -1072838.25549   -826612.72849  20809421.3644   20809426.9634
  20567394.919      522327.20649    401691.21049  20567393.5814   20567399.1824
  22550398.898    -1751481.53549  -1347712.23249  22550398.9714   22550405.1464
  24842360.848     2226514.62149   1713137.12649  24842366.3564   24842373.1634
 96  4 18  0 31 30.0000000  0  6 16 24 20  5  6  4
  21441798.712    -1525412.97349   -873444.16249  21441797.2774   21441803.9254
  22021217.400     1577946.02149   1219278.77549  22021217.1974   22021222.5074
  20802527.400    -1109073.20649   -854847.74849  20802525.9214   20802531.3744
  20572653.358      549962.83249    423225.45349  20572652.6594   20572658.2894
  22537161.799    -1821045.91649  -1401918.21149  22537161.4284   22537167.1464
  24859353.560     2315768.12049   1782685.30949  24859354.0514   24859359.0944
 96  4 18  0 32  0.0000000  0  6 16 24 20  5  6  4
  21431865.592    -1577611.13349   -914118.03549  21431864.5554   21431870.6844
  22033254.856     1641200.52349   1268567.99549  22033254.2554   22033259.8914
  20795745.408    -1144708.06249   -882615.16249  20795744.8504   20795750.1584
  20578014.174      578131.70149    445175.19849  20578013.1334   20578018.6234
  22523932.731    -1890564.73749  -1456088.67749  22523932.7334   22523938.3944
  24876333.546     2404967.72649   1852191.54649  24876329.5184   24876333.6544
 96  4 18  0 32 30.0000000  0  6 16 24 20  5  6  4
  21422032.567    -1629283.95649   -954382.54849  21422031.4104   21422037.8904
  22045314.664     1704576.65249   1317951.98549  22045314.3184   22045320.2634
  20789077.075    -1179752.16449   -909922.24749  20789076.1244   20789081.5384
  20583477.116      606843.45849    467547.98349  20583476.6904   20583482.4054
  22510717.151    -1960012.85849  -1510204.06949  22510716.7894   22510722.6044
  24893294.680     2494139.39549   1921675.99349  24893294.8734   24893302.9554
 96  4 18  0 33  0.0000000  0  6 16 24 20  5  6  4
  21412302.652    -1680416.63649   -994226.16949  21412301.2924   21412307.3424
  22057404.501     1768105.41049   1367454.91249  22057403.5234   22057408.8764
  20782520.012    -1214209.07749   -936771.78749  20782519.1464   20782525.0644
  20589047.916      636116.15049    490357.86749  20589047.2834   20589052.4494
  22497519.848    -2029369.05649  -1564247.83449  22497518.8974   22497524.5874
  24910257.840     2583293.80849   1991146.89849  24910260.2634   24910264.8904
 96  4 18  0 33 30.0000000  0  6 16 24 20  5  6  4
  21402671.506    -1731026.85049  -1033662.67349  21402670.7274   21402676.4064
  22069523.831     1831802.67649   1417089.14649  22069524.7374   22069530.2474
  20776066.398    -1248121.71649   -963197.21349  20776065.5464   20776071.5974
  20594727.748      665963.30449    513615.37849  20594726.8934   20594732.3104
  22484338.043    -2098634.08549  -1618220.54649  22484338.2424   22484343.7654
  24927224.362     2672419.63049   2060595.59649  24927222.5224   24927225.6574
 96  4 18  0 34  0.0000000  0  5 16 24 20  5  6
  21393136.802    -1781126.60349  -1072701.41949  21393136.5834   21393142.8604
  22081678.195     1895665.06349   1466852.04349  22081677.0914   22081682.9194
  20769711.861    -1281514.83449   -989217.81749  20769711.1744   20769717.2364
  20600513.891      696365.51449    537305.40249  20600512.5724   20600517.8794
  22471172.291    -2167818.56449  -1672130.50249  22471172.7584   22471179.0284
 96  4 18  0 34 30.0000000  0  5 16 24 20  5  6
  21383709.008    -1830667.70749  -1111304.85349  21383709.1914   21383715.5914
  22093866.497     1959727.73149   1516771.00549  22093868.0344   22093873.3604
  20763462.475    -1314352.75149  -1014805.80149  20763462.7804   20763468.3974
  20606409.270      727349.67849    561448.90049  20606408.1614   20606413.6084
  22458027.310    -2236898.47149  -1725958.97949  22458027.1104   22458033.3424
 96  4 18  0 35  0.0000000  0  5 16 24 20  5  6
  21374393.650    -1879627.62849  -1149455.42749  21374392.3994   21374398.7504
  22106097.673     2024004.38749   1566856.70549  22106099.2374   22106105.5444
  20757324.320    -1346614.93549  -1039945.15949  20757323.2334   20757328.8334
  20612417.351      758931.74049    586058.28849  20612417.9324   20612423.4594
  22444902.842    -2305866.04749  -1779699.92249  22444903.3144   22444908.9964
 96  4 18  0 35 30.0000000  0  5 16 24 20  5  6
  21365179.885    -1928033.88649  -1187174.56949  21365181.0044   21365187.3464
  22118362.605     2088453.29849   1617076.63449  22118363.3094   22118369.6864
  20751289.302    -1378320.46549  -1064650.76549  20751289.7744   20751295.3584
  20618533.629      791068.44949    611099.87349  20618533.6474   20618538.7784
  22431791.742    -2374758.72549  -1833382.51249  22431793.9264   22431798.5354
 96  4 18  0 36  0.0000000  0  5 16 24 20  5  6
  21356078.058    -1975872.70949  -1224451.55349  21356077.5394   21356083.9244
  22130657.460     2153062.95449   1667421.81049  22130658.6064   22130664.5444
  20745368.826    -1409438.17849  -1088898.33349  20745368.3084   20745374.0254
  20624751.869      823744.49649    636561.71849  20624751.3834   20624757.0604
  22418697.351    -2443583.26849  -1887012.01149  22418696.3024   22418702.0734
 96  4 18  0 36 30.0000000  0  5 16 24 20  5  6
  21347080.549    -2023155.42749  -1261295.20849  21347080.1594   21347086.3134
  22142982.921     2217826.04249   1717886.55549  22142982.8994   22142988.2334
  20739560.814    -1439957.77549  -1112679.82949  20739560.8074   20739566.4774
  20631074.900      856974.28949    662455.05849  20631074.9654   20631080.6844
  22405614.296    -2512329.94549  -1940580.83249  22405614.6834   22405620.0224
 96  4 18  0 37  0.0000000  0  5 16 24 20  5  6
  21338186.425    -2069892.07649  -1297713.36249  21338186.8424   21338192.6994
  22155335.334     2282743.23549   1768471.38049  22155335.8654   22155341.4944
  20733866.241    -1469878.16849  -1135994.41749  20733867.0564   20733872.6694
  20637504.157      890761.02249    688782.36249  20637504.7344   20637510.1314
  22392548.322    -2580994.35749  -1994085.55349  22392548.1954   22392554.0054
 96  4 18  0 37 30.0000000  0  5 16 24 20  5  6
  21329396.296    -2116081.58049  -1333705.16049  21329396.6614   21329403.0054
  22167718.925     2347827.79949   1819186.62349  22167720.8484   22167726.6714
  20728287.122    -1499198.75849  -1158841.62649  20728287.4634   20728293.2574
  20644040.012      925103.89349    715543.02649  20644039.9194   20644044.9924
  22379496.390    -2649582.76649  -2047531.05349  22379496.1594   22379502.0694
 96  4 18  0 38  0.0000000  0  6 16 24 20  5  6 17
  21320708.978    -2161735.51349  -1369279.63749  21320709.3034   21320715.4524
  22180135.459     2413071.43449   1870025.82249  22180136.5314   22180141.6174
  20722819.421    -1527932.57149  -1181231.60849  20722819.6084   20722825.2564
  20650681.626      960007.45249    742740.58549  20650681.9544   20650687.1254
  22366458.904    -2718087.71849  -2100911.51349  22366460.1804   22366465.8674
  25032652.350    -2004933.54459  -1545455.17559  25032653.6554   25032662.3904
 96  4 18  0 38 30.0000000  0  6 16 24 20  5  6 17
  21312124.235    -2206840.18949  -1404426.11649  21312125.9864   21312132.2004
  22192583.245     2478488.61349   1921000.24549  22192584.9534   22192590.4944
  20717463.068    -1556076.66549  -1203162.06449  20717464.1434   20717469.6364
  20657433.656      995495.84449    770393.86849  20657434.7884   20657440.0924
  22353444.092    -2786479.28249  -2154203.62149  22353446.0254   22353451.3384
  25014172.673    -2102060.03649  -1621138.09049  25014169.6964   25014179.4094
 96  4 18  0 39  0.0000000  0  6 16 24 20  5  6 17
  21303651.737    -2251366.08449  -1439121.59649  21303652.8714   21303659.1554
  22205069.245     2544100.44549   1972126.35049  22205070.2644   22205076.2374
  20712221.793    -1583621.58349  -1224625.63049  20712222.4874   20712228.3084
  20664296.245     1031561.97049    798497.33849  20664298.0274   20664303.6624
  22340451.664    -2854759.60649  -2207409.05349  22340451.8564   22340458.1124
  24995719.039    -2199008.92749  -1696682.62749  24995720.2404   24995730.5204
 96  4 18  0 39 30.0000000  0  6 16 24 20  5  6 17
  21295290.303    -2295305.51149  -1473360.09549  21295291.6104   21295297.6294
  22217591.217     2609904.48449   2023402.21549  22217592.4784   22217598.3784
  20707093.326    -1610570.09749  -1245624.47049  20707094.5104   20707099.9664
  20671267.394     1068191.95749    827040.17649  20671268.3534   20671273.8984
  22327477.379    -2922938.28549  -2260535.27449  22327478.4524   22327483.6004
  24977303.404    -2295804.61049  -1772107.77349  24977302.0064   24977309.4234
 96  4 18  0 40  0.0000000  0  6 16 24 20  5  6 17
  21287041.983    -2338655.66749  -1507139.41749  21287042.3394   21287048.4974
  22230145.761     2675877.85449   2074810.02949  22230147.1334   22230152.5324
  20702079.487    -1636918.71449  -1266155.85449  20702080.2294   20702086.1034
  20678345.805     1105389.56449    856025.32049  20678346.8544   20678352.5884
  22314522.924    -2991018.09649  -2313584.45649  22314523.0214   22314528.0184
  24958908.438    -2392437.80649  -1847406.31749  24958912.7634   24958922.2374
 96  4 18  0 40 30.0000000  0  6 16 24 20  5  6 17
  21278910.421    -2381384.90949  -1540434.91149  21278911.0734   21278917.5894
  22242736.908     2742045.37049   2126369.12749  22242737.9134   22242743.5184
  20697184.432    -1662640.83949  -1286199.06449  20697185.6954   20697191.3794
  20685535.792     1143172.48549    885466.53949  20685537.1944   20685542.3324
  22301585.876    -3058998.43049  -2366556.12149  22301586.9934   22301592.1934
  24940560.897    -2488885.89849  -1922560.63349  24940560.9194   24940568.7614
 96  4 18  0 41  0.0000000  0  6 16 24 20  5  6 17
  21270891.068    -2423523.80849  -1573270.40349  21270892.2874   21270898.5484
  22255357.903     2808367.59549   2178048.76849  22255358.8734   22255364.2434
  20692405.173    -1687756.93049  -1305770.03949  20692406.0264   20692411.4884
  20692828.705     1181496.89949    915329.69949  20692829.7654   20692835.2974
  22288659.949    -3126922.16149  -2419483.70049  22288661.6044   22288666.9244
  24922235.814    -2585186.28649  -1997599.81249  24922234.5204   24922243.1614
 96  4 18  0 41 30.0000000  0  6 16 24 20  5  6 17
  21262986.331    -2465065.87649  -1605640.83249  21262987.0794   21262993.4014
  22268005.993     2874840.30849   2229845.68149  22268008.0354   22268013.7004
  20687744.373    -1712244.84349  -1324851.52349  20687746.6164   20687751.5164
  20700229.232     1220383.52049    945630.95249  20700230.0504   20700235.2734
  22275752.021    -3194756.35949  -2472341.51349  22275752.8304   22275759.0614
  24903945.760    -2681307.15149  -2072499.13849  24903944.2954   24903952.1784
 96  4 18  0 42  0.0000000  0  6 16 24 20  5  6 17
  21255195.446    -2506007.48449  -1637543.35749  21255196.1774   21255202.5254
  22280683.890     2941458.65849   2281756.07549  22280685.3514   22280690.7964
  20683208.583    -1736085.31449  -1343428.50549  20683209.2414   20683214.9254
  20707739.266     1259850.78749    976384.65949  20707740.0604   20707745.4904
  22262864.477    -3262473.78449  -2525108.31349  22262866.8174   22262873.1514
  24885687.103    -2777218.11349  -2147234.91049  24885689.3284   24885698.6154
 96  4 18  0 42 30.0000000  0  6 16 24 20  5  6 17
  21247517.128    -2546359.07949  -1668986.14449  21247517.7954   21247523.9444
  22293386.662     3008218.14749   2333776.44449  22293389.0734   22293395.0264
  20678793.191    -1759288.79049  -1361509.13449  20678793.9464   20678799.8974
  20715354.703     1299873.35449   1007571.05949  20715356.5294   20715361.8584
  22250002.638    -3330069.07249  -2577779.94449  22250004.0204   22250009.3944
  24867477.405    -2872933.53149  -2221818.29749  24867477.6754   24867485.0714
 96  4 18  0 43  0.0000000  0  6 16 24 20  5  6 17
  21239953.114    -2586105.59049  -1699957.43349  21239954.4044   21239960.6634
  22306120.364     3075137.12749   2385921.10049  22306123.6734   22306128.8584
  20674501.189    -1781842.75249  -1379083.65049  20674502.4684   20674508.1104
  20723079.823     1340466.12749   1039201.76249  20723080.8214   20723086.2464
  22237169.760    -3397505.35349  -2630327.66949  22237171.2264   22237176.5474
  24849305.319    -2968425.56449  -2296227.58449  24849307.5134   24849314.2524
 96  4 18  0 43 30.0000000  0  6 16 24 20  5  6 17
  21232506.991    -2625231.13049  -1730444.85049  21232508.7154   21232515.1374
  22318892.452     3142249.97349   2438216.81349  22318894.9124   22318900.0764
  20670333.772    -1803739.86349  -1396146.34049  20670335.3594   20670341.0924
  20730918.315     1381658.68249   1071299.84249  20730919.4174   20730924.7604
  22224372.826    -3464756.02449  -2682730.77849  22224373.9024   22224379.0084
  24831180.009    -3063666.54949  -2370441.26949  24831182.6734   24831190.1574
 96  4 18  0 44  0.0000000  0  6 16 24 20  5  6 17
  21225175.016    -2663762.25249  -1760469.07949  21225176.3074   21225182.6684
  22331699.648     3209543.27149   2490653.14749  22331699.8694   22331705.7644
  20666284.391    -1825023.52649  -1412731.00849  20666284.9694   20666290.9364
  20738864.722     1423421.21949   1103842.07049  20738866.4654   20738872.1994
  22211601.512    -3531857.54749  -2735017.65849  22211604.5584   22211610.0884
  24813095.162    -3158700.33049  -2444493.49349  24813097.8204   24813104.6044
 96  4 18  0 44 30.0000000  0  6 16 24 20  5  6 17
  21217954.434    -2701703.38949  -1790033.58749  21217956.1974   21217962.6294
  22344540.126     3277031.58649   2543241.43749  22344542.9164   22344548.7274
  20662348.483    -1845706.64649  -1428847.72349  20662349.2594   20662355.2414
  20746921.395     1465755.66049   1136829.93149  20746922.7574   20746928.0124
  22198861.008    -3598818.56949  -2787195.07049  22198862.3544   22198867.9594
  24795047.136    -3253537.03249  -2518392.14949  24795051.6514   24795058.0294
 96  4 18  0 45  0.0000000  0  6 16 24 20  5  6 17
  21210844.041    -2739070.20649  -1819150.56749  21210845.7734   21210852.0414
  22357416.214     3344692.43149   2595964.16149  22357418.4584   22357423.9194
  20658522.864    -1865806.42849  -1444509.89449  20658524.7384   20658530.1934
  20755083.813     1508650.50549   1170254.47249  20755085.3894   20755090.9644
  22186139.761    -3665664.88749  -2839283.09849  22186142.0954   22186147.5594
  24777039.967    -3348190.63649  -2592148.11849  24777039.3074   24777046.4724
 96  4 18  0 45 30.0000000  0  6 16 24 20  5  6 17
  21203844.895    -2775854.39049  -1847813.54349  21203845.9674   21203851.8464
  22370323.624     3412523.11649   2648819.22749  22370325.9034   22370331.3534
  20654812.289    -1885307.45349  -1459705.49549  20654813.4644   20654819.2124
  20763352.805     1552103.30249   1204113.77349  20763353.9394   20763359.3554
  22173440.391    -3732401.62849  -2891285.74349  22173442.5784   22173448.0474
  24759058.589    -3442678.22049  -2665774.75449  24759059.4514   24759065.4044
 96  4 18  0 46  0.0000000  0  6 16 24 20  5  6 17
  21196956.307    -2812053.82249  -1876020.87549  21196957.6274   21196963.4904
  22383258.414     3480500.24849   2701788.41849  22383261.6424   22383267.0104
  20651215.856    -1904205.98549  -1474431.62149  20651217.1754   20651222.9694
  20771722.719     1596092.50349   1238391.05849  20771724.8184   20771730.5014
  22160758.708    -3799044.02549  -2943214.86749  22160760.4844   22160766.6504
  24741106.353    -3537008.38449  -2739278.71249  24741108.5594   24741115.5644
 96  4 18  0 46 30.0000000  0  6 16 24 20  5  6 17
  21190184.093    -2847641.01149  -1903751.13849  21190185.6564   21190191.7144
  22396224.165     3548625.72949   2754873.19349  22396225.2404   22396230.7714
  20647739.437    -1922469.73849  -1488663.12349  20647741.9004   20647747.5204
  20780199.068     1640630.91049   1273096.30649  20780200.1824   20780205.9504
  22148098.708    -3865579.63949  -2995060.78149  22148099.4594   22148104.8044
  24723190.998    -3631148.09649  -2812634.23549  24723194.1574   24723200.9944
 96  4 18  0 47  0.0000000  0  6 16 24 20  5  6 17
  21183528.548    -2882613.40249  -1931002.34049  21183530.5254   21183536.2394
  22409212.469     3616882.26949   2808060.08949  22409214.1624   22409219.5154
  20644385.941    -1940098.60449  -1502399.89749  20644387.0774   20644392.6804
  20788772.851     1685689.05849   1308206.53949  20788774.5404   20788780.4344
  22135456.037    -3932011.12649  -3046825.56149  22135458.3184   22135464.1194
  24705311.990    -3725090.40349  -2885835.98149  24705316.6174   24705325.2674
 96  4 18  0 47 30.0000000  0  6 16 24 20  5  6 17
  21176990.544    -2916976.21249  -1957778.53549  21176991.9084   21176997.4754
  22422227.146     3685279.92849   2861356.95549  22422229.5634   22422235.6684
  20641150.803    -1957095.41949  -1515644.16749  20641152.9694   20641158.1884
  20797447.160     1731270.83749   1343724.80049  20797448.3934   20797454.2114
  22122832.684    -3998341.54049  -3098511.58449  22122835.6184   22122841.6564
  24687476.133    -3818828.87249  -2958878.91049  24687479.3014   24687486.3514
 96  4 18  0 48  0.0000000  0  6 16 24 20  5  6 17
  21170568.538    -2950720.77249  -1984072.98749  21170570.2294   21170576.2394
  22435272.237     3753827.89149   2914770.94049  22435274.2214   22435279.6244
  20638036.734    -1973460.26149  -1528395.99549  20638038.6414   20638043.8974
  20806226.698     1777406.58649   1379674.72149  20806227.8594   20806233.3684
  22110234.106    -4064545.83349  -3150099.32649  22110237.0604   22110243.4474
  24669687.411    -3912321.12249  -3031729.93949  24669688.2134   24669696.3554
 96  4 18  0 48 30.0000000  0  6 16 24 20  5  6 17
  21164264.010    -2983851.56949  -2009889.18049  21164265.8994   21164271.4404
  22448346.035     3822534.51649   2968308.56249  22448348.7374   22448354.0824
  20635041.721    -1989207.26949  -1540666.38149  20635042.3114   20635047.7504
  20815113.547     1824111.05249   1416067.80549  20815115.4174   20815121.1804
  22097660.553    -4130624.57349  -3201589.24549  22097662.6754   22097668.0234
  24651945.021    -4005572.11349  -3104392.96749  24651943.4644   24651951.0014
 96  4 18  0 49  0.0000000  0  6 16 24 20  5  6 17
  21158075.645    -3016372.14449  -2035229.87349  21158077.1034   21158083.0804
  22461452.654     3891406.91949   3021975.35749  22461454.9074   22461460.2494
  20632160.202    -2004344.06049  -1552461.28649  20632161.9974   20632167.6104
  20824110.666     1871389.45449   1452908.10749  20824112.1484   20824117.5674
  22085111.315    -4196577.10049  -3252980.81149  22085112.5994   22085117.9634
  24634239.876    -4098596.95149  -3176879.79849  24634241.2824   24634249.8224
 96  4 18  0 49 30.0000000  0  6 16 24 20  5  6 17
  21152005.424    -3048269.82349  -2060085.19349  21152006.8624   21152013.1034
  22474590.241     3960448.77649   3075774.19949  22474592.9634   22474598.3064
  20629396.454    -2018863.06649  -1563774.79649  20629398.6884   20629404.4154
  20833220.551     1919265.21149   1490213.87649  20833222.4634   20833228.2644
  22072585.733    -4262400.13349  -3304271.46749  22072586.7484   22072592.4444
  24616578.970    -4191404.20549  -3249197.08249  24616580.5894   24616588.5524
 96  4 18  0 50  0.0000000  0  6 16 24 20  5  6 17
  21146055.064    -3079536.45649  -2084448.78949  21146057.0854   21146063.1114
  22487756.797     4029637.56749   3129687.52649  22487758.9944   22487763.9624
  20626754.935    -2032747.24049  -1574593.63849  20626756.8614   20626762.3514
  20842444.477     1967735.17449   1527982.66549  20842446.2754   20842451.4824
  22060082.644    -4328098.57149  -3355465.04449  22060084.7834   22060090.3784
  24598954.287    -4284003.96249  -3321352.63849  24598958.6694   24598967.3774
 96  4 18  0 50 30.0000000  0  6 16 24 20  5  6 17
  21140227.435    -3110163.30749  -2108313.84849  21140229.2104   21140235.3114
  22500949.423     4098968.23549   3183711.41849  22500952.2024   22500957.5774
  20624237.845    -2045975.70049  -1584901.53549  20624239.3664   20624244.9984
  20851777.130     2016780.62049   1566199.88849  20851779.0874   20851784.8084
  22047603.863    -4393681.19749  -3406568.38549  22047605.2204   22047611.4614
  24581370.936    -4376421.18149  -3393365.97549  24581372.8784   24581381.1804
 96  4 18  0 51  0.0000000  0  6 16 24 20  5  6 17
  21134519.626    -3140156.45749  -2131685.12449  21134521.4914   21134527.7074
  22514166.269     4168425.28449   3237833.78149  22514169.0614   22514174.5004
  20621846.807    -2058536.47849  -1594689.15349  20621849.2824   20621854.8764
  20861215.616     2066382.03849   1604850.33349  20861218.0084   20861223.8264
  22035144.912    -4459140.57949  -3457575.68849  22035148.5714   22035154.3934
  24563817.477    -4468660.22049  -3465240.48949  24563821.7664   24563829.3204
 96  4 18  0 51 30.0000000  0  6 16 24 20  5  6 17
  21128931.005    -3169521.20449  -2154566.73449  21128933.2904   21128939.9804
  22527407.034     4237996.89049   3292045.41349  22527408.8374   22527413.9624
  20619584.552    -2070428.64149  -1603955.77849  20619586.5474   20619591.6654
  20870760.125     2116534.66149   1643930.28949  20870761.9744   20870767.7314
  22022715.766    -4524471.78849  -3508483.11249  22022716.3364   22022722.2724
  24546300.859    -4560715.95649  -3536972.17849  24546302.4334   24546310.0144
 96  4 18  0 52  0.0000000  0  6 16 24 20  5  6 17
  21123462.588    -3198262.12049  -2176962.24349  21123464.4204   21123470.7654
  22540667.250     4307691.24949   3346352.69549  22540670.8604   22540676.1464
  20617447.193    -2081658.66049  -1612706.44649  20617449.3444   20617454.8814
  20880407.342     2167234.39049   1683436.55249  20880409.8084   20880415.7854
  22010307.556    -4589666.25449  -3559283.97449  22010309.8714   22010315.6724
  24528820.921    -4652580.84949  -3608555.13849  24528821.0484   24528828.5954
 96  4 18  0 52 30.0000000  0  6 16 24 20  5  6 17
  21118108.865    -3226393.11749  -2198882.48349  21118111.3814   21118117.5294
  22553956.200     4377518.56849   3400763.58949  22553958.5894   22553964.2824
  20615430.504    -2092259.04949  -1620966.49349  20615432.3934   20615437.5054
  20890154.236     2218453.90549   1723347.85449  20890156.3074   20890162.1004
  21997929.701    -4654711.62949  -3609968.66749  21997932.9714   21997938.2274
  24511377.168    -4744253.43149  -3679988.21749  24511375.9604   24511384.2054
 96  4 18  0 53  0.0000000  0  6 16 24 20  5  6 17
  21112870.638    -3253925.18649  -2220336.02749  21112872.1214   21112877.8934
  22567269.706     4447480.85649   3455279.66049  22567271.7714   22567277.0874
  20613529.903    -2102248.60749  -1628750.56549  20613531.4064   20613536.7044
  20899999.728     2270190.44449   1763662.02549  20900001.5244   20900007.2064
  21985582.676    -4719602.69749  -3660533.12749  21985584.1774   21985589.8324
  24493969.446    -4835718.80549  -3751259.88549  24493969.8114   24493978.7154
 96  4 18  0 53 30.0000000  0  6 16 24 20  5  6 17
  21107745.463    -3280855.06749  -2241320.34349  21107747.4574   21107753.7034
  22580609.793     4517581.39049   3509903.43549  22580611.6534   22580617.4864
  20611743.996    -2111632.85249  -1636062.96549  20611745.2144   20611750.9774
  20909943.449     2322447.36149   1804381.68849  20909945.5354   20909951.1064
  21973262.166    -4784339.06249  -3710977.03649  21973265.4564   21973270.6824
  24476603.386    -4926970.79649  -3822365.25449  24476606.1914   24476612.8714
 96  4 18  0 54  0.0000000  0  6 16 24 20  5  6 17
  21102734.702    -3307189.69449  -2261840.81649  21102735.9954   21102742.3484
  22593974.444     4587821.48449   3564635.96249  22593977.9504   22593983.9234
  20610070.903    -2120420.77049  -1642910.69249  20610072.9374   20610079.0834
  20919985.171     2375212.32249   1845497.22749  20919986.8144   20919992.4584
  21960971.852    -4848929.37449  -3761307.14449  21960974.2804   21960979.9964
  24459281.331    -5018012.21149  -3893306.54949  24459282.4054   24459288.1364
 96  4 18  0 54 30.0000000  0  6 16 24 20  5  6 17
  21097839.387    -3332910.87449  -2281883.28649  21097841.6584   21097847.4714
  22607369.444     4658204.54849   3619479.89349  22607371.3184   22607376.8474
  20608517.226    -2128589.72949  -1649276.11949  20608518.5514   20608524.2084
  20930123.595     2428493.76949   1887015.22549  20930125.6264   20930131.4664
  21948709.981    -4913365.66249  -3811517.23149  21948711.8544   21948717.7864
  24441998.025    -5108830.41749  -3964073.92249  24442001.0264   24442007.2164
 96  4 18  0 55  0.0000000  0  6 16 24 20  5  6 17
  21093062.921    -3358013.75049  -2301443.95849  21093064.7374   21093070.6834
  22620784.392     4728703.83549   3674414.39349  22620786.9714   22620792.5454
  20607080.694    -2136139.60149  -1655159.13749  20607081.8814   20607087.3314
  20940363.364     2482306.30949   1928947.07049  20940365.8564   20940371.7814
  21936472.976    -4977669.89649  -3861624.41749  21936475.9554   21936480.6784
  24424754.351    -5199435.81749  -4034675.48549  24424757.3314   24424765.6334
 96  4 18  0 55 30.0000000  0  6 16 24 20  5  6 17
  21088405.639    -3382490.25449  -2320516.54649  21088406.9744   21088413.2594
  22634221.497     4799315.56249   3729436.51649  22634224.1804   22634230.1214
  20605762.692    -2143063.14249  -1660554.10549  20605764.2294   20605769.9814
  20950704.144     2536643.20749   1971287.49749  20950706.2454   20950711.7874
  21924260.625    -5041845.19949  -3911631.13149  21924263.2714   21924269.2804
  24407552.897    -5289831.77749  -4105113.84049  24407555.4734   24407562.0794
 96  4 18  0 56  0.0000000  0  6 16 24 20  5  6 17
  21083866.884    -3406336.48449  -2339098.01849  21083869.1924   21083875.2684
  22647681.996     4870045.93549   3784551.07649  22647683.6184   22647689.3804
  20604565.834    -2149353.67549  -1665455.82549  20604567.4654   20604572.9504
  20961142.789     2591498.47649   2014031.84749  20961144.8214   20961150.3964
  21912074.451    -5105892.03349  -3961537.74649  21912075.8404   21912081.3884
  24390392.088    -5380013.43249  -4175385.20449  24390395.5254   24390402.9534
 96  4 18  0 56 30.0000000  0  6 16 24 20  5  6 17
  21079449.172    -3429555.53949  -2357190.77549  21079450.9404   21079456.7234
  22661160.717     4940885.52849   3839750.76249  22661163.6884   22661170.0304
  20603489.310    -2155004.39649  -1669858.97249  20603491.7144   20603497.4664
  20971678.918     2646869.26349   2057177.90749  20971681.3914   20971686.9454
  21899911.144    -5169808.52049  -4011342.78349  21899912.9964   21899918.6024
  24373275.574    -5469979.83749  -4245488.82149  24373275.0654   24373283.5704
 96  4 18  0 57  0.0000000  0  6 16 24 20  5  6 17
  21075146.201    -3452163.63849  -2374807.46649  21075148.7144   21075154.3754
  22674660.949     5011831.33949   3895033.19449  22674664.0484   22674669.7494
  20602534.992    -2160026.57549  -1673772.35349  20602536.4664   20602542.1674
  20982312.414     2702746.48949   2100718.58549  20982314.4564   20982320.0074
  21887771.698    -5233601.29849  -4061051.42949  21887773.5754   21887779.2524
  24356190.279    -5559741.04749  -4315432.58849  24356194.7714   24356203.3894
 96  4 18  0 57 30.0000000  0  6 16 24 20  5  6 17
  21070960.990    -3474166.07149  -2391952.20849  21070961.8174   21070967.5944
  22688186.875     5082901.44249   3950412.48749  22688188.8304   22688194.3274
  20601699.850    -2164415.14749  -1677192.01449  20601701.2294   20601706.9714
  20993039.266     2759113.09649   2144640.60449  20993040.5484   20993046.2854
  21875656.519    -5297268.46449  -4110662.20049  21875658.0974   21875663.7254
  24339149.790    -5649303.75749  -4385221.68849  24339149.8594   24339158.6514
 96  4 18  0 58  0.0000000  0  6 16 24 20  5  6 17
  21066888.963    -3495557.90249  -2408621.15549  21066891.1614   21066896.9954
  22701733.973     5154095.50449   4005888.37549  22701736.7034   22701742.2084
  20600986.854    -2168166.52149  -1680115.15449  20600987.4294   20600993.0884
  21003861.958     2815993.32649   2188962.85049  21003864.3554   21003870.0484
  21863564.869    -5360807.40349  -4160173.05649  21863567.1914   21863572.1174
  24322142.314    -5738665.09049  -4454853.87049  24322146.5814   24322152.6734
 96  4 18  0 58 30.0000000  0  6 16 24 20  5  6 17
  21062935.167    -3516336.70649  -2424812.42649  21062936.9814   21062943.0204
  22715300.854     5225395.33249   4061446.66749  22715304.4604   22715310.0034
  20600390.575    -2171291.53949  -1682550.22949  20600392.6824   20600398.2844
  21014785.704     2873393.73449   2233690.42849  21014787.2424   21014793.1974
  21851495.574    -5424235.23449  -4209597.34349  21851497.3674   21851502.3264
  24305169.172    -5827841.43349  -4524341.84849  24305175.3784   24305182.4674
 96  4 18  0 59  0.0000000  0  6 16 24 20  5  6 17
  21059100.289    -3536489.10749  -2440515.58049  21059102.0334   21059108.0834
  22728889.805     5296801.29249   4117087.66149  22728892.3024   22728897.7684
  20599914.596    -2173794.20149  -1684500.35249  20599916.4314   20599922.1614
  21025807.646     2931314.69149   2278823.62349  21025809.4934   21025815.2094
  21839444.673    -5487554.98249  -4258937.39749  21839447.5234   21839453.2284
  24288241.235    -5916843.27149  -4593693.91149  24288239.6144   24288246.8464
 96  4 18  0 59 30.0000000  0  6 16 24 20  5  6 17
  21055385.785    -3556009.86549  -2455726.55349  21055387.0374   21055393.1094
  22742495.975     5368306.08549   4172805.67549  22742499.5024   22742504.4704
  20599557.133    -2175669.16549  -1685961.36149  20599559.4394   20599565.0534
  21036928.712     2989756.33149   2324362.55249  21036930.6754   21036936.3244
  21827416.761    -5550766.59349  -4308193.19849  21827418.9164   21827424.5304
  24271331.423    -6005668.50349  -4662908.31949  24271337.5574   24271345.0914
 96  4 18  1  0  0.0000000  0  6 16 24 20  5  6 17
  21051788.326    -3574910.50249  -2470454.31449  21051790.5244   21051796.6334
  22756119.935     5439888.54249   4228584.20049  22756121.1944   22756126.1044
  20599320.197    -2176915.28649  -1686932.35949  20599322.3864   20599327.9384
  21048149.070     3048721.68149   2370309.56349  21048151.4694   21048157.1534
  21815408.284    -5613873.26049  -4357367.21449  21815410.1814   21815415.6034
  24254465.671    -6094311.80049  -4731980.96249  24254469.0634   24254475.6744
 96  4 18  1  0 30.0000000  0  6 16 24 20  5  6 17
  21048312.181    -3593180.07649  -2484690.34249  21048314.0174   21048319.9764
  22769756.326     5511557.24049   4284429.93849  22769759.2864   22769764.8154
  20599205.391    -2177522.37049  -1687405.41349  20599206.9434   20599212.2914
  21059467.613     3108197.47849   2416654.32049  21059469.2424   21059475.0254
  21803423.226    -5676855.20049  -4406444.04349  21803425.3884   21803430.8184
  24237636.301    -6182765.17549  -4800905.57849  24237635.3714   24237643.2904
 96  4 18  1  1  0.0000000  0  6 16 24 20  5  6 17
  21044953.569    -3610837.34249  -2498449.24049  21044954.2234   21044960.0354
  22783413.404     5583312.11649   4340342.81849  22783413.9474   22783419.3724
  20599209.376    -2177493.51849  -1687382.93349  20599212.1064   20599217.7804
  21070877.909     3168166.89749   2463383.72649  21070880.7394   21070886.8014
  21791464.563    -5739692.71949  -4455408.32849  21791467.2744   21791473.2064
  24220841.692    -6271021.73249  -4869676.85549  24220842.0694   24220848.3854
 96  4 18  1  1 30.0000000  0  6 16 24 20  5  6 17
  21041708.606    -3627882.66649  -2511731.29549  21041710.2844   21041716.2994
  22797082.823     5655157.36549   4396326.13349  22797085.4544   22797090.9404
  20599337.934    -2176825.77249  -1686862.61949  20599339.6834   20599345.0404
  21082384.756     3228628.61349   2510496.73849  21082386.5244   21082392.1254
  21779536.187    -5802377.42149  -4504253.53549  21779538.9384   21779544.4924
  24204085.905    -6359060.80549  -4938278.68849  24204088.2914   24204096.0624
 96  4 18  1  2  0.0000000  0  6 16 24 20  5  6 17
  21038577.392    -3644334.85149  -2524551.17049  21038579.6184   21038585.5514
  22810771.162     5727077.24749   4452367.59349  22810770.9984   22810776.6814
  20599581.087    -2175547.76849  -1685866.78549  20599582.7494   20599588.3114
  21093977.575     3289552.88949   2557970.18349  21093980.0374   21093985.5924
  21767634.761    -5864921.51349  -4552989.17949  21767636.9524   21767642.7374
  24187367.683    -6446898.84549  -5006723.86749  24187373.0394   24187380.3174
 96  4 18  1  2 30.0000000  0  6 16 24 20  5  6 17
  21035563.040    -3660179.34049  -2536897.51549  21035564.5424   21035570.1384
  22824471.563     5799088.23949   4508480.04049  22824474.1754   22824480.9944
  20599938.743    -2173663.00249  -1684398.13649  20599941.4534   20599946.9014
  21105658.505     3350935.67749   2605800.90949  21105660.6224   21105666.4104
  21755764.281    -5927305.42949  -4601600.00849  21755766.0434   21755771.3394
  24170697.644    -6534523.93049  -5075003.09949  24170698.8884   24170705.2424
 96  4 18  1  3  0.0000000  0  6 16 24 20  5  6 17
  21032666.145    -3675403.86449  -2548760.77149  21032667.7484   21032673.1004
  22838198.529     5871212.85749   4564681.03849  22838199.2924   22838204.6434
  20600414.622    -2171165.11249  -1682451.73849  20600416.8474   20600422.2394
  21117431.308     3412798.55349   2654005.72849  21117432.8294   21117438.4864
  21743924.667    -5989520.39549  -4650079.21149  21743927.0114   21743932.2634
  24154064.344    -6621920.10549  -5143103.98449  24154068.3884   24154075.0434
 96  4 18  1  3 30.0000000  0  6 16 24 20  5  6 17
  21029887.034    -3690003.47949  -2560137.08149  21029889.4054   21029894.9724
  22851940.495     5943437.82549   4620960.22949  22851943.2404   22851948.9324
  20601005.267    -2168062.62649  -1680034.22849  20601006.9914   20601012.8634
  21129291.573     3475125.88049   2702572.46249  21129293.4454   21129298.9214
  21732113.674    -6051588.09649  -4698443.63949  21732116.1154   21732121.4074
  24137474.072    -6709099.17549  -5211035.67249  24137478.1564   24137485.5034
 96  4 18  1  4  0.0000000  0  6 16 24 20  5  6 17
  21027227.885    -3703979.82949  -2571027.72849  21027229.7904   21027235.4234
  22865699.151     6015750.93049   4677308.09849  22865703.7084   22865709.1944
  20601711.652    -2164353.53549  -1677144.03549  20601713.1914   20601718.7954
  21141240.861     3537920.39649   2751503.23349  21141242.6244   21141248.5624
  21720329.821    -6113510.87449  -4746695.13849  21720332.0864   21720337.3034
  24120926.030    -6796076.28249  -5278810.00449  24120925.5524   24120934.3704
 96  4 18  1  4 30.0000000  0  6 16 24 20  5  6 17
  21024688.955    -3717318.43549  -2581421.43949  21024691.1214   21024697.2264
  22879478.881     6088152.44149   4733724.85049  22879481.1434   22879487.6084
  20602535.186    -2160019.74849  -1673767.06949  20602537.7324   20602543.3774
  21153284.954     3601208.10249   2800818.31549  21153285.9644   21153291.7924
  21708574.835    -6175284.98949  -4794830.80049  21708577.1474   21708582.1934
  24104413.136    -6882836.12349  -5346415.04849  24104417.6454   24104424.0834
 96  4 18  1  5  0.0000000  0  6 16 24 20  5  6 17
  21022270.694    -3730028.45049  -2591325.33749  21022272.5394   21022278.6864
  22893273.060     6160631.46749   4790201.99949  22893274.2354   22893280.0214
  20603480.846    -2155053.06249  -1669896.94049  20603482.8614   20603488.1424
  21165422.597     3664995.14649   2850522.48649  21165424.4754   21165430.1804
  21696844.606    -6236925.20049  -4842862.12849  21696846.9144   21696852.3004
  24087942.917    -6969393.25249  -5413862.11549  24087945.3604   24087951.5764
 96  4 18  1  5 30.0000000  0  6 16 24 20  5  6 17
  21019972.306    -3742111.44749  -2600740.64849  21019973.6804   21019979.3814
  22907075.480     6233174.20049   4846728.78849  22907078.0774   22907084.5894
  20604549.811    -2149433.74249  -1665518.24849  20604552.0334   20604557.6314
  21177657.544     3729291.26649   2900623.34349  21177659.5734   21177665.3374
  21685140.454    -6298430.21249  -4890788.09449  21685142.7604   21685148.7804
  24071513.128    -7055736.77849  -5481142.75049  24071514.4244   24071521.1684
 96  4 18  1  6  0.0000000  0  6 16 24 20  5  6 17
  21017783.749    -3753605.61349  -2609697.12949  21017785.9444   21017792.2744
  22920887.500     6305757.51749   4903287.19349  22920890.2784   22920895.8864
  20605739.055    -2143188.33949  -1660651.70749  20605740.6424   20605746.0564
  21189988.088     3794088.92149   2951115.00949  21189990.1254   21189995.8684
  21673458.722    -6359821.69149  -4938625.60849  21673460.9214   21673466.3104
  24055115.179    -7141895.89649  -5548279.71549  24055120.8294   24055125.9964
 96  4 18  1  6 30.0000000  0  6 16 24 20  5  6 17
  21015709.028    -3764511.29949  -2618195.05649  21015710.6754   21015716.8404
  22934712.912     6378407.23649   4959897.35749  22934715.1954   22934720.7974
  20607048.245    -2136306.06449  -1655288.90049  20607050.3704   20607055.9624
  21202416.224     3859398.96549   3002005.94149  21202418.4394   21202423.8514
  21661801.168    -6421086.22049  -4986364.19449  21661802.3544   21661808.0084
  24038758.845    -7227857.81149  -5615262.96449  24038761.6444   24038768.0514
 96  4 18  1  7  0.0000000  0  6 16 24 20  5  6 17
  21013742.462    -3774846.45049  -2626248.40949  21013744.1204   21013749.9284
  22948545.841     6451110.91149   5016549.56849  22948550.1704   22948555.0924
  20608475.373    -2128808.52749  -1649446.66949  20608476.9634   20608482.6944
  21214935.623     3925189.97049   3053271.65149  21214937.7434   21214943.3344
  21650163.584    -6482233.35649  -5034011.29449  21650166.6654   21650171.9324
  24022434.776    -7313644.17249  -5682109.43349  24022436.5594   24022442.7544
 96  4 18  1  7 30.0000000  0  6 16 24 20  5  6 17
  21011888.044    -3784588.25849  -2633839.41949  21011890.3074   21011896.3134
  22962396.204     6523883.27549   5073255.30049  22962398.3364   22962403.9434
  20610018.002    -2120696.84949  -1643125.88749  20610020.5534   20610026.2684
  21227545.593     3991453.87149   3104905.84349  21227547.1634   21227553.0654
  21638554.572    -6543242.53749  -5081550.91649  21638556.7024   21638562.1094
  24006142.605    -7399241.32849  -5748808.47649  24006148.1434   24006155.2094
 96  4 18  1  8  0.0000000  0  6 16 24 20  5  6 17
  21010147.667    -3793735.08149  -2640966.80049  21010149.9314   21010155.8304
  22976258.694     6596728.68949   5130017.94849  22976260.6244   22976265.6704
  20611674.784    -2111993.45949  -1636344.03049  20611676.6464   20611682.5314
  21240237.534     4058152.29249   3156878.62249  21240239.6844   21240245.9184
  21626970.874    -6604117.78149  -5128986.17849  21626972.7004   21626978.2324
  23989891.547    -7484661.74549  -5815369.79949  23989892.8294   23989900.6734
 96  4 18  1  8 30.0000000  0  6 16 24 20  5  6 17
  21008526.578    -3802257.37849  -2647607.53649  21008527.9384   21008533.9104
  22990136.722     6669650.72449   5186840.30949  22990137.2914   22990142.6464
  20613444.959    -2102688.24749  -1629093.22349  20613447.4314   20613452.9884
  21253009.522     4125271.10049   3209178.97549  21253011.9274   21253018.1004
  21615414.076    -6664845.56449  -5176306.52449  21615416.5304   21615421.9684
  23973673.426    -7569877.50249  -5881771.66849  23973677.2234   23973684.4214
 96  4 18  1  9  0.0000000  0  6 16 24 20  5  6 17
  21007024.051    -3810149.21849  -2653757.01849  21007025.8154   21007032.1434
  23004021.631     6742633.83749   5243710.25349  23004024.8944   23004030.2364
  20615327.584    -2092800.11649  -1621388.19949  20615329.1694   20615334.4404
  21265858.640     4192786.65749   3261788.48449  21265859.7424   21265865.6354
  21603886.632    -6725427.26149  -5223513.03549  21603888.5494   21603893.8994
  23957500.918    -7654881.64949  -5948008.62149  23957501.6574   23957507.6024
 96  4 18  1  9 30.0000000  0  6 16 24 20  5  6 17
  21005646.285    -3817389.58449  -2659398.85449  21005648.2014   21005654.2644
  23017925.798     6815694.36849   5300640.52049  23017927.8914   23017933.5854
  20617322.653    -2082309.27249  -1613213.51749  20617325.4054   20617331.1294
  21278784.330     4260715.37649   3314719.93949  21278786.1214   21278791.8944
  21592388.893    -6785851.27149  -5270596.66449  21592389.8954   21592395.2964
  23941364.128    -7739660.91949  -6014070.33849  23941368.0064   23941375.5114
 96  4 18  1 10  0.0000000  0  6 16 24 20  5  6 17
  21004392.745    -3823977.86449  -2664532.57849  21004394.6984   21004400.3924
  23031843.126     6888823.96049   5357624.60549  23031844.6444   23031849.7844
  20619437.261    -2071202.94649  -1604559.24449  20619439.0814   20619444.5584
  21291794.904     4329089.23849   3367998.25349  21291797.8394   21291802.8304
  21580920.983    -6846101.78949  -5317545.11549  21580924.3254   21580930.0714
  23925279.904    -7824195.87349  -6079941.69549  23925281.4834   23925288.9934
 96  4 18  1 10 30.0000000  0  6 16 24 20  5  6 17
  21003256.195    -3829945.34049  -2669182.55249  21003258.9144   21003264.9774
  23045764.179     6961991.40449   5414638.17949  23045768.4304   23045773.5334
  20621663.349    -2059504.05949  -1595443.23849  20621665.3734   20621670.4284
  21304891.712     4397906.90049   3421622.38849  21304892.9134   21304898.1974
  21569487.004    -6906193.49649  -5364369.81049  21569489.4044   21569494.8794
  23909235.270    -7908514.27049  -6145644.29549  23909236.9104   23909244.3194
 96  4 18  1 11  0.0000000  0  6 16 24 20  5  6 17
  21002238.684    -3835299.16749  -2673354.35949  21002240.5404   21002246.2694
  23059695.993     7035201.59349   5471685.06949  23059698.8334   23059704.8014
  20624004.018    -2047205.85849  -1585860.22849  20624005.5224   20624010.9584
  21318073.424     4467179.73849   3475601.20349  21318075.2544   21318080.7144
  21558083.510    -6966120.43549  -5411066.11849  21558085.6874   21558091.2214
  23893228.107    -7992631.94549  -6211190.50149  23893227.8504   23893236.3984
 96  4 18  1 11 30.0000000  0  6 16 24 20  5  6 17
  21001335.311    -3840041.27949  -2677049.49749  21001337.5804   21001343.4874
  23073635.008     7108452.08349   5528763.35649  23073637.7864   23073644.0714
  20626461.271    -2034291.11749  -1575796.80549  20626463.4104   20626468.4824
  21331343.651     4536918.38049   3529942.97449  21331345.8464   21331351.6654
  21546710.253    -7025889.33249  -5457639.26749  21546712.0544   21546717.6904
  23877253.937    -8076562.11249  -6276590.58849  23877257.1894   23877264.3164
 96  4 18  1 12  0.0000000  0  6 16 24 20  5  6 17
  21000550.600    -3844163.94249  -2680261.95149  21000553.2664   21000559.2964
  23087586.568     7181755.06749   5585882.55149  23087587.3784   23087593.4484
  20629038.155    -2020748.47149  -1565244.11249  20629040.2554   20629045.5814
  21344705.031     4607134.68749   3584656.95849  21344707.8534   21344713.4114
  21535367.928    -7085487.83949  -5504079.65649  21535371.1964   21535376.1674
  23861325.604    -8160279.60449  -6341824.94149  23861327.3284   23861333.9684
 96  4 18  1 12 30.0000000  0  6 16 24 20  5  6 17
  20999882.355    -3847680.82549  -2683002.37649  20999884.3174   20999889.9834
  23101544.608     7255112.67549   5643044.29949  23101546.8874   23101552.6684
  20631731.745    -2006594.69449  -1554215.20249  20631733.3704   20631739.1274
  21358151.709     4677795.32349   3639717.17549  21358153.9794   21358160.1424
  21524053.284    -7144957.60449  -5550419.72049  21524054.4664   21524059.5614
  23845428.929    -8243814.14649  -6406916.75749  23845432.2084   23845438.1794
 96  4 18  1 13  0.0000000  0  6 16 24 20  5  6 17
  20999330.691    -3850578.74549  -2685260.49049  20999332.7614   20999338.6554
  23115515.438     7328540.10549   5700260.47349  23115519.8804   23115525.4414
  20634543.700    -1991814.19949  -1542697.94149  20634545.9344   20634551.6694
  21371683.240     4748905.09649   3695127.37349  21371685.9534   21371691.9084
  21512757.203    -7204308.39449  -5596667.06549  21512760.0414   21512765.4594
  23829567.873    -8327164.79549  -6471865.27749  23829570.7244   23829577.1274
 96  4 18  1 13 30.0000000  0  6 16 24 20  5  6 17
  20998894.979    -3852869.77949  -2687045.71049  20998896.8214   20998902.7614
  23129501.196     7402029.43349   5757524.87149  23129503.8584   23129510.0664
  20637475.143    -1976411.17849  -1530695.59749  20637477.4004   20637482.8504
  21385300.948     4820456.74449   3750881.88649  21385301.4044   21385307.6664
  21501483.380    -7263555.19149  -5642833.39149  21501485.9854   21501491.1654
  23813740.649    -8410335.45049  -6536673.57349  23813743.4864   23813750.2264
 96  4 18  1 14  0.0000000  0  6 16 24 20  5  6 17
  20998571.819    -3854564.76249  -2688366.47149  20998574.2094   20998580.0044
  23143494.964     7475569.57149   5814828.85949  23143498.6574   23143504.2644
  20640522.852    -1960399.21749  -1518218.75949  20640524.3954   20640529.8284
  21398997.230     4892438.01549   3806971.17049  21398999.5124   21399005.2434
  21490228.681    -7322694.76449  -5688916.16449  21490231.9964   21490237.1284
  23797947.722    -8493329.02349  -6601343.85449  23797949.7944   23797955.9574
 96  4 18  1 14 30.0000000  0  6 16 24 20  5  6 17
  20998366.098    -3855648.51849  -2689210.95349  20998367.9494   20998373.7064
  23157501.589     7549172.05249   5872181.42249  23157504.0904   23157509.7644
  20643689.575    -1943758.48749  -1505251.96849  20643691.2474   20643696.6114
  21412777.359     4964854.43949   3863399.52849  21412779.8974   21412785.3224
  21479003.154    -7381697.20049  -5734892.08249  21479004.1504   21479009.8084
  23782184.860    -8576149.32049  -6665879.13149  23782188.8094   23782195.2294
 96  4 18  1 15  0.0000000  0  6 16 24 20  5  6 17
  20998272.571    -3856142.96549  -2689596.23449  20998273.9854   20998279.3444
  23171514.253     7622806.57349   5929558.95449  23171516.7244   23171522.4974
  20646973.190    -1926496.18149  -1491800.83649  20646975.9524   20646981.4684
  21426637.796     5037684.21349   3920149.98249  21426638.9784   21426644.3974
  21467803.431    -7440543.56849  -5780746.38849  21467805.9554   21467811.2564
  23766463.853    -8658793.31549  -6730277.02049  23766463.2444   23766470.4334
 96  4 18  1 15 30.0000000  0  6 16 24 20  5  6 17
  20998291.808    -3856039.31649  -2689515.46249  20998293.4314   20998299.0444
  23185531.073     7696466.81149   5986956.52049  23185533.7094   23185539.1884
  20650376.694    -1908614.35749  -1477866.95849  20650378.9074   20650384.1984
  21440573.149     5110924.13949   3977220.03849  21440575.6004   21440581.4044
  21456640.451    -7499208.34649  -5826459.19049  21456642.6414   21456647.9754
  23750774.607    -8741229.76049  -6794513.18949  23750776.5464   23750782.5184
 96  4 18  1 16  0.0000000  0  6 16 24 20  5  6 17
  20998427.409    -3855326.72549  -2688960.18849  20998428.9194   20998434.5794
  23199553.678     7770157.09949   6044377.50749  23199556.3314   23199562.6314
  20653894.737    -1890124.95149  -1463459.64149  20653897.2044   20653902.7624
  21454586.437     5184564.82249   4034602.36549  21454588.7924   21454595.0804
  21445512.731    -7557681.67749  -5872022.81549  21445515.2664   21445521.0354
  23735127.398    -8823449.81949  -6858580.74949  23735130.0414   23735137.0544
 96  4 18  1 16 30.0000000  0  6 16 24 20  5  6 17
  20998676.601    -3854011.06149  -2687934.99049  20998679.3524   20998685.3064
  23213584.116     7843879.61249   6101823.60549  23213585.8544   23213591.9514
  20657525.800    -1871044.39249  -1448591.68449  20657527.5814   20657533.5094
  21468675.385     5258596.54149   4092289.39349  21468676.7194   21468682.7814
  21434420.979    -7615967.38349  -5917440.23749  21434424.1244   21434429.4944
  23719525.049    -8905447.47749  -6922474.99949  23719526.2614   23719533.4804
 96  4 18  1 17  0.0000000  0  6 16 24 20  5  6 17
  20999044.730    -3852080.75949  -2686430.85449  20999046.5644   20999052.7564
  23227622.615     7917650.39449   6159307.33249  23227623.1174   23227629.5714
  20661268.045    -1851382.30449  -1433270.58649  20661269.4554   20661275.1064
  21482840.136     5333033.93649   4150292.53549  21482842.1924   21482847.8044
  21423364.350    -7674076.81049  -5962720.30349  21423366.0274   21423371.6314
  23703963.989    -8987202.70749  -6986180.33649  23703968.2834   23703975.6214
 96  4 18  1 17 30.0000000  0  6 16 24 20  5  6 17
  20999529.894    -3849531.30749  -2684444.26149  20999532.1314   20999537.8584
  23241668.825     7991473.65149   6216831.93049  23241672.2144   23241677.5724
  20665116.386    -1831159.95949  -1417512.92549  20665118.0144   20665123.2894
  21497081.687     5407874.64649   4208609.95349  21497083.7374   21497089.6844
  21412334.579    -7732038.54249  -6007885.28349  21412336.1114   21412341.5844
  23688451.570    -9068734.16549  -7049711.30649  23688454.3274   23688460.4084
 96  4 18  1 18  0.0000000  0  6 16 24 20  5  6 17
  21000133.186    -3846364.88149  -2681976.91149  21000134.3984   21000140.4004
  23255731.058     8065360.21849   6274405.86649  23255732.2684   23255737.6674
  20669072.190    -1810368.89949  -1401312.11049  20669074.1394   20669079.6354
  21511401.901     5483126.04749   4267247.39049  21511403.5314   21511409.4104
  21401333.894    -7789846.30449  -6052930.28349  21401335.8934   21401341.2364
  23672977.079    -9150042.42149  -7113068.35549  23672981.3294   23672988.4644
 96  4 18  1 18 30.0000000  0  6 16 24 20  5  6 17
  21000850.475    -3842593.15649  -2679037.89749  21000852.2904   21000857.9214
  23269801.391     8139307.83249   6332027.37249  23269804.6424   23269810.5164
  20673137.242    -1789008.33149  -1384667.52349  20673139.2014   20673144.5834
  21525798.443     5558784.86449   4326202.29149  21525801.1884   21525807.1194
  21390361.585    -7847505.24149  -6097859.31449  21390363.7654   21390369.1044
  23657548.834    -9231134.17749  -7176256.69049  23657550.2814   23657557.5564
 96  4 18  1 19  0.0000000  0  6 16 24 20  5  6 17
  21001686.039    -3838199.66349  -2675614.38749  21001688.1394   21001693.8894
  23283884.455     8213326.97949   6389704.61249  23283889.2654   23283895.2144
  20677315.559    -1767050.32649  -1367557.40549  20677317.6424   20677323.3614
  21540277.808     5634869.10649   4385488.70049  21540279.3934   21540285.2804
  21379421.270    -7905000.15149  -6142660.54449  21379423.0354   21379428.4284
  23642159.847    -9312003.64349  -7239271.82049  23642160.7524   23642167.7734
 96  4 18  1 19 30.0000000  0  6 16 24 20  5  6 17
  21002638.161    -3833194.92149  -2671714.58149  21002640.4244   21002646.2664
  23297983.319     8287395.27149   6447420.15649  23297984.0404   23297989.5334
  20681610.375    -1744479.64849  -1349969.87449  20681612.3154   20681618.0624
  21554834.006     5711368.00549   4445098.20949  21554836.4624   21554842.5694
  21368516.176    -7962304.56349  -6187313.34149  21368518.0674   21368523.7744
  23626811.938    -9392662.82449  -7302123.09749  23626811.7774   23626819.4514
 96  4 18  1 20  0.0000000  0  6 16 24 20  5  6 17
  21003703.652    -3827604.58849  -2667358.46949  21003704.3824   21003710.1004
  23312079.144     8361485.40549   6505152.72049  23312082.4704   23312088.2894
  20686021.205    -1721301.01849  -1331908.61249  20686023.4694   20686029.0794
  21569468.514     5788266.83849   4505019.36349  21569469.9544   21569475.9464
  21357646.715    -8019419.68949  -6231818.63149  21357649.6374   21357655.4584
  23611496.390    -9473131.02049  -7364825.53849  23611500.0134   23611505.9524
 96  4 18  1 20 30.0000000  0  6 16 24 20  5  6 17
  21004882.178    -3821404.56949  -2662527.28349  21004884.3364   21004889.8774
  23326183.162     8435602.44649   6562906.24249  23326186.5824   23326193.0904
  20690550.449    -1697493.82149  -1313357.56349  20690553.6664   20690559.4444
  21584178.738     5865576.36349   4565260.53149  21584181.1844   21584187.2204
  21346814.457    -8076344.82749  -6276175.89549  21346817.1324   21346822.3534
  23596223.135    -9553401.12249  -7427373.65749  23596225.2424   23596231.9894
 96  4 18  1 21  0.0000000  0  6 16 24 20  5  6 17
  21006177.312    -3814600.49849  -2657225.40449  21006178.8124   21006184.9284
  23340287.201     8509713.20449   6620654.86149  23340289.4954   23340295.1404
  20695199.089    -1673070.49449  -1294326.41049  20695201.0624   20695207.1914
  21598968.629     5943291.63549   4625817.87049  21598970.1314   21598975.7244
  21336014.568    -8133090.46949  -6320393.29449  21336018.7124   21336023.7574
  23580981.312    -9633491.99649  -7489782.09949  23580983.6974   23580990.4284
 96  4 18  1 21 30.0000000  0  6 16 24 20  5  6 17
  21007584.674    -3807201.58149  -2651460.01249  21007586.8154   21007592.7964
  23354386.081     8583809.67349   6678392.35249  23354389.3764   23354395.1434
  20699961.936    -1648041.76149  -1274823.51349  20699964.1964   20699969.5744
  21613833.985     6021408.03149   4686687.77749  21613835.0974   21613841.2584
  21325250.499    -8189666.47349  -6364478.49949  21325252.7464   21325257.8844
  23565778.384    -9713392.64849  -7552042.33249  23565780.4684   23565785.8804
 96  4 18  1 22  0.0000000  0  6 16 24 20  5  6 17
  21009105.573    -3799212.31149  -2645234.59849  21009107.4544   21009113.3654
  23368484.989     8657896.55249   6736122.37549  23368488.6454   23368492.9084
  20704838.573    -1622416.17449  -1254855.53949  20704840.3604   20704846.0394
  21628774.170     6099925.38749   4747870.12449  21628776.6464   21628782.3514
  21314512.272    -8246099.24449  -6408452.09749  21314514.3774   21314519.0974
  23550609.923    -9793093.80849  -7614147.11149  23550612.4944   23550619.3774
 96  4 18  1 22 30.0000000  0  6 16 24 20  5  6 17
  21010736.554    -3790642.39149  -2638556.73149  21010738.2174   21010744.0414
  23382581.346     8731978.59549   6793848.63549  23382585.2654   23382591.4064
  20709824.143    -1596213.52249  -1234437.89849  20709826.7584   20709832.5364
  21643790.371     6178835.01649   4809358.13249  21643792.3284   21643798.5304
  21303798.648    -8302392.91649  -6452317.28649  21303801.6864   21303806.8274
  23535481.965    -9872602.64749  -7676102.02049  23535482.8334   23535489.6094
 96  4 18  1 23  0.0000000  0  6 16 24 20  5  6 17
  21012471.926    -3781520.32849  -2631448.62349  21012474.0834   21012479.7024
  23396677.682     8806054.52549   6851570.11049  23396682.0634   23396687.6454
  20714918.462    -1569447.72549  -1213581.44449  20714920.0944   20714925.7334
  21658879.129     6258129.55949   4871146.06849  21658881.6994   21658887.7764
  21293113.775    -8358542.61849  -6496070.28549  21293116.8734   21293121.8904
  23520385.054    -9951930.22149  -7737915.69449  23520387.2794   23520393.1084
 96  4 18  1 23 30.0000000  0  6 16 24 20  5  6 17
  21014315.096    -3771835.73549  -2623902.18549  21014317.0074   21014322.7334
  23410779.416     8880148.81649   6909305.89549  23410782.1034   23410786.7244
  20720121.962    -1542099.67249  -1192271.28749  20720124.1224   20720129.6394
  21674041.503     6337803.10349   4933229.33349  21674043.0714   21674049.2464
  21282459.384    -8414536.01649  -6539701.49849  21282461.3184   21282466.9384
  23505328.106   -10031061.38349  -7799576.31449  23505328.6544   23505336.1724
 96  4 18  1 24  0.0000000  0  6 16 24 20  5  6 17
  21016268.727    -3761568.35449  -2615901.63049  21016270.5404   21016276.3664
  23424885.913     8954283.68949   6967073.31249  23424888.5804   23424894.4624
  20725437.480    -1514167.26949  -1170505.79349  20725439.6354   20725445.0894
  21689273.041     6417848.28649   4995602.19149  21689275.2084   21689281.3964
  21271837.312    -8470354.09449  -6583196.10549  21271839.6064   21271845.1804
  23490305.464   -10110007.62849  -7861092.84049  23490307.3174   23490312.6764
 96  4 18  1 24 30.0000000  0  6 16 24 20  5  6 17
  21018340.131    -3750682.45549  -2607419.11549  21018342.3764   21018347.7714
  23439006.735     9028482.85849   7024890.80249  23439008.3934   23439014.0514
  20730866.755    -1485639.32249  -1148276.23549  20730868.0664   20730873.4674
  21704577.843     6498273.98249   5058271.54249  21704580.0284   21704586.5184
  21261254.539    -8525969.01749  -6626532.41049  21261256.5074   21261261.5264
  23475321.570   -10188747.06149  -7922448.21849  23475322.5484   23475329.0554
 96  4 18  1 25  0.0000000  0  6 16 24 20  5  6 17
  21020530.045    -3739172.57449  -2598450.37149  21020532.3334   21020537.7774
  23453135.621     9102733.95049   7082748.78449  23453138.2464   23453143.9154
  20736408.598    -1456517.59749  -1125583.99249  20736410.0314   20736415.5464
  21719951.701     6579062.12049   5121223.32349  21719953.4724   21719959.1674
  21250706.499    -8581397.94549  -6669723.76849  21250708.8224   21250713.7324
  23460375.592   -10267268.54449  -7983633.75949  23460379.6034   23460386.9464
 96  4 18  1 25 30.0000000  0  6 16 24 20  5  6 17
  21022839.176    -3727040.41149  -2588996.73749  21022841.1404   21022846.6474
  23467272.278     9177020.28149   7140634.22149  23467273.8914   23467280.8724
  20742055.684    -1426838.79449  -1102457.67549  20742058.0954   20742063.2784
  21735387.587     6660179.69549   5184431.80649  21735390.2684   21735395.4454
  21240189.997    -8636661.79749  -6712786.51049  21240192.2444   21240197.5934
  23445472.059   -10345585.19849  -8044659.69549  23445476.6414   23445482.9994
 96  4 18  1 26  0.0000000  0  6 16 24 20  5  6 17
  21025270.548    -3714268.48049  -2579044.57849  21025271.5764   21025277.1384
  23481418.083     9251357.89349   7198559.61849  23481419.6784   23481426.5444
  20747809.737    -1396604.14649  -1078898.22249  20747811.2554   20747817.1494
  21750891.401     6741652.07449   5247916.76449  21750893.1994   21750899.2314
  21229707.978    -8691741.87649  -6755706.05949  21229710.8394   21229716.0714
  23430616.047   -10423672.45749  -8105506.87049  23430617.5304   23430622.8954
 96  4 18  1 26 30.0000000  0  6 16 24 20  5  6 17
  21027816.575    -3700883.37749  -2568614.62749  21027818.6474   21027824.1244
  23495567.074     9325707.99149   7256494.75549  23495568.5094   23495574.1374
  20753667.314    -1365818.45649  -1054909.39049  20753669.6294   20753675.5164
  21766462.349     6823479.56149   5311678.42949  21766464.4314   21766470.3914
  21219257.353    -8746664.21849  -6798502.68949  21219259.4854   21219264.5784
  23415796.797   -10501537.34649  -8166180.79749  23415800.7684   23415806.7064
 96  4 18  1 27  0.0000000  0  6 16 24 20  5  6 17
  21030479.051    -3686892.50049  -2557712.64649  21030481.1744   21030486.6404
  23509718.113     9400076.64749   7314444.33449  23509720.3374   23509725.9784
  20759633.201    -1334468.62049  -1030480.95649  20759635.3584   20759641.1324
  21782104.759     6905678.41149   5375729.46749  21782106.2914   21782112.3604
  21208838.555    -8801415.78649  -6841166.23649  21208840.7404   21208845.9994
  23401022.971   -10579185.56249  -8226685.84449  23401024.3144   23401030.4444
 96  4 18  1 27 30.0000000  0  6 16 24 20  5  6 17
  21033255.458    -3672305.13849  -2546345.87149  21033256.8074   21033262.7264
  23523872.646     9474461.29349   7372406.39049  23523874.3654   23523881.5674
  20765706.477    -1302552.02149  -1005610.88249  20765708.5974   20765714.3344
  21797816.773     6988252.97649   5440073.26749  21797820.0854   21797825.7564
  21198453.790    -8855983.17949  -6883686.27449  21198456.8854   21198462.2314
  23386282.451   -10656624.39449  -8287027.76049  23386287.6954   23386294.5774
 96  4 18  1 28  0.0000000  0  6 16 24 20  5  6 17
  21036144.537    -3657121.43049  -2534514.41349  21036146.3834   21036151.7334
  23538028.764     9548852.05449   7430373.21349  23538031.2314   23538038.1984
  20771892.493    -1270047.68649   -980282.83749  20771894.1784   20771899.4774
  21813604.080     7071217.26949   5504720.74549  21813607.7864   21813613.5754
  21188104.855    -8910368.84149  -6926064.71749  21188107.8284   21188112.9944
  23371590.629   -10733853.39749  -8347206.18349  23371592.4154   23371598.6014
 96  4 18  1 28 30.0000000  0  6 16 24 20  5  6 17
  21039142.703    -3641363.50149  -2522235.50749  21039145.1134   21039150.6034
  23552183.360     9623231.83549   7488331.46949  23552185.8614   23552192.0874
  20778191.985    -1236945.56549   -954488.99249  20778193.2914   20778198.7804
  21829464.349     7154552.15049   5569656.99949  21829465.4184   21829471.3584
  21177788.810    -8964579.14649  -6968306.51949  21177791.6844   21177797.3354
  23356931.820   -10810890.69649  -8407235.21849  23356932.0064   23356939.3604
 96  4 18  1 29  0.0000000  0  6 16 24 20  5  6 17
  21042251.946    -3625028.30549  -2509506.78049  21042253.6254   21042258.9364
  23566339.020     9697615.15549   7546292.48649  23566340.0204   23566345.7604
  20784603.048    -1203248.12749   -928231.26449  20784605.7884   20784611.0554
  21845389.581     7238243.41749   5634870.95549  21845391.4994   21845397.4714
  21167510.409    -9018594.06249  -7010396.07349  21167512.9654   21167518.4084
  23342308.488   -10887722.98949  -8467104.50949  23342311.9984   23342318.0074
 96  4 18  1 29 30.0000000  0  6 16 24 20  5  6 17
  21045473.245    -3608096.29449  -2496313.00149  21045475.5334   21045481.2384
  23580491.753     9772002.86249   7604256.91749  23580496.2684   23580502.1854
  20791131.799    -1168942.77049   -901499.82949  20791133.6414   20791139.3914
  21861384.176     7322300.54549   5700370.00049  21861387.1774   21861393.4924
  21157272.032    -9072396.94749  -7052320.40849  21157274.6164   21157279.7924
  23327731.156   -10964330.31149  -8526798.49649  23327733.2274   23327740.5324
 96  4 18  1 30  0.0000000  0  6 16 24 20  5  6 17
  21048804.526    -3590590.09349  -2482671.80249  21048806.6354   21048812.3324
  23594647.872     9846367.76349   7662203.59349  23594646.5294   23594652.5474
  20797771.021    -1134053.93349   -874313.73549  20797772.9614   20797778.7834
  21877444.304     7406695.59649   5766132.35249  21877446.9604   21877453.2624
  21147071.657    -9126007.30449  -7094094.70449  21147072.8944   21147078.1484
  23313192.449   -11040733.84149  -8586333.70549  23313194.5764   23313200.8764
 96  4 18  1 30 30.0000000  0  6 16 24 20  5  6 17
  21052246.714    -3572502.95049  -2468577.92549  21052248.7694   21052254.3504
  23608800.068     9920737.02149   7720153.64449  23608799.1544   23608805.4604
  20804520.455    -1098582.99549   -846674.05649  20804523.0674   20804528.5114
  21893569.904     7491431.03449   5832159.94549  21893571.4504   21893578.1964
  21136911.040    -9179394.85349  -7135695.37349  21136913.5664   21136918.7334
  23298694.318   -11116913.53049  -8645694.47149  23298697.5034   23298704.3474
 96  4 18  1 31  0.0000000  0  6 16 24 20  5  6 17
  21055799.186    -3553832.11149  -2454029.21449  21055801.4254   21055807.1854
  23622948.838     9995110.37149   7778106.88449  23622951.3854   23622957.8004
  20811374.879    -1062564.52049   -818607.72349  20811377.0594   20811382.4704
  21909756.324     7576499.58249   5898447.10049  21909759.2884   21909765.7154
  21126792.149    -9232568.84449  -7177129.64549  21126795.1734   21126799.8234
  23284243.861   -11192869.53849  -8704880.94249  23284244.0284   23284250.9424
 96  4 18  1 31 30.0000000  0  6 16 24 20  5  6 17
  21059468.712    -3534548.36849  -2439002.93049  21059470.9324   21059477.0204
  23637106.894    10069512.37149   7836082.43949  23637109.3404   23637116.2884
  20818335.718    -1025984.43949   -790103.77549  20818338.0204   20818343.4324
  21926013.655     7661929.13349   5965015.56649  21926016.0684   21926022.2114
  21116719.757    -9285504.82649  -7218378.46249  21116721.4844   21116727.1004
  23269830.244   -11268594.03749  -8763887.03449  23269834.0034   23269840.8604
 96  4 18  1 32  0.0000000  0  6 16 24 20  5  6 17
  21063250.741    -3514676.20449  -2423518.12449  21063252.5894   21063258.2884
  23651268.854    10143937.12549   7894075.75149  23651271.3074   23651277.4984
  20825400.681     -988860.16249   -761175.77749  20825402.3184   20825407.8174
  21942334.727     7747693.03649   6031844.56549  21942336.3784   21942343.3324
  21106685.867    -9338224.79249  -7259458.95049  21106689.2804   21106694.9794
  23255462.627   -11344108.69349  -8822729.61049  23255463.4254   23255470.5174
 96  4 18  1 32 30.0000000  0  6 16 24 20  5  6 17
  21067144.854    -3494207.13949  -2407568.19849  21067147.9184   21067153.3884
  23665439.644    10218395.56249   7952095.27049  23665441.7164   23665447.8744
  20832568.971     -951182.67949   -731816.70849  20832571.7944   20832577.6394
  21958720.364     7833800.11449   6098940.96949  21958721.9924   21958728.6694
  21096697.025    -9390723.06949  -7300366.69549  21096699.4214   21096704.6684
  23241129.323   -11419416.49849  -8881410.99549  23241133.1884   23241140.1934
 96  4 18  1 33  0.0000000  0  6 16 24 20  5  6 17
  21071152.548    -3473150.39749  -2391160.34549  21071154.7484   21071160.4374
  23679614.561    10292871.49449   8010128.46449  23679613.8224   23679619.3234
  20839844.799     -912951.46949   -702026.15949  20839847.4194   20839853.2744
  21975170.291     7920253.55849   6166307.26949  21975173.3044   21975179.8634
  21086746.820    -9443011.83449  -7341111.18049  21086748.8074   21086754.3704
  23226835.100   -11494538.79649  -8939947.82949  23226838.4874   23226845.0874
 96  4 18  1 33 30.0000000  0  6 16 24 20  5  6 17
  21075269.470    -3451515.53349  -2374302.00449  21075271.8294   21075277.6304
  23693780.239    10367360.86549   8068172.11049  23693788.1764   23693794.3664
  20847229.266     -874146.84249   -671788.80449  20847231.8514   20847237.7894
  21991689.187     8007052.01349   6233942.41049  21991690.9494   21991697.5934
  21076835.800    -9495082.98149  -7381686.09249  21076839.9644   21076845.2514
  23212574.086   -11569480.48149  -8998343.92549  23212576.7184   23212583.5384
 96  4 18  1 34  0.0000000  0  6 16 24 20  5  6 17
  21079491.224    -3429331.70749  -2357015.90449  21079493.3714   21079498.9484
  23707959.857    10441845.33049   8126211.93249  23707962.5334   23707968.3304
  20854720.610     -834780.75149   -641113.94149  20854722.7494   20854728.3664
  22008267.250     8094174.09449   6301829.72449  22008269.5634   22008276.3004
  21066964.453    -9546963.72749  -7422112.63549  21066967.5574   21066972.5144
  23198345.684   -11644254.05149  -9056609.01849  23198347.8584   23198354.9154
 96  4 18  1 34 30.0000000  0  6 16 24 20  5  6 17
  21083815.224    -3406605.36049  -2339307.06149  21083817.5824   21083823.8194
  23722130.569    10516317.71949   8184242.37549  23722134.3864   23722140.2884
  20862315.831     -794870.17749   -610014.80749  20862317.4064   20862323.0514
  22024906.015     8181609.83749   6369961.45149  22024908.4444   22024914.6894
  21057127.590    -9598662.08749  -7462397.06449  21057129.4054   21057134.6824
  23184149.534   -11718854.56449  -9114739.26149  23184152.3784   23184159.2674
 96  4 18  1 35  0.0000000  0  6 16 24 20  5  6 17
  21088242.912    -3383331.30049  -2321171.42749  21088246.3314   21088252.5144
  23736304.323    10590781.58849   8242266.13049  23736304.2134   23736310.6534
  20870012.877     -754418.97249   -578494.40549  20870015.0924   20870020.9494
  22041601.958     8269348.27049   6438329.04249  22041604.2234   22041610.6674
  21047323.256    -9650181.37849  -7502541.96349  21047326.0604   21047330.9934
  23169990.354   -11793266.44149  -9172722.50949  23169991.8784   23169998.5004
 96  4 18  1 35 30.0000000  0  6 16 24 20  5  6 17
  21092780.659    -3359496.43449  -2302598.80749  21092782.3554   21092787.8834
  23750464.354    10665230.45849   8300278.23049  23750471.8294   23750477.4454
  20877812.921     -713429.20349   -546554.34549  20877814.9504   20877821.1434
  22058355.510     8357377.88549   6506923.51849  22058356.3664   22058362.5524
  21037553.799    -9701521.89049  -7542547.55749  21037555.8924   21037561.1184
  23155867.129   -11867473.98649  -9230546.53849  23155871.2034   23155877.0754
 96  4 18  1 36  0.0000000  0  6 16 24 20  5  6 17
  21097428.059    -3335068.02649  -2283563.67849  21097430.8664   21097436.1184
  23764634.386    10739680.80949   8358291.49549  23764637.7444   23764643.4744
  20885717.250     -671885.67249   -514182.78849  20885720.2904   20885726.1244
  22075162.132     8445713.00749   6575756.06449  22075165.3834   22075171.9904
  21027821.164    -9752666.21849  -7582400.26949  21027823.6694   21027829.1584
  23141790.659   -11941452.53749  -9288192.12449  23141793.3174   23141799.7384
 96  4 18  1 36 30.0000000  0  6 16 24 20  5  6 17
  21102191.915    -3310038.49049  -2264060.13549  21102194.1744   21102199.5934
  23778800.831    10814116.22349   8416293.13349  23778802.9464   23778808.8004
  20893728.862     -629788.45549   -481379.77349  20893731.4784   20893737.2474
  22092028.786     8534342.27349   6644817.80449  22092031.0564   22092037.5484
  21018126.634    -9803610.36049  -7622097.00549  21018129.2504   21018135.2134
  23127754.971   -12015204.94349  -9345661.50049  23127758.2704   23127764.8674
 96  4 18  1 37  0.0000000  0  6 16 24 20  5  6 17
  21107072.411    -3284391.64449  -2244075.57349  21107074.5504   21107079.5454
  23792964.734    10888540.64049   8474286.17349  23792966.7134   23792971.2984
  20901849.462     -587117.33949   -448129.58449  20901851.6994   20901857.2474
  22108954.734     8623288.34349   6714126.40749  22108956.9324   22108963.8434
  21008474.243    -9854334.06149  -7661621.96449  21008476.8004   21008482.5244
  23113766.547   -12088726.77449  -9402951.21849  23113768.2914   23113773.9704
 96  4 18  1 37 30.0000000  0  6 16 24 20  5  6 17
  21112065.413    -3258151.90049  -2223629.01849  21112067.4334   21112072.9854
  23807118.704    10962936.49649   8532256.97149  23807123.1474   23807128.8144
  20910077.857     -543876.32749   -414435.30749  20910080.1274   20910085.9964
  22125939.619     8712546.03449   6783677.83949  22125941.9784   22125948.3854
  20998862.775    -9904842.01549  -7700978.80649  20998865.6484   20998870.8534
  23099814.893   -12162036.89549  -9460075.95649  23099817.0514   23099823.6604
 96  4 18  1 38  0.0000000  0  6 16 24 20  5  6 17
  21117168.759    -3231333.68249  -2202731.70949  21117171.0014   21117176.5614
  23821274.233    11037315.37849   8590214.53349  23821277.9424   23821282.1554
  20918413.015     -500072.80749   -380302.70949  20918415.6704   20918421.2034
  22142983.814     8802107.51649   6853465.98149  22142985.0424   22142991.7814
  20989292.455    -9955136.00949  -7740168.93149  20989295.0534   20989299.6054
  23085903.453   -12235140.86149  -9517040.06249  23085906.0614   23085913.4214
 96  4 18  1 38 30.0000000  0  6 16 24 20  5  6 17
  21122383.183    -3203928.25649  -2181376.83449  21122386.0064   21122391.7624
  23835429.261    11111712.97949   8648186.67749  23835434.1244   23835440.9124
  20926859.872     -455686.57249   -345716.04749  20926861.9494   20926868.0754
  22160087.183     8891993.16149   6923506.72649  22160089.7374   22160095.7844
  20979766.461   -10005192.44549  -7779173.94149  20979769.3514   20979774.6094
  23072035.343   -12308014.47249  -9573824.67349  23072038.1024   23072045.1654
 96  4 18  1 39  0.0000000  0  6 16 24 20  5  6 17
  21127701.396    -3175980.66749  -2159599.49249  21127704.2704   21127709.9904
  23849586.270    11186102.12649   8706152.24649  23849590.5254   23849594.5994
  20935407.163     -410766.26249   -310713.23249  20935409.9774   20935416.0734
  22177248.379     8982174.38449   6993777.78549  22177250.9884   22177256.6284
  20970281.115   -10055040.99749  -7818016.96949  20970283.6244   20970288.9174
  23058205.481   -12380688.78249  -9630453.99249  23058209.3194   23058216.6244
 96  4 18  1 39 30.0000000  0  6 16 24 20  5  6 17
  21133125.600    -3147480.13349  -2137391.27449  21133127.9154   21133133.3644
  23863747.487    11260499.30549   8764124.07149  23863746.7534   23863753.4314
  20944056.191     -365315.74849   -275297.26549  20944058.7014   20944065.0194
  22194466.188     9072649.93049   7064278.20349  22194468.5774   22194473.6784
  20960839.255   -10104656.35749  -7856678.28949  20960841.8974   20960847.6034
  23044416.553   -12453151.53249  -9686918.45549  23044419.8004   23044426.7564
 96  4 18  1 40  0.0000000  0  6 16 24 20  5  6 17
  21138654.095    -3118424.03649  -2114750.15449  21138657.0864   21138662.2534
  23877905.784    11334903.71249   8822101.50849  23877905.9344   23877911.3424
  20952802.391     -319356.46249   -239484.84349  20952804.9094   20952810.8764
  22211736.859     9163413.11649   7135002.73749  22211739.4164   22211745.6564
  20951443.244   -10154033.94449  -7895154.33049  20951445.7024   20951451.2344
  23030666.013   -12525404.49049  -9743219.45249  23030670.5294   23030677.4544
 96  4 18  1 40 30.0000000  0  6 16 24 20  5  6 17
  21144289.736    -3088811.13449  -2091675.16149  21144291.8274   21144297.5734
  23892053.860    11409298.53549   8880071.51049  23892063.2614   23892069.1304
  20961645.766     -272886.81149   -203274.74749  20961647.6814   20961653.5434
  22229067.350     9254478.39449   7205962.67449  22229069.3314   22229074.1904
  20942092.337   -10203170.28949  -7933442.38549  20942095.5864   20942101.1834
  23016957.903   -12597452.30049  -9799360.57549  23016960.2034   23016967.0274
 96  4 18  1 41  0.0000000  0  6 16 24 20  5  6 17
  21150028.068    -3058656.97649  -2068178.41349  21150030.2434   21150035.7954
  23906211.703    11483649.16349   8938007.04449  23906212.0464   23906216.6544
  20970581.269     -225926.44849   -166682.26749  20970583.8484   20970589.5564
  22246448.053     9345835.07649   7277149.68149  22246453.2654   22246459.1284
  20932785.886   -10252074.22749  -7971549.35049  20932789.7354   20932794.8754
  23003282.365   -12669314.84849  -9855357.35749  23003285.4234   23003292.1564
 96  4 18  1 41 30.0000000  0  6 16 24 20  5  6 17
  21155868.872    -3027964.10149  -2044261.89049  21155871.1924   21155876.8144
  23920348.544    11557967.41049   8995917.36349  23920354.0634   23920359.9484
  20979614.831     -178455.90749   -129692.26149  20979617.4554   20979623.0024
  22263890.396     9437480.15049   7348561.40049  22263893.2034   22263898.3524
  20923524.755   -10300747.04249  -8009476.22549  20923527.5684   20923532.7514
  22989643.592   -12740991.20449  -9911209.05349  22989646.0624   22989652.8594
 96  4 18  1 42  0.0000000  0  6 16 24 20  5  6 17
  21161813.423    -2996725.06149  -2019919.77549  21161815.3124   21161821.1394
  23934485.025    11632273.95649   9053818.56949  23934493.4774   23934499.8944
  20988752.788     -130433.11149    -92271.92149  20988755.6844   20988761.3804
  22281387.986     9529433.91149   7420213.65349  22281390.6784   22281397.0564
  20914305.244   -10349191.41649  -8047225.08349  20914308.9204   20914313.8034
  22976040.197   -12812463.50149  -9966901.74349  22976044.4944   22976051.8044
 96  4 18  1 42 30.0000000  0  6 16 24 20  5  6 17
  21167858.423    -2964956.61949  -1995165.14149  21167860.8284   21167866.2684
  23948630.873    11706568.26949   9111710.19749  23948632.0884   23948638.0534
  20997997.218      -81854.67449    -54418.60549  20997999.7354   20998005.9374
  22298940.945     9621683.14849   7492096.14949  22298945.6054   22298951.2874
  20905128.352   -10397418.54149  -8084804.66149  20905131.3124   20905136.5684
  22962476.733   -12883739.38849 -10022441.39449  22962481.4174   22962488.2544
 96  4 18  1 43  0.0000000  0  6 16 24 20  5  6 17
  21174003.384    -2932659.43749  -1969998.50649  21174006.7494   21174012.1204
  23962766.090    11780868.09849   9169606.15049  23962769.3594   23962777.0794
  21007344.178      -32738.21249    -16146.05849  21007346.3384   21007352.4264
  22316549.614     9714201.17449   7564188.09549  22316551.1334   22316556.8914
  20895993.287   -10445420.42349  -8122208.72149  20895996.6664   20896001.7364
  22948954.666   -12954814.26549 -10077824.38449  22948956.3624   22948963.0574
 96  4 18  1 43 30.0000000  0  6 16 24 20  5  6 17
  21180252.921    -2899823.28049  -1944411.89049  21180255.1464   21180260.8524
  23976909.368    11855188.32149   9227517.98949  23976913.9694   23976919.6584
  21016791.958       16912.44149     22542.74849  21016794.5324   21016800.4614
  22334203.220     9806978.71249   7636482.25949  22334206.1234   22334212.0484
  20886901.699   -10493198.61449  -8159438.47049  20886904.8844   20886910.2154
  22935468.315   -13025682.10649 -10133046.06149  22935471.3014   22935477.7664
 96  4 18  1 44  0.0000000  0  6 16 24 20  5  6 17
  21186607.379    -2866430.97049  -1918391.91149  21186609.7194   21186615.2944
  23991056.694    11929523.93149   9285441.83149  23991058.3544   23991065.6764
  21026338.161       67079.26549     61633.75949  21026340.9974   21026347.1294
  22351908.337     9900020.27749   7708982.15649  22351911.3974   22351917.9724
  20877855.656   -10540737.86149  -8196482.03149  20877858.6604   20877863.8364
  22922021.766   -13096332.73149 -10188098.46349  22922027.0224   22922031.7504
 96  4 18  1 44 30.0000000  0  6 16 24 20  5  6 17
  21193067.555    -2832482.61349  -1891938.64849  21193069.8534   21193075.4214
  24005202.813    12003859.28749   9343365.43349  24005203.4484   24005210.8184
  21035977.693      117730.41549    101102.17349  21035980.0524   21035985.5684
  22369659.822     9993306.20249   7781672.46049  22369662.6144   22369668.4054
  20868857.390   -10588029.59349  -8233332.72149  20868859.2984   20868864.7494
  22908618.795   -13166773.50749 -10242987.36249  22908622.3764   22908628.2924
 96  4 18  1 45  0.0000000  0  6 16 24 20  5  6 17
  21199632.403    -2797982.94649  -1865055.79349  21199634.9044   21199640.8194
  24019344.688    12078179.32549   9401277.12249  24019346.8894   24019352.3814
  21045706.257      168860.12949    140943.49149  21045709.5054   21045715.1934
  22387456.787    10086827.74349   7854546.37849  22387459.5844   22387465.6994
  20859902.810   -10635077.86649  -8269993.71149  20859906.3074   20859911.4104
  22895255.153   -13237005.31949 -10297713.41849  22895257.6214   22895262.9354
 96  4 18  1 45 30.0000000  0  6 16 24 20  5  6 17
  21206300.765    -2762942.95949  -1837751.90849  21206302.6854   21206308.5764
  24033477.975    12152468.19049   9459164.53149  24033482.6274   24033491.2784
  21055530.744      220483.59749    181169.54149  21055533.0094   21055538.6454
  22405299.844    10180600.52249   7927616.05449  22405303.9174   22405309.8634
  20850995.208   -10681894.72549  -8306474.37849  20850997.1814   20851002.8274
  22881928.305   -13307032.35649 -10352279.91949  22881931.8714   22881937.8044
 96  4 18  1 46  0.0000000  0  7 16 24 20  5  6 26 17
  21213073.997    -2727350.62649  -1810017.62549  21213075.8894   21213081.7374
  24047611.966    12226733.72349   9517033.73149  24047616.4634   24047621.0714
  21065451.621      272620.27449    221795.50249  21065454.3914   21065459.8984
  22423197.557    10274639.15749   8000892.88449  22423198.2364   22423205.0784
  20842131.916   -10728463.08049  -8342761.41449  20842135.6024   20842141.0694
  24555937.013    -4232811.57259  -3284927.06759  24555941.3684   24555948.3644
  22868643.892   -13376839.80949 -10406675.32549  22868647.6844   22868654.2404
 96  4 18  1 46 30.0000000  0  7 16 24 20  5  6 26 17
  21219948.430    -2691219.99949  -1781863.89049  21219951.2684   21219957.0134
  24061740.299    12300972.86049   9574882.45449  24061744.1124   24061749.9664
  21075471.074      325273.10649    262823.67049  21075473.8654   21075479.5314
  22441138.907    10368930.47849   8074366.62549  22441142.0584   22441148.0014
  20833315.194   -10774800.39149  -8378868.40549  20833318.0384   20833323.1274
  24540080.984    -4316137.75349  -3349856.46749  24540084.7894   24540092.1564
  22855398.702   -13446439.46549 -10460908.80349  22855403.4084   22855409.4344
 96  4 18  1 47  0.0000000  0  8 16 24 20  5  6 26 23 17
  21226929.072    -2654537.70549  -1753280.28949  21226931.8084   21226937.1694
  24075864.963    12375198.09849   9632720.28049  24075868.1614   24075875.4754
  21085590.844      378453.68849    304263.06849  21085593.6604   21085599.6554
  22459135.167    10463495.85049   8148053.91149  22459136.9444   22459143.5604
  20824542.344   -10820903.34949  -8414792.78249  20824544.8254   20824549.9734
  24524221.102    -4399477.08549  -3414796.15849  24524224.9334   24524233.4514
  24747798.934    -2687956.13959  -2078599.18459  24747796.0204   24747804.5654
  22842198.850   -13515813.72349 -10514966.65949  22842201.8494   22842208.7664
 96  4 18  1 47 30.0000000  0  8 16 24 20  5  6 26 23 17
  21234016.490    -2617287.33349  -1724254.02549  21234019.8234   21234025.7224
  24089987.915    12449408.99049   9690546.96649  24089990.0404   24089994.1614
  21095814.193      432170.39949    346120.23049  21095815.7864   21095821.5814
  22477180.212    10558336.16249   8221955.42449  22477184.8784   22477191.3424
  20815814.639   -10866763.78149  -8450528.17049  20815818.0994   20815822.9814
  24508364.116    -4482804.33849  -3479726.39649  24508369.0674   24508375.0864
  24727158.709    -2796401.09949  -2163101.62649  24727159.2864   24727166.1084
  22829040.241   -13584962.92949 -10568849.12749  22829043.1184   22829049.6524
 96  4 18  1 48  0.0000000  0  8 16 24 20  5  6 26 23 17
  21241213.583    -2579474.26549  -1694789.29949  21241215.4914   21241221.3734
  24104102.847    12523606.36849   9748363.15449  24104106.5924   24104113.8014
  21106134.288      486412.30149    388386.62449  21106137.5254   21106143.4964
  22495276.900    10653421.02349   8296047.50049  22495279.4884   22495284.6634
  20807133.650   -10912385.01249  -8486077.17849  20807136.5074   20807141.8254
  24492513.985    -4566120.97149  -3544648.33749  24492515.9214   24492520.7444
  24706532.718    -2904781.16049  -2247553.53749  24706534.4904   24706543.6524
  22815922.499   -13653897.72949 -10622564.52449  22815925.2404   22815932.2304
 96  4 18  1 48 30.0000000  0  8 16 24 20  5  6 26 23 17
  21248513.161    -2541114.21349  -1664898.35349  21248515.2334   21248521.2974
  24118223.552    12597782.64349   9806162.87049  24118225.0334   24118230.6944
  21116556.817      541176.08049    431059.67549  21116559.0914   21116564.9884
  22513415.301    10748746.27149   8370326.89649  22513418.2554   22513425.0244
  20798498.618   -10957760.97649  -8521435.06549  20798501.7864   20798506.9684
  24476660.881    -4649421.38849  -3609557.68449  24476664.7404   24476668.9964
  24685924.813    -3013078.44249  -2331940.91349  24685926.4274   24685935.4604
  22802845.536   -13722616.53449 -10676111.62749  22802848.3214   22802854.8924
 96  4 18  1 49  0.0000000  0  8 16 24 20  5  6 26 23 17
  21255915.026    -2502208.81449  -1634582.46549  21255918.2804   21255924.7904
  24132329.945    12671930.49049   9863940.42449  24132333.9164   24132339.6204
  21127078.138      596465.60249    474142.39749  21127080.3174   21127086.1184
  22531600.884    10844310.17449   8444792.25149  22531604.1384   22531610.8134
  20789912.962   -11002876.21749  -8556589.79449  20789916.7184   20789921.9554
  24460812.141    -4732705.10449  -3674454.06349  24460814.5734   24460821.8374
  24665334.115    -3121289.75449  -2416261.26949  24665335.3414   24665343.8034
  22789809.412   -13791121.42849 -10729492.04549  22789812.2164   22789818.6364
 96  4 18  1 49 30.0000000  0  8 16 24 20  5  6 26 23 17
  21263414.343    -2462804.34549  -1603877.68549  21263416.8984   21263422.8034
  24146424.601    12746027.83449   9921678.63849  24146432.8464   24146440.1714
  21137693.104      652249.81249    517610.58249  21137695.9344   21137701.5884
  22549822.780    10940076.37149   8519415.23549  22549827.4614   22549834.2234
  20781373.688   -11047753.82649  -8591559.35149  20781376.9034   20781381.9354
  24444958.065    -4816014.80549  -3739370.66349  24444961.3824   24444967.7414
  24644753.676    -3229448.14049  -2500540.44449  24644753.8614   24644761.9754
  22776807.133   -13859445.30349 -10782731.40449  22776811.0284   22776816.8884
 96  4 18  1 50  0.0000000  0  8 16 24 20  5  6 26 23 17
  21271008.880    -2422894.72849  -1572779.29049  21271011.8244   21271017.3024
  24160537.486    12820105.47549   9979401.40149  24160530.3494   24160537.9484
  21148402.910      708530.32649    561465.50549  21148405.1944   21148411.5044
  22568094.118    11036078.09149   8594221.74449  22568096.0514   22568103.1074
  20772883.011   -11092371.25849  -8626326.18249  20772886.3134   20772891.3784
  24429103.981    -4899334.03849  -3804294.70149  24429106.1834   24429112.0204
  24624179.989    -3337537.22849  -2584765.64849  24624184.3954   24624193.4634
  22763846.246   -13927557.85349 -10835806.09649  22763849.5724   22763855.2824
 96  4 18  1 50 30.0000000  0  8 16 24 20  5  6 26 23 17
  21278702.092    -2382465.99549  -1541276.38349  21278705.1164   21278710.4964
  24174613.447    12894160.52049  10037106.58549  24174623.5534   24174629.5154
  21159205.876      765300.62349    605702.07949  21159208.2594   21159214.1604
  22586409.634    11132334.38849   8669226.63049  22586413.3664   22586419.7874
  20764443.730   -11136720.55749  -8660884.07549  20764446.8664   20764451.9164
  24413248.607    -4982653.24949  -3869218.67549  24413251.9524   24413258.2254
  24603627.933    -3445558.09349  -2668937.65949  24603629.5554   24603638.0704
  22750927.106   -13995458.35149 -10888715.54449  22750928.2624   22750935.2834
 96  4 18  1 51  0.0000000  0  8 16 24 20  5  6 26 23 17
  21286493.844    -2341523.78349  -1509373.35849  21286496.1184   21286501.8784
  24188709.328    12968197.76849  10094797.92749  24188711.0254   24188717.5244
  21170097.834      822538.13949    650302.71349  21170100.3084   21170106.2584
  22604774.955    11228834.14349   8744421.21949  22604776.3724   22604783.1754
  20756052.123   -11180818.82949  -8695246.35949  20756055.1044   20756060.4444
  24397392.843    -5065979.65849  -3934148.21749  24397393.7694   24397399.9954
  24583077.403    -3553524.68549  -2753067.39349  24583083.7134   24583092.4404
  22738039.545   -14063165.26749 -10941474.15649  22738043.8914   22738051.0884
 96  4 18  1 51 30.0000000  0  8 16 24 20  5  6 26 23 17
  21294383.675    -2300058.42349  -1477062.69049  21294386.8504   21294392.5014
  24202791.920    13042229.82249  10152485.23049  24202798.4124   24202806.4454
  21181076.374      880236.70849    695262.60849  21181080.1314   21181086.2654
  22623184.616    11325587.32849   8819813.29249  22623188.3144   22623194.4444
  20747709.415   -11224657.42449  -8729406.29549  20747713.0604   20747718.2724
  24381538.474    -5149287.53149  -3999063.37149  24381540.1734   24381545.5824
  24562543.955    -3661421.96449  -2837143.08449  24562549.9254   24562560.6064
  22725195.165   -14130671.86849 -10994076.67249  22725198.4084   22725204.5904
 96  4 18  1 52  0.0000000  0  8 16 24 20  5  6 26 23 17
  21302379.656    -2258041.13949  -1444321.95149  21302382.3964   21302388.2164
  24216890.004    13116253.73349  10210166.16349  24216886.0914   24216890.9204
  21192147.331      938412.31449    740594.22549  21192150.3934   21192156.4754
  22641646.361    11422601.60049   8895408.79549  22641649.4604   22641655.2154
  20739421.372   -11268212.45749  -8763345.28149  20739424.7704   20739430.1374
  24365697.715    -5232557.42449  -4063949.00449  24365695.7004   24365701.1964
  24542032.961    -3769233.84449  -2921152.22949  24542034.3784   24542044.4584
  22712387.607   -14197973.95849 -11046519.84249  22712390.7614   22712397.5184
 96  4 18  1 52 30.0000000  0  8 16 24 20  5  6 26 23 17
  21310475.573    -2215495.09249  -1411169.19349  21310478.6134   21310484.0474
  24230951.672    13190230.72349  10267810.55349  24230963.7254   24230969.5474
  21203303.831      997041.02549    786278.90049  21203307.0004   21203313.0834
  22660147.094    11519829.55349   8971170.81449  22660150.8574   22660157.3284
  20731184.646   -11311502.05649  -8797077.43149  20731187.1484   20731192.2534
  24349846.648    -5315819.06149  -4128828.12949  24349851.2484   24349858.1024
  24521526.407    -3876970.91749  -3005103.09249  24521532.2784   24521541.0294
  22699614.487   -14265108.57949 -11098832.49849  22699615.0104   22699622.0784
 96  4 18  1 53  0.0000000  0  8 16 24 20  5  6 26 23 17
  21318673.384    -2172419.10649  -1377603.49549  21318675.6194   21318681.1534
  24245029.409    13264168.93649  10325424.75149  24245033.9244   24245038.4454
  21214548.940     1056135.65549    832326.63449  21214552.2854   21214558.4454
  22678693.004    11617272.03449   9047099.99749  22678693.3024   22678699.8984
  20722999.635   -11354510.85949  -8830590.77449  20723002.7254   20723008.2374
  24334006.854    -5399067.80949  -4193697.19749  24334010.9654   24334016.0904
  24501044.763    -3984612.93149  -3088979.88149  24501049.5754   24501056.4684
  22686872.139   -14332056.90549 -11151000.00149  22686875.7034   22686881.9814
 96  4 18  1 53 30.0000000  0  8 16 24 20  5  6 26 23 17
  21326975.143    -2128791.69549  -1343608.11649  21326977.6274   21326983.5074
  24259091.578    13338071.13949  10383010.87749  24259097.8814   24259102.7674
  21225887.473     1115721.46649    878757.11349  21225891.3284   21225897.3204
  22697274.224    11714937.95349   9123203.28249  22697278.7454   22697285.1174
  20714871.652   -11397225.34949  -8863874.78549  20714874.5014   20714879.7824
  24318166.445    -5482298.60149  -4258552.26549  24318171.8914   24318177.9304
  24480580.127    -4092133.99249  -3172762.46349  24480588.4534   24480595.8654
  22674172.580   -14398797.12349 -11203005.34149  22674175.4464   22674181.9394
 96  4 18  1 54  0.0000000  0  8 16 24 20  5  6 26 23 17
  21335379.147    -2084628.56049  -1309195.28849  21335381.5544   21335387.4124
  24273146.813    13411935.40449  10440567.46149  24273152.7294   24273158.7054
  21237319.775     1175793.90249    925566.76849  21237322.3404   21237328.8434
  22715901.027    11812803.71949   9199462.28649  22715902.1634   22715908.9894
  20706795.165   -11439660.72149  -8896941.30349  20706799.1874   20706804.4754
  24302329.299    -5565530.68449  -4323408.33949  24302332.3074   24302337.9434
  24460146.500    -4199539.12649  -3256454.69049  24460150.4854   24460158.3494
  22661511.228   -14465331.93049 -11254850.61549  22661514.3704   22661520.5654
 96  4 18  1 54 30.0000000  0  8 16 24 20  5  6 26 23 17
  21343882.462    -2039939.45049  -1274372.61049  21343885.6064   21343891.2114
  24287199.901    13485787.27349  10498114.37449  24287204.2004   24287213.3354
  21248845.875     1236362.77249    972763.26549  21248848.7324   21248854.5304
  22734561.666    11910876.56649   9275882.65849  22734564.8404   22734571.3514
  20698774.829   -11481814.57949  -8929788.45949  20698777.6354   20698782.9964
  24286494.187    -5648743.64049  -4388249.53449  24286497.0144   24286503.4014
  24439735.070    -4306816.41649  -3340047.27949  24439736.4344   24439742.8294
  22648893.016   -14531639.05049 -11306518.47749  22648896.3294   22648902.8614
 96  4 18  1 55  0.0000000  0  8 16 24 20  5  6 26 23 17
  21352481.780    -1994748.45449  -1239158.84949  21352485.1484   21352491.0874
  24301252.163    13559621.90849  10555647.88949  24301256.3874   24301262.5564
  21260465.013     1297424.92749   1020344.14249  21260468.3714   21260474.2994
  22753258.866    12009144.05449   9352454.70849  22753264.5274   22753270.4444
  20690800.301   -11523717.29549  -8962439.92049  20690803.8484   20690808.8194
  24270662.031    -5731945.54349  -4453082.11149  24270664.4814   24270671.5634
  24419337.392    -4413999.14149  -3423566.19849  24419339.9084   24419348.4254
  22636317.433   -14597724.50949 -11358013.61649  22636320.7524   22636327.7174
 96  4 18  1 55 30.0000000  0  8 16 24 20  5  6 26 23 17
  21361176.793    -1949057.18549  -1203555.26249  21361179.9524   21361185.5844
  24315296.113    13633443.13849  10613170.93249  24315304.8154   24315308.6144
  21272179.666     1358983.43449   1068311.77649  21272182.8914   21272188.9794
  22771999.207    12107606.31749   9429178.53249  22772001.3844   22772008.1174
  20682874.846   -11565362.52949  -8994890.74549  20682879.0014   20682884.2354
  24254833.326    -5815115.19049  -4517889.57649  24254837.9324   24254845.2134
  24398960.910    -4521090.26049  -3507013.70149  24398961.4524   24398968.6874
  22623784.243   -14663584.21449 -11409332.86649  22623788.1014   22623794.4604
 96  4 18  1 56  0.0000000  0  8 16 24 20  5  6 26 23 17
  21369961.244    -1902887.57349  -1167578.94149  21369965.4734   21369971.1284
  24329343.528    13707243.47949  10670677.72049  24329346.8234   24329354.2514
  21283986.524     1421030.02449   1116659.74449  21283989.5664   21283995.3954
  22790772.061    12206255.79349   9506048.22649  22790774.0904   22790780.7584
  20675000.891   -11606744.62149  -9027136.52549  20675004.0944   20675009.4554
  24239017.919    -5898250.29749  -4582670.11149  24239017.9844   24239025.0934
  24378596.898    -4628106.36449  -3590402.77749  24378597.8134   24378604.0824
  22611293.717   -14729225.70049 -11460482.07549  22611297.2294   22611303.4294
 96  4 18  1 56 30.0000000  0  8 16 24 20  5  6 26 23 17
  21378837.740    -1856249.41749  -1131237.52349  21378840.8444   21378846.2174
  24343387.435    13781000.51149  10728150.76149  24343382.0864   24343387.8144
  21295882.585     1483544.60349   1165372.37349  21295885.8744   21295892.0654
  22809579.697    12305090.45449   9583062.23449  22809581.9824   22809588.3174
  20667174.442   -11647874.36049  -9059185.67149  20667177.4594   20667182.9574
  24223198.510    -5981353.92649  -4647426.13349  24223203.8514   24223209.2894
  24358242.152    -4735058.89249  -3673742.35949  24358244.0414   24358250.5974
  22598842.574   -14794661.62849 -11511471.09349  22598845.2104   22598850.9594
 96  4 18  1 57  0.0000000  0  8 16 24 20  5  6 26 23 17
  21387805.519    -1809121.53249  -1094514.50149  21387809.0254   21387814.1344
  24357400.693    13854711.33249  10785587.74949  24357408.9184   24357414.6284
  21307865.557     1546511.89349   1214437.76549  21307868.4694   21307873.8674
  22828422.316    12404117.11349   9660225.82849  22828425.7254   22828431.9954
  20659396.455   -11688739.90649  -9091028.95349  20659400.8914   20659406.1864
  24207390.443    -6064421.93849  -4712154.39149  24207396.1924   24207402.7054
  24337903.175    -4841932.44149  -3757020.34349  24337907.3884   24337914.3894
  22586429.049   -14859895.13749 -11562302.37349  22586431.6904   22586437.5434
 96  4 18  1 57 30.0000000  0  8 16 24 20  5  6 26 23 17
  21396871.917    -1761482.54349  -1057393.22249  21396874.4884   21396879.5084
  24371437.094    13928399.37449  10843007.02949  24371431.3324   24371437.8924
  21319932.521     1609927.15849   1263852.21949  21319935.7194   21319941.1194
  22847304.611    12503342.80249   9737544.52249  22847308.0744   22847314.1994
  20651679.595   -11729299.95149  -9122634.18349  20651682.7614   20651687.9504
  24191596.939    -6147428.31149  -4776834.63049  24191600.6874   24191605.7414
  24317586.406    -4948692.96549  -3840210.30149  24317590.8084   24317597.2924
  22574056.449   -14924910.79249 -11612963.91149  22574059.3064   22574065.0814
 96  4 18  1 58  0.0000000  0  8 16 24 20  5  6 26 23 17
  21406030.953    -1713352.46849  -1019889.27049  21406033.2004   21406038.8634
  24385442.618    14002048.53658                                  24385443.3704
  21332080.098     1673760.02549   1313592.08449  21332082.9434   21332088.4724
  22866219.274    12602743.04449   9814999.23949  22866222.6604   22866229.0074
  20644015.356   -11769573.52749  -9154016.18949  20644018.9934   20644024.1054
  24175812.053    -6230393.89849  -4841483.07649  24175813.2484   24175818.8404
  24297292.754    -5055355.69949  -3923324.07649  24297293.9114   24297301.2824
  22561718.292   -14989740.44749 -11663480.50349  22561722.3834   22561729.0424
 96  4 18  1 58 30.0000000  0  8 16 24 20  5  6 26 23 17
  21415288.297    -1664698.95849   -981977.44849  21415291.6394   21415297.3514
  24399447.983    14075688.53219
  21344308.214     1738022.24449   1363666.51249  21344311.4314   21344317.5214
  22885170.232    12702338.28549   9892605.88649  22885174.8814   22885182.0974
  20636411.809   -11809534.91849  -9185154.93249  20636414.4674   20636419.7994
  24160032.292    -6313279.73149  -4906069.38449  24160039.6714   24160045.6724
  24277023.323    -5161880.71649  -4006330.51349  24277022.9874   24277030.3384
  22549422.655   -15054359.96149 -11713833.35649  22549425.6304   22549431.7004
 96  4 18  1 59  0.0000000  0  8 16 24 20  5  6 26 23 17
  21424645.425    -1615528.17149   -943662.54649  21424648.4254   21424654.3864
  24413455.932    14149325.78959  11015157.50159  24413472.5584   24413479.8454
  21356619.827     1802717.85549   1414078.64649  21356622.3594   21356628.8914
  22904160.104    12802116.34549   9970354.99349  22904162.6624   22904169.0624
  20628867.773   -11849179.40149  -9216046.72949  20628870.5214   20628875.4974
  24144276.905    -6396085.10349  -4970592.98049  24144283.3814   24144288.9634
  24256774.287    -5268268.51049  -4089230.01049  24256778.1594   24256785.2244
  22537164.939   -15118769.35849 -11764022.48149  22537168.7624   22537175.2054
 96  4 18  1 59 30.0000000  0  8 16 24 20  5  6 26 23 17
  21434094.539    -1565872.77949   -904970.03749  21434097.5294   21434103.3244
  24427481.728    14222943.05259  11072521.63459  24427483.2744   24427488.5624
  21369016.020     1867859.89749   1464838.65049  21369018.9614   21369024.6184
  22923177.561    12902061.80749  10048234.54849  22923181.6484   22923188.0544
  20621377.100   -11888535.94049  -9246714.15449  20621381.2824   20621386.2324
  24128531.545    -6478822.11349  -5035063.31449  24128536.6354   24128544.1024
  24236549.107    -5374549.24849  -4172046.12249  24236552.6114   24236560.5984
  22524945.707   -15182986.66449 -11814061.92549  22524949.0154   22524955.2224
 96  4 18  2  0  0.0000000  0  8 16 24 20  5  6 26 23 17
  21443638.846    -1515716.57349   -865887.28549  21443642.0264   21443647.4284
  24441493.824    14296549.66249  11129877.40949  24441491.5624   24441496.4174
  21381503.267     1933478.15149   1515969.73149  21381505.8804   21381511.4644
  22942236.067    13002211.24749  10126273.03849  22942238.8624   22942245.7854
  20613942.018   -11927612.70549  -9277163.57949  20613945.0594   20613950.2644
  24112802.695    -6561474.69249  -5099467.86349  24112809.9194   24112814.1844
  24216352.071    -5480700.47349  -4254761.29649  24216352.3224   24216359.5444
  22512763.299   -15246997.59749 -11863940.55649  22512767.6434   22512774.7364
 96  4 18  2  0 30.0000000  0  8 16 24 20  5  6 26 23 17
  21453273.981    -1465083.34849   -826432.83249  21453277.1094   21453282.7344
  24455472.844    14370124.81059  11187208.71659  24455491.7114   24455496.4504
  21394076.953     1999557.77649   1567460.32549  21394080.4944   21394086.4954
  22961329.613    13102551.42449  10204460.14949  22961334.0024   22961340.2544
  20606555.780   -11966429.19449  -9307410.19249  20606558.7274   20606563.2464
  24097087.248    -6644069.37749  -5163827.32749  24097091.5844   24097098.9674
  24196166.184    -5586745.90649  -4337394.03949  24196172.3534   24196180.0674
  22500622.654   -15310804.48049 -11913660.17949  22500625.9204   22500632.6254
 96  4 18  2  1  0.0000000  0  8 16 24 20  5  6 26 23 17
  21463001.111    -1413966.45949   -786601.49049  21463004.1464   21463009.8504
  24469486.045    14443658.14359  11244507.44859  24469480.7634   24469489.0184
  21406742.839     2066115.62449   1619323.56249  21406745.7264   21406752.0274
  22980463.363    13203094.53249  10282805.40649  22980465.8684   22980471.9504
  20599219.052   -12004978.49749  -9337448.60249  20599222.7014   20599227.9374
  24081383.548    -6726606.45949  -5228141.87649  24081387.9734   24081393.0584
  24176007.696    -5692695.21949  -4419951.87849  24176011.8684   24176018.6854
  22488519.933   -15374407.22749 -11963220.73249  22488522.6614   22488529.7534
 96  4 18  2  1 30.0000000  0  8 16 24 20  5  6 26 23 17
  21472820.891    -1362364.87749   -746392.47349  21472823.6964   21472829.6744
  24483463.685    14517136.38549  11301763.20149  24483463.4594   24483470.4754
  21419498.399     2133146.12449   1671555.10449  21419501.1954   21419507.2304
  22999634.187    13303844.38849  10361311.76749  22999638.2994   22999644.3884
  20591935.125   -12043256.12749  -9367275.32249  20591938.4194   20591943.7284
  24065689.774    -6809084.21549  -5292410.17949  24065691.7864   24065697.0844
  24155865.711    -5798549.12449  -4502435.39349  24155868.3464   24155876.0944
  22476453.232   -15437809.73949 -12012625.27049  22476457.7004   22476464.3904
 96  4 18  2  2  0.0000000  0  8 16 24 20  5  6 26 23 17
  21482729.137    -1310301.44449   -705823.56749  21482731.2954   21482736.9524
  24497435.409    14590527.76649  11358951.28849  24497432.9764   24497437.9924
  21432332.640     2200592.19449   1724110.45649  21432335.7834   21432341.9004
  23018835.525    13404755.50149  10439943.78049  23018841.5994   23018847.1244
  20584703.321   -12081258.65949  -9396887.68049  20584706.9704   20584712.3524
  24049999.686    -6891520.84349  -5356646.50349  24050003.8784   24050012.1844
  24135738.101    -5904316.70649  -4584851.63849  24135741.1364   24135748.2844
  22464425.884   -15501015.35149 -12061876.37149  22464430.1224   22464436.7554
 96  4 18  2  2 30.0000000  0  8 16 24 20  5  6 26 23 17
  21492728.143    -1257751.50149   -664875.56349  21492731.2344   21492736.8384
  24511379.017    14663848.48649  11416084.31249  24511382.6914   24511390.5504
  21445253.258     2268484.32049   1777013.38949  21445255.2594   21445261.1444
  23038076.152    13505836.91249  10518708.46749  23038076.8534   23038081.2124
  20577535.209   -12118926.26549  -9426239.05649  20577539.0754   20577544.1834
  24034323.440    -6973891.06949  -5420831.04349  24034328.5374   24034336.5404
  24115634.875    -6009971.36749  -4667179.89149  24115635.9674   24115643.6854
  22452442.618   -15563994.14149 -12110950.73049  22452445.5104   22452451.4844
 96  4 18  2  3  0.0000000  0  8 16 24 20  5  6 26 23 17
  21502820.131    -1204719.02949   -623551.56949  21502823.0094   21502828.7144
  24525312.012    14737095.30849  11473159.77549  24525321.7374   24525327.3624
  21458252.667     2336801.99049   1830247.92649  21458256.0914   21458261.8214
  23057334.325    13607062.54349  10597585.56849  23057338.6494   23057344.2744
  20570429.039   -12156271.79649  -9455339.46849  20570432.4484   20570437.6974
  24018664.592    -7056192.61349  -5484962.12549  24018668.5144   24018673.6114
  24095549.965    -6115504.12049  -4749413.17749  24095553.8584   24095561.0574
  22440494.974   -15626771.76449 -12159868.32349  22440499.1054   22440505.8374
 96  4 18  2  3 30.0000000  0  8 16 24 20  5  6 26 23 17
  21513000.958    -1151209.38149   -581855.74149  21513005.2644   21513011.0244
  24539245.800    14810310.46449  11530210.54549  24539254.2134   24539260.8524
  21471332.727     2405539.18449   1883809.36649  21471335.7724   21471342.5444
  23076625.706    13708425.98749  10676570.04649  23076627.5934   23076633.9414
  20563384.486   -12193290.16949  -9484184.94649  20563388.3234   20563393.3864
  24003016.384    -7138411.91849  -5549029.08449  24003022.7184   24003029.0724
  24075494.774    -6220886.04749  -4831528.89549  24075499.7404   24075508.0844
  22428591.797   -15689322.06849 -12208608.80649  22428596.1094   22428602.8064
 96  4 18  2  4  0.0000000  0  8 16 24 20  5  6 26 23 17
  21523274.928    -1097228.90049   -539793.02249  21523277.4184   21523282.9424
  24553181.392    14883501.17049  11587242.20749  24553182.4304   24553188.3984
  21484491.766     2474686.13849   1937690.08149  21484494.2074   21484500.6014
  23095935.785    13809915.33049  10755652.60949  23095940.6174   23095946.6574
  20556401.440   -12229985.38749  -9512778.62149  20556405.4774   20556410.8924
  23987386.931    -7220562.09649  -5613042.15249  23987389.3034   23987394.7374
  24055473.713    -6326114.10649  -4913524.72849  24055475.7354   24055483.2834
  22416729.415   -15751660.33749 -12257184.06249  22416733.8864   22416740.4894
 96  4 18  2  4 30.0000000  0  8 16 24 20  5  6 26 23 17
  21533634.380    -1042786.38349   -497370.28449  21533637.5634   21533643.4074
  24567101.154    14956681.09949  11644265.50249  24567105.8994   24567115.8874
  21497727.648     2544246.29149   1991892.78349  21497731.0414   21497737.2264
  23115275.552    13911537.07949  10834838.36049  23115279.2004   23115284.5074
  20549474.564   -12266389.61749  -9541145.54649  20549478.0854   20549483.1794
  23971764.669    -7302649.81649  -5677006.56049  23971769.0474   23971774.3034
  24035476.777    -6431202.88849  -4995412.04149  24035477.7444   24035486.0414
  22404902.884   -15813822.02049 -12305621.72449  22404904.9824   22404911.8574
 96  4 18  2  5  0.0000000  0  8 16 24 20  5  6 26 23 17
  21544083.998     -987876.40549   -454583.28949  21544086.7834   21544092.3554
  24581031.214    15029883.55549  11701306.32749  24581037.2164   24581043.1144
  21511042.243     2614215.01149   2046413.84049  21511045.5474   21511051.9934
  23134639.632    14013297.48349  10914132.15149  23134643.4374   23134649.2174
  20542600.184   -12302512.52249  -9569293.26149  20542603.8264   20542609.0074
  23956159.793    -7384655.23149  -5740906.83249  23956164.4814   23956168.2184
  24015499.344    -6536147.11149  -5077186.70549  24015507.8414   24015515.7514
  22393106.394   -15875800.98149 -12353916.99549  22393110.5174   22393117.3794
 96  4 18  2  5 30.0000000  0  8 16 24 20  5  6 26 23 17
  21554620.642     -932502.50549   -411434.80449  21554624.1814   21554629.4784
  24594971.464    15103108.66949  11758364.83349  24594972.3404   24594977.9804
  21524439.384     2684617.42149   2101272.83649  21524442.4854   21524449.0164
  23154035.620    14115211.24549  10993545.45549  23154036.9904   23154043.4094
  20535785.184   -12338332.94949  -9597205.28249  20535788.0064   20535792.9024
  23940574.433    -7466567.76549  -5804734.74949  23940577.0884   23940582.3334
  23995559.631    -6640948.62349  -5158850.19849  23995565.2724   23995571.5494
  22381350.932   -15937581.57349 -12402057.72549  22381353.9314   22381360.1834
 96  4 18  2  6  0.0000000  0  8 16 24 20  5  6 26 23 17
  21565243.335     -876677.24949   -367934.60749  21565247.3154   21565252.8294
  24608899.866    15176312.43949  11815406.72249  24608903.7874   24608908.6204
  21537918.336     2755443.32249   2156461.82049  21537920.8304   21537926.6514
  23173455.184    14217273.63549  11073074.54749  23173458.5794   23173464.1374
  20529022.910   -12373861.18649  -9624889.61649  20529026.8444   20529031.8814
  23925002.892    -7548395.47149  -5868496.59449  23925006.0914   23925011.0894
  23975642.712    -6745631.90449  -5240421.52649  23975644.9404   23975651.0724
  22369624.982   -15999197.60949 -12450070.20549  22369628.9204   22369635.2904
 96  4 18  2  6 30.0000000  0  8 16 24 20  5  6 26 23 17
  21575954.867     -820396.67749   -324079.61749  21575956.8924   21575962.3974
  24622823.260    15249491.62749  11872429.42949  24622827.4774   24622833.3474
  21551475.686     2826693.43649   2211981.35649  21551478.8914   21551484.7964
  23192907.253    14319488.85949  11152722.74049  23192909.0804   23192915.8984
  20522318.139   -12409096.49349  -9652345.69949  20522321.4384   20522326.7814
  23909451.078    -7630112.65749  -5932172.26949  23909455.3064   23909460.1804
  23955745.206    -6850192.32349  -5321897.12349  23955747.5834   23955754.0794
  22357935.282   -16060631.81949 -12497940.99949  22357938.3374   22357944.6564
 96  4 18  2  7  0.0000000  0  8 16 24 20  5  6 26 23 17
  21586751.411     -763656.37749   -279866.39449  21586754.2614   21586759.4234
  24636740.325    15322624.12349  11929415.78549  24636744.4844   24636750.2424
  21565116.966     2898378.42349   2267839.75049  21565120.4464   21565126.1794
  23212384.751    14421855.88549  11232489.21549  23212388.4474   23212394.4214
  20515674.287   -12444009.91449  -9679550.96049  20515678.0084   20515682.8084
  23893921.626    -7711711.57849  -5995755.78949  23893927.3384   23893933.0424
  23935873.562    -6954619.71249  -5403269.06749  23935875.7924   23935882.4794
  22346280.798   -16121866.45549 -12545656.27049  22346285.5934   22346292.1574
 96  4 18  2  7 30.0000000  0  8 16 24 20  5  6 26 23 17
  21597637.755     -706449.16949   -235289.34549  21597640.4504   21597646.2364
  24650647.030    15395694.61349  11986353.81949  24650650.0984   24650655.0724
  21578843.574     2970508.89949   2324045.28649  21578846.3204   21578852.3934
  23231895.459    14524384.63449  11312381.73149  23231900.5044   23231905.2454
  20509095.395   -12478579.05549  -9706487.94749  20509099.2234   20509104.4774
  23878418.291    -7793185.27249  -6059241.75149  23878423.1364   23878428.7664
  23916029.931    -7058893.66949  -5484521.45749  23916033.2324   23916038.7834
  22334669.034   -16182890.76549 -12593207.66449  22334672.9434   22334679.5134
 96  4 18  2  8  0.0000000  0  8 16 24 20  5  6 26 23 17
  21608614.990     -648766.77649   -190342.02749  21608617.6244   21608622.8814
  24664533.455    15468695.44749  12043237.58749  24664540.3564   24664548.4644
  21592647.819     3043056.74949   2380576.05149  21592651.4384   21592657.8414
  23251439.907    14627071.12449  11392397.13649  23251440.5944   23251446.1604
  20502582.088   -12512807.78649  -9733159.68549  20502586.1194   20502590.9584
  23862942.052    -7874535.59849  -6122631.58449  23862941.9824   23862948.2104
  23896216.070    -7163005.16449  -5565647.25649  23896220.6304   23896227.7964
  22323095.144   -16243711.31149 -12640600.28549  22323099.1104   22323105.4294
 96  4 18  2  8 30.0000000  0  8 16 24 20  5  6 26 23 17
  21619677.469     -590625.37349   -145037.04049  21619681.2324   21619686.8094
  24678416.369    15541635.44449  12100073.96249  24678420.9684   24678426.4774
  21606530.373     3116010.34449   2437422.97849  21606534.3564   21606540.3964
  23271002.063    14729891.53449  11472516.91749  23271005.7544   23271012.7204
  20496134.431   -12546691.50549  -9759562.58049  20496138.3484   20496142.9794
  23847478.099    -7955761.30249  -6185924.29449  23847485.2924   23847492.1784
  23876436.823    -7266956.07849  -5646647.92349  23876439.8654   23876445.5994
  22311561.556   -16304323.72149 -12687830.72649  22311565.5784   22311571.7404
 96  4 18  2  9  0.0000000  0  8 16 24 20  5  6 26 23 17
  21630824.861     -532049.64649    -99393.61749  21630827.7684   21630833.3434
  24692285.032    15614520.88949  12156867.79549  24692290.6894   24692297.2604
  21620489.333     3189359.67149   2494578.25749  21620492.1894   21620498.4144
  23290591.414    14832833.25749  11552731.21849  23290595.0884   23290601.5344
  20489751.850   -12580235.26149  -9785700.57149  20489754.9974   20489759.9874
  23832048.840    -8036865.44949  -6249122.30549  23832051.2904   23832058.3454
  23856690.163    -7370735.63849  -5727515.05949  23856691.1194   23856698.2494
  22300066.442   -16364730.28449 -12734900.74549  22300070.5934   22300076.8364
 96  4 18  2  9 30.0000000  0  8 16 24 20  5  6 26 23 17
  21642053.069     -473045.10649    -53416.05049  21642055.7324   21642061.7184
  24706147.459    15687375.21349  12213637.37149  24706153.2574   24706159.2084
  21634516.370     3263073.61349   2552017.66349  21634519.5274   21634526.1394
  23310204.253    14935895.43449  11633039.39149  23310207.3904   23310213.0744
  20483429.685   -12613458.09449  -9811588.48349  20483433.1774   20483437.8784
  23816632.643    -8117839.30949  -6312218.75549  23816642.6924   23816648.8114
  23836971.069    -7474342.57049  -5808247.67549  23836975.0864   23836982.1604
  22288610.905   -16424925.69449 -12781806.23649  22288615.2544   22288621.6304
 96  4 18  2 10  0.0000000  0  8 16 24 20  5  6 26 23 17
  21653361.068     -413614.50949     -7106.49449  21653365.2264   21653370.8694
  24720014.177    15760215.87349  12270396.31849  24720016.5734   24720022.2034
  21648611.893     3337146.86249   2609737.05049  21648615.0344   21648621.8974
  23329840.174    15039079.72649  11713442.71149  23329843.1264   23329848.8394
  20477167.385   -12646361.69849  -9837227.65449  20477171.5774   20477176.5404
  23801256.677    -8198661.31649  -6375196.88449  23801263.3994   23801267.9364
  23817290.017    -7577773.88749  -5888843.48549  23817293.3364   23817298.8004
  22277198.374   -16484901.87849 -12828540.90549  22277202.3454   22277209.3714
 96  4 18  2 10 30.0000000  0  8 16 24 20  5  6 26 23 17
  21664752.589     -353759.37049     39533.87849  21664755.1844   21664760.4584
  24733878.000    15833066.50949  12327163.03149  24733878.2064   24733884.6534
  21662781.761     3411605.62949   2667756.83349  21662784.3564   21662790.4694
  23349501.783    15142389.64849  11793943.92049  23349502.9084   23349507.5744
  20470968.485   -12678944.41849  -9862616.78049  20470971.6424   20470976.5124
  23785913.113    -8279325.97349  -6438052.42049  23785913.0384   23785919.2434
  23797640.063    -7681025.20449  -5969299.03549  23797644.3414   23797651.1844
  22265830.906   -16544641.44749 -12875091.17449  22265834.7874   22265841.1004
 96  4 18  2 11  0.0000000  0  8 16 24 20  5  6 26 23 17
  21676224.325     -293469.93449     86512.65649  21676227.8294   21676233.2524
  24747735.019    15905906.79249  12383921.60249  24747739.8284   24747746.0604
  21677020.323     3486431.81849   2726062.92149  21677023.0614   21677029.4384
  23369180.626    15245821.17249  11874539.88349  23369185.1284   23369192.0884
  20464824.580   -12711227.30349  -9887772.27049  20464828.1574   20464832.7394
  23770584.280    -8359860.23449  -6500806.37249  23770587.1164   23770593.8444
  23778024.899    -7784109.34849  -6049624.31949  23778028.1404   23778035.5364
  22254504.033   -16604166.20749 -12921474.07349  22254507.2154   22254513.5494
 96  4 18  2 11 30.0000000  0  8 16 24 20  5  6 26 23 17
  21687784.658     -232718.96449    133851.08549  21687788.3074   21687793.9904
  24761589.905    15978719.56449  12440658.81449  24761594.9024   24761600.9434
  21691329.998     3561635.99949   2784663.56149  21691334.0584   21691340.6464
  23388886.257    15349372.23449  11955228.97649  23388890.5284   23388896.2514
  20458742.951   -12743188.28649  -9912676.93149  20458745.8954   20458751.2154
  23755284.221    -8440265.80049  -6563460.04149  23755287.0134   23755292.5854
  23758438.379    -7887046.22449  -6129834.82149  23758439.1784   23758446.5834
  22243214.719   -16663483.75749 -12967695.51749  22243219.1684   22243225.7524
 96  4 18  2 12  0.0000000  0  8 16 24 20  5  6 26 23 17
  21699435.290     -171500.14749    181554.06049  21699437.9824   21699443.4894
  24775440.831    16051491.89549  12497364.57349  24775443.6774   24775449.2144
  21705719.573     3637247.47949   2843581.57549  21705722.3224   21705728.5034
  23408613.385    15453033.92949  12036004.30249  23408614.8324   23408623.2984
  20452724.310   -12774811.05349  -9937318.03949  20452728.5934   20452733.5304
  23740008.029    -8520545.72649  -6626015.81649  23740011.3754   23740016.9814
  23738876.222    -7989827.41249  -6209924.04249  23738880.7174   23738887.7664
  22231967.196   -16722593.91849 -13013755.35249  22231970.4824   22231977.3884
 96  4 18  2 12 30.0000000  0  8 16 24 20  5  6 26 23 17
  21711177.453     -109796.00149    229635.21949  21711179.9184   21711185.4874
  24789283.356    16124225.93149  12554040.46349  24789283.5764   24789290.8274
  21720185.499     3713270.86349   2902820.55949  21720189.3024   21720195.5044
  23428359.078    15556804.27449  12116864.27349  23428362.8704   23428370.0824
  20446774.804   -12806081.41349  -9961684.55149  20446777.8084   20446782.9934
  23724757.374    -8600701.13049  -6688474.54749  23724757.1884   23724763.2814
  23719350.974    -8092449.09149  -6289888.93449  23719352.0764   23719360.0734
  22220760.882   -16781487.94749 -13059646.76849  22220763.6574   22220770.1274
 96  4 18  2 13  0.0000000  0  8 16 24 20  5  6 26 23 17
  21723008.029      -47620.10449    278083.96649  21723011.3754   21723017.0424
  24803106.761    16196897.27449  12610667.46549  24803112.0254   24803117.6844
  21734725.669     3789678.00949   2962358.58149  21734728.5764   21734735.3104
  23448124.373    15660663.76149  12197793.72049  23448127.1654   23448134.6654
  20440890.596   -12836997.62349  -9985775.10449  20440894.5744   20440899.7604
  23709524.729    -8680723.20249  -6750829.36849  23709529.1064   23709535.8884
  23699849.126    -8194924.01349  -6369739.50249  23699852.6234   23699859.4484
  22209591.511   -16840186.61949 -13105385.94549  22209593.8304   22209600.2944
 96  4 18  2 13 30.0000000  0  8 16 24 20  5  6 26 23 17
  21734923.567       14994.91649    326874.88749  21734926.6944   21734932.2794
  24816928.790    16269508.80449  12667247.95549  24816930.2734   24816936.7874
  21749337.484     3866465.27449   3022192.79649  21749341.1604   21749347.8574
  23467901.069    15764602.01649  12278784.52949  23467904.9964   23467911.6584
  20435077.029   -12867552.18549 -10009583.84449  20435080.3184   20435085.4324
  23694325.943    -8760602.49949  -6813072.95249  23694328.7194   23694335.4124
  23680379.435    -8297244.62049  -6449469.79449  23680380.9214   23680388.4064
  22198459.255   -16898683.45549 -13150967.85649  22198462.0924   22198468.3974
 96  4 18  2 14  0.0000000  0  8 16 24 20  5  6 26 23 17
  21746916.936       78023.43849    375988.02649  21746920.1844   21746926.3904
  24830726.594    16342059.38449  12723780.90949  24830734.4754   24830742.5394
  21764017.986     3943609.24149   3082304.96549  21764021.2144   21764027.7284
  23487691.260    15868610.67749  12359830.20849  23487696.6694   23487704.5384
  20429326.453   -12897767.71349 -10033128.40549  20429330.4084   20429335.5954
  23679150.309    -8840349.23949  -6875213.24849  23679153.3784   23679159.6824
  23660938.025    -8399405.40149  -6529075.56549  23660941.4864   23660948.3304
  22187364.207   -16956982.18549 -13196395.41049  22187368.3624   22187374.3874
 96  4 18  2 14 30.0000000  0  7 16 20  5  6 26 23 17
  21758988.822      141461.67149    425420.41249  21758992.1384   21758998.1694
  21778764.274     4021106.88849   3142692.71749  21778768.7194   21778775.0174
  23507499.952    15972701.42349  12440939.85949  23507504.3554   23507512.8184
  20423642.899   -12927632.92949 -10056400.00149  20423647.0184   20423652.5084
  23664003.536    -8919950.84949  -6937240.45349  23664006.2694   23664012.5804
  23641532.701    -8501393.78249  -6608546.99049  23641533.4974   23641540.8094
  22176308.016   -17015085.56649 -13241670.73249  22176311.5084   22176317.5254
 96  4 18  2 15  0.0000000  0  7 16 20  5  6 26 23 17
  21771134.724      205291.53549    475157.96949  21771138.6154   21771144.6714
  21793582.487     4098968.93649   3203364.41949  21793585.1964   21793591.3694
  23527325.697    16076883.87649  12522120.94749  23527329.8844   23527336.4394
  20418025.251   -12957154.71849 -10079403.98449  20418029.3984   20418034.7914
  23648883.190    -8999406.98249  -6999154.29849  23648886.4614   23648892.6094
  23622157.031    -8603199.72649  -6687876.25449  23622160.6194   23622166.7284
  22165286.664   -17073002.71249 -13286800.91749  22165290.6234   22165296.6354
 96  4 18  2 15 30.0000000  0  7 16 20  5  6 26 23 17
  21783356.805      269515.54649    525202.65649  21783360.2414   21783366.1664
  21808469.853     4177206.43149   3264328.64849  21808473.0684   21808479.7544
  23547171.984    16181164.72949  12603378.71349  23547173.8724   23547181.5774
  20412470.279   -12986346.71849 -10102150.99349  20412474.3214   20412479.5474
  23633785.469    -9078721.00849  -7060957.42949  23633794.0414   23633799.0714
  23602824.289    -8704803.62749  -6767048.09749  23602825.8664   23602832.0444
  22154305.928   -17130716.79549 -13331772.89049  22154307.9634   22154313.8514
 96  4 18  2 16  0.0000000  0  7 16 20  5  6 26 23 17
  21795653.450      334135.39849    575555.79149  21795657.1304   21795662.6504
  21823430.316     4255817.86049   3325584.26649  21823433.0874   21823439.1824
  23567034.528    16285539.29749  12684709.49949  23567034.8594   23567043.4044
  20406973.825   -13015235.46049 -10124661.69249  20406977.1874   20406982.1204
  23618723.255    -9157906.20049  -7122660.14549  23618725.4284   23618730.4694
  23583524.750    -8806222.85149  -6846076.03449  23583526.2584   23583532.6304
  22143357.544   -17188241.07349 -13376596.96449  22143361.4994   22143367.5634
 96  4 18  2 16 30.0000000  0  7 16 20  5  6 26 23 17
  21808029.268      399167.06649    626229.81149  21808032.3234   21808037.9024
  21838465.164     4334830.95149   3387152.85949  21838468.3764   21838474.4524
  23586913.680    16390025.76549  12766127.51249  23586918.4034   23586926.5404
  20401537.467   -13043800.47549 -10146920.14349  20401541.3884   20401546.4994
  23603682.600    -9236932.25049  -7184238.85949  23603686.9464   23603692.9884
  23564259.336    -8907434.69449  -6924942.37149  23564266.6834   23564272.6394
  22132449.885   -17245556.45349 -13421258.24849  22132454.5074   22132460.8244
 96  4 18  2 17  0.0000000  0  7 16 20  5  6 26 23 17
  21820484.451      464615.84249    677228.85749  21820486.7884   21820492.0964
  21853575.541     4414233.54649   3449024.97349  21853578.0104   21853584.5864
  23606820.607    16494621.04449  12847630.28849  23606823.4344   23606829.4314
  20396163.221   -13072049.49949 -10168932.36149  20396166.3014   20396170.5974
  23588673.738    -9315798.65549  -7245693.15649  23588678.0054   23588684.9034
  23545042.838    -9008443.73649  -7003650.67949  23545045.3624   23545051.8944
  22121585.380   -17302652.39849 -13465748.54749  22121588.9634   22121596.0004
 96  4 18  2 17 30.0000000  0  7 16 20  5  6 26 23 17
  21833017.131      530485.29749    728555.70649  21833021.3254   21833026.7064
  21868752.011     4493987.99449   3511171.26749  21868755.0504   21868761.5324
  23626740.760    16599300.63249  12929198.77549  23626743.7284   23626749.7734
  20390849.018   -13099967.33349 -10190686.51049  20390853.1414   20390858.0714
  23573697.390    -9394504.56249  -7307022.38049  23573702.0894   23573707.4164
  23525853.951    -9109264.14649  -7082211.99549  23525859.1304   23525866.5554
  22110760.216   -17359535.99649 -13510073.38249  22110764.6074   22110771.1634
 96  4 18  2 18  0.0000000  0  7 16 20  5  6 26 23 17
  21845634.261      596785.35549    780218.08449  21845637.3334   21845643.3714
  21883994.442     4574093.28349   3573590.94249  21883998.4944   21884005.0334
  23646679.448    16704078.14449  13010843.56249  23646681.4204   23646687.7364
  20385609.813   -13127503.18549 -10212143.01149  20385613.5014   20385618.2094
  23558757.376    -9473027.96449  -7368209.40049  23558758.6354   23558765.2474
  23506708.232    -9209891.92749  -7160623.21349  23506711.0604   23506717.7104
  22099976.340   -17416211.89449 -13554236.36249  22099979.6964   22099986.0114
 96  4 18  2 18 30.0000000  0  7 16 20  5  6 26 23 17
  21858327.118      663486.09549    832192.68249  21858330.2484   21858336.1524
  21899297.736     4654506.48549   3636250.56149  21899300.5124   21899307.1644
  23666632.641    16808922.82749  13092540.70249  23666632.5904   23666638.9034
  20380443.192   -13154651.58049 -10233297.59449  20380447.4524   20380452.5604
  23543843.212    -9551370.47949  -7429255.47949  23543850.8594   23543856.4734
  23487594.800    -9310328.75349  -7238885.64249  23487597.7944   23487604.8924
  22089224.050   -17472707.26649 -13598258.69349  22089228.7774   22089234.7694
 96  4 18  2 19  0.0000000  0  7 16 20  5  6 26 23 17
  21871093.223      730574.71949    884469.53549  21871096.8864   21871102.7054
  21914653.918     4735203.98949   3699131.71949  21914657.1504   21914663.5834
  23686591.471    16913819.49349  13174278.34149  23686594.5274   23686600.5864
  20375353.489   -13181403.19749 -10254143.00449  20375356.4734   20375361.5284
  23528975.453    -9629526.33849  -7490156.12049  23528978.6834   23528983.9504
  23468516.779    -9410587.36549  -7317009.20149  23468519.3394   23468526.2264
  22078506.760   -17529035.03249 -13642150.43249  22078509.7974   22078516.4144
 96  4 18  2 19 30.0000000  0  7 16 20  5  6 26 23 17
  21883936.965      798066.31449    937060.38349  21883940.3914   21883945.5124
  21930068.798     4816210.70549   3762253.82249  21930071.9874   21930078.2274
  23706564.420    17018771.30249  13256058.91049  23706565.5364   23706573.1884
  20370339.035   -13207750.31149 -10274673.22149  20370342.7864   20370347.7374
  23514140.046    -9707473.89749  -7550894.45649  23514145.7754   23514151.0924
  23449472.915    -9510656.85049  -7394985.38949  23449476.5284   23449484.6824
  22067820.469   -17585189.22049 -13685906.92249  22067824.4914   22067830.1064
 96  4 18  2 20  0.0000000  0  7 16 20  5  6 26 23 17
  21896852.704      865935.72949    989945.63949  21896855.4674   21896860.7374
  21945545.336     4897533.72849   3825622.38549  21945547.3914   21945553.7674
  23726544.276    17123768.54749  13337874.93749  23726546.5344   23726552.0634
  20365392.438   -13233739.99349 -10294924.92049  20365397.0534   20365402.1034
  23499346.415    -9785226.03249  -7611480.51549  23499349.8894   23499354.9374
  23430465.194    -9610542.02149  -7472817.95849  23430469.3004   23430476.5404
  22057166.945   -17641175.12649 -13729532.26249  22057170.5344   22057176.7694
 96  4 18  2 20 30.0000000  0  7 16 20  5  6 26 23 17
  21909841.940      934194.74049   1043134.48349  21909844.5514   21909849.9924
  21961082.815     4979189.10349   3889249.92349  21961085.9264   21961092.3914
  23746531.807    17228814.46549  13419728.90149  23746536.9104   23746542.1604
  20360511.340   -13259398.62449 -10314918.64849  20360514.6554   20360519.5174
  23484591.569    -9862767.38049  -7671902.31349  23484593.5644   23484599.0344
  23411494.621    -9710232.49449  -7550498.80049  23411498.2384   23411505.8964
  22046550.425   -17696965.14149 -13773004.96249  22046553.8764   22046560.3714
 96  4 18  2 21  0.0000000  0  7 16 20  5  6 26 23 17
  21922914.939     1002896.92849   1096668.65349  21922918.2194   21922924.0484
  21976694.513     5061229.42849   3953177.42149  21976697.7474   21976704.6934
  23766539.180    17333953.01749  13501655.01349  23766542.2194   23766549.2164
  20355695.454   -13284706.95449 -10334639.42049  20355698.3504   20355703.3984
  23469881.275    -9940066.35249  -7732135.24649  23469884.5584   23469890.2914
  23392566.025    -9809705.56849  -7628010.25549  23392570.0504   23392576.6144
  22035979.265   -17752508.87849 -13816285.75549  22035984.2404   22035990.3924
 96  4 18  2 21 30.0000000  0  7 16 20  5  6 26 23 17
  21936069.629     1072029.62849   1150538.28249  21936073.9184   21936079.3524
  21992375.285     5143637.74249   4017391.65749  21992379.0624   21992386.2414
  23786560.410    17439166.57849  13583639.59649  23786564.7754   23786572.0924
  20350939.585   -13309699.26449 -10354113.94349  20350942.5204   20350947.6124
  23455212.253   -10017160.21549  -7792208.36249  23455214.2244   23455219.3674
  23373678.373    -9908963.81549  -7705354.30449  23373681.0274   23373688.0654
  22025455.905   -17807818.79149 -13859384.33249  22025459.5374   22025465.1354
 96  4 18  2 22  0.0000000  0  7 16 20  5  6 26 23 17
  21949306.526     1141584.24249   1204736.68149  21949308.9324   21949314.8434
  22008126.327     5226407.38349   4081887.45849  22008130.0024   22008136.9824
  23806602.570    17544469.40249  13665693.68449  23806602.7254   23806609.4844
  20346250.219   -13334335.72749 -10373311.18249  20346254.4344   20346259.4214
  23440581.641   -10094044.94449  -7852118.51449  23440583.2904   23440589.3124
  23354837.003   -10007983.93249  -7782512.79449  23354838.2844   23354845.5414
  22014976.450   -17862886.39849 -13902294.13049  22014980.1484   22014985.8294
 96  4 18  2 22 30.0000000  0  7 16 20  5  6 26 23 17
  21962610.556     1211505.99949   1259221.16149  21962615.2404   21962620.9954
  22023936.488     5309486.91149   4146624.71049  22023939.6324   22023945.8124
  23826646.006    17649816.66249  13747782.45349  23826650.4394   23826657.1334
  20341626.304   -13358631.72149 -10392243.12049  20341630.9764   20341636.4444
  23425976.842   -10170767.43549  -7911902.25649  23425983.5834   23425990.0934
  23336026.573   -10106814.70849  -7859523.75749  23336031.4694   23336038.1454
  22004532.048   -17917770.27049 -13945060.76449  22004535.7394   22004542.4254
 96  4 18  2 23  0.0000000  0  7 16 20  5  6 26 23 17
  21975989.349     1281804.43449   1313999.15349  21975992.5704   21975998.0034
  22039807.471     5392893.34849   4211616.70749  22039811.1324   22039817.4294
  23846705.947    17755221.81949  13829916.29749  23846707.4024   23846715.3834
  20337076.750   -13382544.84049 -10410876.71849  20337080.5514   20337085.6274
  23411414.052   -10247311.77749  -7971547.18649  23411417.5294   23411424.3814
  23317263.417   -10205427.14649  -7936364.58349  23317266.0104   23317272.7734
  21994123.970   -17972466.31249 -13987681.01449  21994127.7424   21994134.0774
 96  4 18  2 23 30.0000000  0  7 16 20  5  6 26 23 17
  21989428.478     1352428.87649   1369031.18649  21989432.1184   21989437.5614
  22055737.129     5476605.09949   4276846.60949  22055740.3994   22055747.7884
  23866768.583    17860655.29449  13912072.20649  23866771.2894   23866776.9044
  20332600.635   -13406069.72749 -10429207.79649  20332604.0574   20332608.9594
  23396879.129   -10323694.45749  -8031066.14249  23396882.8634   23396888.0274
  23298537.624   -10303831.29049  -8013043.10349  23298540.0784   23298547.1154
  21983745.633   -18027003.65349 -14030177.60249  21983749.3474   21983755.3394
 96  4 18  2 24  0.0000000  0  7 16 20  5  6 26 23 17
  22002930.430     1423375.12949   1424313.97849  22002932.7284   22002938.2684
  22071726.254     5560625.05249   4342316.66849  22071729.5624   22071735.3404
  23886835.115    17966118.49649  13994251.31949  23886840.3424   23886847.4764
  20328200.210   -13429195.14749 -10447227.60149  20328203.3424   20328208.4364
  23382376.970   -10399900.75549  -8090447.65449  23382380.9754   23382385.6834
  23279849.204   -10402039.68349  -8089569.09649  23279852.0944   23279859.3174
  21973396.519   -18081392.08249 -14072558.13349  21973399.6594   21973405.8304
 96  4 18  2 24 30.0000000  0  7 16 20  5  6 26 23 17
  22016489.469     1494637.40949   1479843.02949  22016493.0174   22016498.9014
  22087771.631     5644938.73049   4408015.57649  22087774.0754   22087780.0394
  23906909.759    18071586.17649  14076433.88249  23906910.4164   23906917.6574
  20323868.611   -13451958.48849 -10464965.26049  20323871.6924   20323876.7874
  23367907.210   -10475930.52649  -8149691.59049  23367913.0694   23367917.9734
  23261193.165   -10500077.18349  -8165961.91249  23261196.0324   23261202.5164
  21963073.084   -18135638.89149 -14114828.34349  21963076.9024   21963083.2224
 96  4 18  2 25  0.0000000  0  7 16 20  5  6 26 23 17
  22030117.484     1566245.91449   1535641.86649  22030119.9014   22030125.8994
  22103871.526     5729548.36649   4473945.14649  22103874.5904   22103881.0174
  23926979.089    18177067.98949  14158627.46349  23926982.4824   23926989.5314
  20319606.185   -13474352.69349 -10482415.28549  20319609.8884   20319615.1384
  23353478.718   -10551762.79549  -8208781.65549  23353483.0204   23353487.3224
  23242572.994   -10597926.27749  -8242207.92349  23242576.7754   23242582.1954
  21952783.215   -18189713.69649 -14156964.50149  21952786.6914   21952793.3814
 96  4 18  2 25 30.0000000  0  7 16 20  5  6 26 23 17
  22043813.904     1638229.62049   1591733.06449  22043817.6214   22043823.4074
  22120029.965     5814462.69649   4540112.13849  22120033.2034   22120040.0584
  23947057.047    18282578.88349  14240843.71649  23947060.5524   23947068.3864
  20315418.547   -13496364.16549 -10499567.07849  20315421.8514   20315426.4974
  23339088.927   -10627383.59849  -8267706.91949  23339092.7184   23339098.2674
  23223991.501   -10695566.49449  -8318291.17349  23223995.0374   23224001.2964
  21942531.457   -18243587.17349 -14198943.80449  21942534.7594   21942540.6224
 96  4 18  2 26  0.0000000  0  7 16 20  5  6 26 23 17
  22057585.721     1710601.57149   1648126.79249  22057589.6724   22057595.7734
  22136246.554     5899678.86849   4606514.30549  22136249.8414   22136256.5524
  23967141.359    18388125.55849  14323087.85749  23967145.9514   23967153.1474
  20311299.381   -13518003.08949 -10516428.57849  20311303.4804   20311308.6984
  23324740.938   -10702786.08049  -8326462.08549  23324744.4334   23324749.1914
  23205451.205   -10793000.69649  -8394213.91349  23205454.4544   23205460.7804
  21932320.591   -18297240.08949 -14240751.21949  21932324.8534   21932330.5204
 96  4 18  2 26 30.0000000  0  7 16 20  5  6 26 23 17
  22071433.192     1783360.16349   1704821.80049  22071435.5044   22071440.8824
  22152520.271     5985198.03249   4673152.58949  22152523.0454   22152530.0434
  23987234.367    18493712.28549  14405363.18649  23987238.4964   23987246.1614
  20307253.635   -13539264.62549 -10532996.00649  20307257.5264   20307262.6484
  23310433.036   -10777963.61749  -8385041.97149  23310438.0384   23310442.5654
  23186951.118   -10890216.58849  -8469966.52849  23186954.9444   23186960.4124
  21922157.688   -18350652.04049 -14282370.88649  21922161.1494   21922166.8294
 96  4 18  2 27  0.0000000  0  7 16 20  5  6 26 23 17
  22085350.308     1856507.57949   1761819.78549  22085354.9404   22085360.3534
  22168851.788     6071023.18949   4740029.31549  22168855.2344   22168862.0484
  24007337.400    18599353.03649  14487680.62349  24007341.3684   24007347.6504
  20303281.409   -13560140.70049 -10549263.07249  20303284.9694   20303290.2544
  23296170.265   -10852918.85549  -8443448.62749  23296174.6914   23296179.4324
  23168496.912   -10987197.24149  -8545535.84149  23168499.7214   23168505.9454
  21912038.238   -18403831.33449 -14323809.25249  21912041.6644   21912047.7594
 96  4 18  2 27 30.0000000  0  7 16 20  5  6 26 23 17
  22099341.396     1930022.30549   1819103.99849  22099344.4904   22099349.7064
  22185240.689     6157152.85749   4807143.30249  22185245.1024   22185251.7894
  24027453.219    18705045.86349  14570038.63949  24027453.5174   24027460.2534
  20299381.293   -13580633.70449 -10565231.64349  20299385.2634   20299390.3374
  23281951.223   -10927638.08149  -8501671.35349  23281955.5394   23281960.4874
  23150089.387   -11083938.25849  -8620918.43249  23150090.2134   23150097.7654
  21901959.905   -18456792.16849 -14365077.38249  21901962.9014   21901968.9164
 96  4 18  2 28  0.0000000  0  7 16 20  5  6 26 23 17
  22113397.215     2003880.91049   1876656.15649  22113399.0024   22113404.9424
  22201684.301     6243559.44349   4874473.09049  22201687.6174   22201694.1634
  24047568.556    18810764.29649  14652416.61449  24047571.5964   24047577.1234
  20295551.748   -13600764.60949 -10580918.06049  20295554.5224   20295559.7134
  23267778.710   -11002114.73949  -8559705.07749  23267783.8434   23267787.9954
  23131717.298   -11180469.76749  -8696137.76949  23131721.4454   23131728.5154
  21891917.170      -18824.39819
 96  4 18  2 28 30.0000000  0  7 16 20  5  6 26 23 17
  22127520.879     2078100.36949   1934489.50249  22127522.3694   22127528.5684
  22218181.871     6330249.12549   4942023.45649  22218184.7514   22218191.0794
  24067691.837    18916513.75749  14734818.78149  24067695.3914   24067702.3714
  20291792.502   -13620518.69149 -10596310.85049  20291795.6964   20291800.8984
  23253661.134   -11076313.39549  -8617522.18749  23253664.0484   23253669.5414
  23113394.260   -11276758.45449  -8771167.88149  23113398.0344   23113405.9174
  21881908.067      -71417.75759    -44109.22159  21881911.6164   21881917.9744
 96  4 18  2 29  0.0000000  0  7 16 20  5  6 26 23 17
  22141704.436     2152652.23649   1992581.86349  22141709.5734   22141714.6704
  22234726.538     6417197.20649   5009775.18949  22234730.1984   22234736.2054
  24087818.841    19022257.95549  14817216.78049  24087817.8284   24087825.2264
  20288101.928   -13639908.53049 -10611419.81449  20288105.9194   20288110.7494
  23239591.125   -11150245.53149  -8675131.60149  23239594.8734   23239600.7184
  23095114.561   -11372820.20449  -8846021.15949  23095118.7344   23095125.2874
  21871927.770     -123856.64449    -84970.65549  21871932.9194   21871938.8674
 96  4 18  2 29 30.0000000  0  7 16 20  5  6 26 23 17
  22155959.916     2227552.98249   2050946.07749  22155962.2544   22155967.8754
  22251325.086     6504424.54849   5077744.52949  22251328.6334   22251335.4904
  24107935.840    19127999.82149  14899613.02549  24107938.5044   24107944.9614
  20284489.844   -13658895.43649 -10626214.80049  20284492.6674   20284498.0704
  23225576.526   -11223880.63649  -8732509.58049  23225582.1614   23225588.0004
  23076883.301   -11468634.55349  -8920681.67449  23076884.9224   23076892.4554
  21861985.519     -176103.73859   -125682.65859  21861990.9584   21861996.6574
 96  4 18  2 30  0.0000000  0  8 16 20  5  6 26 23 17 22
  22170271.663     2302761.66249   2109550.24349  22170273.9784   22170279.7284
  22267973.220     6591904.32049   5145910.53749  22267975.7084   22267981.9144
  24128054.804    19233697.86449  14981975.06949  24128053.2734   24128058.1404
  20280948.620   -13677500.84649 -10640712.51849  20280952.0104   20280957.3844
  23211614.033   -11297268.68849  -8789695.05749  23211617.2394   23211622.8454
  23058692.992   -11564223.40949  -8995166.45949  23058695.3454   23058702.9254
  21852074.372     -228189.66649   -166269.07149  21852078.8654   21852084.8184
  24639044.863    -4359800.76159  -3374612.14459  24639049.1354   24639056.8464
 96  4 18  2 30 30.0000000  0  8 16 20  5  6 26 23 17 22
  22184638.707     2378273.59049   2168390.69749  22184643.3074   22184649.2364
  22284670.625     6679653.56549   5214286.54749  22284673.9964   22284679.6954
  24148158.461    19339371.54349  15064318.17949  24148161.7924   24148168.1784
  20277485.600   -13695698.05049 -10654892.15749  20277489.4104   20277494.4684
  23197693.734   -11370418.13549  -8846694.60949  23197697.6194   23197702.5464
  23040549.673   -11659559.34249  -9069454.18949  23040553.5294   23040559.6554
  21842197.951     -280094.77349   -206714.58749  21842201.8114   21842208.0254
  24624772.353    -4434821.32349  -3433069.70649  24624774.0244   24624779.8134
 96  4 18  2 31  0.0000000  0  8 16 20  5  6 26 23 17 22
  22199071.750     2454114.81549   2227487.75049  22199075.4094   22199081.3984
  22301422.793     6767685.05849   5282882.49549  22301425.3184   22301431.7994
  24168270.408    19445040.24049  15146657.36649  24168270.9824   24168276.8084
  20274105.417   -13713464.78549 -10668736.36749  20274108.6164   20274113.7134
  23183819.442   -11443331.16649  -8903509.93349  23183821.9414   23183827.1624
  23022456.162   -11754637.91149  -9143541.34549  23022460.9174   23022467.3734
  21832360.631     -331792.31449   -246998.38449  21832363.9044   21832369.9604
  24610571.591    -4509443.31349  -3491216.66649  24610572.9754   24610579.1144
 96  4 18  2 31 30.0000000  0  8 16 20  5  6 26 23 17 22
  22213567.933     2530286.36549   2286842.20349  22213570.9734   22213576.2744
  22318224.657     6855977.58949   5351681.81249  22318227.9234   22318234.2804
  24188372.238    19550699.50849  15228989.20649  24188377.3514   24188383.3554
  20270801.509   -13730823.97649 -10682263.00649  20270805.2534   20270810.3074
  23169983.146   -11516032.12549  -8960160.00149  23169987.2924   23169993.6604
  23004411.638   -11849470.00249  -9217436.45049  23004415.5474   23004421.0274
  21822558.473     -383302.93849   -287136.51849  21822562.0034   21822567.7014
  24596441.894    -4583690.14949  -3549071.31149  24596444.7514   24596450.8034
 96  4 18  2 32  0.0000000  0  8 16 20  5  6 26 23 17 22
  22228126.002     2606792.66849   2346457.50449  22228129.6124   22228135.1334
  22335074.578     6944525.46849   5420680.13349  22335077.4934   22335083.4174
  24208476.532    19656362.35949  15311323.86249  24208484.8034   24208488.3314
  20267574.768   -13747782.72049 -10695477.61049  20267578.1614   20267583.1514
  23156190.374   -11588513.43049  -9016638.91349  23156195.3644   23156200.3154
  22986411.052   -11944064.98749  -9291146.79549  22986413.8694   22986420.3034
  21812789.889     -434631.54449   -327132.81249  21812794.4644   21812800.3804
  24582381.207    -4657558.26849  -3606630.85649  24582386.9614   24582394.4884
 96  4 18  2 32 30.0000000  0  8 16 20  5  6 26 23 17 22
  22242758.491     2683684.66849   2406373.34549  22242761.5124   22242766.6944
  22351976.003     7033348.14049   5489892.54849  22351979.9234   22351986.6104
  24228590.501    19762061.25049  15393686.62649  24228596.9804   24228604.1614
  20264426.104   -13764329.22549 -10708370.98549  20264429.4204   20264434.4494
  23142447.410   -11660737.97449  -9072917.76149  23142451.5694   23142456.8544
  22968453.241   -12038424.27349  -9364673.48649  22968457.8844   22968464.4424
  21803063.877     -485750.27049   -366965.55949  21803066.9674   21803073.1064
  24568404.162    -4731036.85749  -3663886.87049  24568406.3584   24568411.4944
 96  4 18  2 33  0.0000000  0  8 16 20  5  6 26 23 17 22
  22257460.904     2760950.27949   2466580.31449  22257464.7174   22257469.8994
  22368926.256     7122422.05349   5559300.75349  22368929.9674   22368936.7434
  24248705.490    19867767.85349  15476055.30749  24248713.1964   24248720.2254
  20261349.549   -13780497.11149 -10720969.33349  20261352.9924   20261358.1284
  23128749.636   -11732712.71549  -9129001.94649  23128754.8574   23128760.6784
  22950539.001   -12132566.69849  -9438031.19049  22950543.0174   22950549.9104
  21793372.671     -536672.60649   -406645.28649  21793376.4864   21793382.2704
  24554488.950    -4804156.13649  -3720862.91949  24554490.9124   24554498.5174
 96  4 18  2 33 30.0000000  0  8 16 20  5  6 26 23 17 22
  22272229.952     2838565.05949   2527059.36349  22272234.2384   22272239.2964
  22385925.080     7211755.56949   5628911.26849  22385929.9374   22385936.6794
  24268824.432    19973472.47349  15558422.51449  24268827.0574   24268835.1574
  20258344.966   -13796287.12849 -10733273.24149  20258347.9994   20258352.6064
  23115105.557   -11804420.69349  -9184878.26449  23115110.0984   23115114.8004
  22932668.117   -12226482.54649  -9511212.34549  22932671.9254   22932678.5304
  21783718.733     -587407.19949   -446178.71549  21783722.0674   21783727.8304
  24540643.751    -4876912.00849  -3777555.77949  24540646.5414   24540652.2774
 96  4 18  2 34  0.0000000  0  8 16 20  5  6 26 23 17 22
  22287062.413     2916505.15849   2587791.91149  22287065.7024   22287070.9044
  22402976.800     7301347.47549   5698723.13549  22402978.1194   22402985.5264
  24288937.149    20079158.96249  15640775.61649  24288939.2254   24288944.0254
  20255411.345   -13811696.45149 -10745280.50349  20255415.5654   20255420.6794
  23101511.896   -11875851.84449  -9240538.89349  23101516.5884   23101521.9634
  22914839.824   -12320179.79949  -9584223.17149  22914841.9854   22914848.4814
  21774098.961     -637954.57549   -485566.26449  21774102.9664   21774109.3064
  24526868.486    -4949301.31349  -3833963.00249  24526871.1394   24526877.5874
 96  4 18  2 34 30.0000000  0  8 16 20  5  6 26 23 17 22
  22301956.277     2994769.59949   2648777.18649  22301958.5204   22301964.3144
  22420073.781     7391204.13249   5768741.29349  22420077.5664   22420084.1174
  24309041.578    20184823.79749  15723111.83449  24309046.6084   24309052.3604
  20252554.109   -13826715.58049 -10756983.71849  20252557.7584   20252562.7524
  23087975.646   -11946996.95349  -9295976.63049  23087978.0924   23087983.8854
  22897055.287   -12413631.14149  -9657042.36949  22897058.7204   22897065.3714
  21764518.122     -688310.95249   -524804.99049  21764520.7324   21764526.9794
  24513167.628    -5021305.99049  -3890070.53049  24513168.8004   24513175.7564
 96  4 18  2 35  0.0000000  0  8 16 20  5  6 26 23 17 22
  22316901.018     3073310.10049   2709977.57749  22316904.3124   22316910.1674
  22437218.670     7481297.29049   5838943.72449  22437221.5904   22437228.5774
  24329141.867    20290432.24549  15805404.07149  24329144.8864   24329149.8894
  20249768.443   -13841353.16949 -10768389.62949  20249772.3664   20249777.2924
  23074487.188   -12017872.63349  -9351204.42549  23074490.8454   23074496.1484
  22879321.228   -12506824.31549  -9729660.40049  22879324.4714   22879331.1064
  21754967.395     -738496.64049   -563910.71849  21754970.7984   21754976.9564
  24499532.759    -5092944.39049  -3945892.60649  24499536.6344   24499543.4844
 96  4 18  2 35 30.0000000  0  8 16 20  5  6 26 23 17 22
  22331896.991     3152121.43349   2771389.01049  22331901.8714   22331907.7934
  22454407.558     7571632.05249   5909334.43149  22454411.8884   22454418.4904
  24349226.267    20395994.04149  15887659.98449  24349230.8154   24349237.1694
  20247061.234   -13855580.03949 -10779475.49849  20247064.7354   20247070.2854
  23061051.292   -12088474.46249  -9406218.82149  23061055.8824   23061061.2234
  22861637.119   -12599749.89349  -9802069.90849  22861641.1774   22861648.3464
  21745448.771     -788508.64149   -602881.09849  21745453.3104   21745459.6314
  24485971.728    -5164211.59849  -4001425.48249  24485974.8124   24485980.9244
 96  4 18  2 36  0.0000000  0  8 16 20  5  6 26 23 17 22
  22346952.520     3231222.90649   2833026.52449  22346954.1294   22346960.0944
  22471645.949     7662210.56349   5979915.06949  22471648.9804   22471654.9894
  24369310.579    20501527.34849  15969893.67349  24369313.1584   24369319.8874
  20244435.588   -13869378.00349 -10790227.15949  20244439.1904   20244444.3794
  23047669.736   -12158797.29649  -9461015.81049  23047673.3944   23047678.5704
  22844007.415   -12692396.66649  -9874262.18449  22844010.6984   22844018.3824
  21735969.081     -838325.60149   -641699.51349  21735973.7164   21735979.7504
  24472484.883    -5235100.85149  -4056663.84649  24472486.0684   24472493.0174
 96  4 18  2 36 30.0000000  0  8 16 20  5  6 26 23 17 22
  22362060.733     3310620.52649   2894894.80349  22362063.1494   22362068.7304
  22488927.974     7753034.48649   6050686.93549  22488931.9454   22488938.0314
  24389394.391    20607044.48149  16052114.76449  24389392.6724   24389399.1184
  20241891.258   -13882748.07549 -10800645.39449  20241894.7984   20241900.0914
  23034339.010   -12228845.11349  -9515598.50149  23034343.7344   23034348.5084
  22826433.070   -12784754.09549  -9946228.98049  22826435.9074   22826443.0594
  21726527.531     -887946.18949   -680364.90949  21726531.8174   21726537.5564
  24459067.122    -5305608.62949  -4111604.94049  24459068.1834   24459073.6234
 96  4 18  2 37  0.0000000  0  8 16 20  5  6 26 23 17 22
  22377225.842     3390313.36349   2956993.11349  22377228.2854   22377234.1634
  22506256.111     7844095.16149   6121643.27049  22506259.9794   22506266.7414
  24409466.792    20712545.85849  16134323.58849  24409469.2104   24409474.6364
  20239426.100   -13895696.94749 -10810735.42849  20239430.6454   20239435.9634
  23021060.393   -12298629.37549  -9569975.81549  23021065.2094   23021069.7124
  22808911.117   -12876829.64749 -10017976.14349  22808914.5144   22808921.5874
  21717120.900     -937373.50749   -718879.71149  21717125.6174   21717131.8204
  24445715.787    -5375750.17949  -4166260.64449  24445719.9544   24445726.4694
 96  4 18  2 37 30.0000000  0  8 16 20  5  6 26 23 17 22
  22392446.012     3470300.31249   3019320.60149  22392449.0604   22392454.8854
  22523628.169     7935376.89149   6192771.86149  22523630.1564   22523636.7344
  24429532.314    20818028.54449  16216517.85349  24429541.6564   24429548.1074
  20237039.523   -13908242.46849 -10820511.15049  20237043.6434   20237049.0114
  23007832.371   -12368154.70349  -9624151.37749  23007834.2814   23007839.2214
  22791436.968   -12968655.83449 -10089529.00149  22791440.6384   22791447.2104
  21707750.243     -986623.23149   -757256.12349  21707753.8744   21707759.7964
  24432440.975    -5445528.35549  -4220633.22649  24432441.0734   24432447.3774
 96  4 18  2 38  0.0000000  0  8 16 20  5  6 26 23 17 22
  22407732.303     3550627.83249   3081913.46349  22407735.1714   22407740.9084
  22541047.669     8026918.27849   6264102.77849  22541050.0984   22541055.6804
  24449614.257    20923526.40349  16298723.93549  24449616.8264   24449624.7394
  20234732.561   -13920367.54349 -10829959.26349  20234736.2054   20234741.1944
  22994658.843   -12437369.56949  -9678085.02249  22994663.3294   22994668.4064
  22774014.540   -13060212.30349 -10160871.67749  22774017.3674   22774024.9674
  21698416.077    -1035673.29349   -795476.95449  21698420.1124   21698425.6784
  24419236.513    -5514891.75749  -4274682.58049  24419242.2964   24419246.7894
 96  4 18  2 38 30.0000000  0  8 16 20  5  6 26 23 17 22
  22423082.490     3631294.01649   3144770.22649  22423085.4234   22423091.0904
  22558515.105     8118706.96449   6335626.39749  22558517.2064   22558522.3904
  24469690.529    21029020.33849  16380926.96349  24469693.3024   24469700.3284
  20232503.199   -13932080.51449 -10839086.25049  20232506.9974   20232512.6434
  22981551.282   -12506265.09049  -9731769.83049  22981553.3504   22981558.0754
  22756642.984   -13151503.83849 -10232007.91849  22756645.7604   22756652.8674
  21689118.209    -1084535.47849   -833551.37049  21689121.7624   21689127.5084
  24406117.595    -5583850.45649  -4328416.62049  24406120.3034   24406124.5224
 96  4 18  2 39  0.0000000  0  8 16 20  5  6 26 23 17 22
  22438492.123     3712277.11249   3207873.92049  22438496.2194   22438501.7684
  22576022.280     8210707.14549   6407314.82649  22576024.3344   22576029.3904
  24489751.767    21134458.82949  16463086.79349  24489757.4224   24489765.3984
  20230349.628   -13943396.15049 -10847903.62949  20230353.7494   20230359.0954
  22968496.279   -12574845.90649  -9785209.40149  22968501.4594   22968507.5784
  22739313.258   -13242563.85049 -10302963.74649  22739317.2054   22739324.1094
  21679850.097    -1133236.07649   -871499.88049  21679853.9234   21679860.0604
  24393067.604    -5652436.97249  -4381860.64049  24393068.1454   24393074.0554
 96  4 18  2 39 30.0000000  0  8 16 20  5  6 26 23 17 22
  22453963.158     3793572.96849   3271221.33649  22453965.8714   22453971.6014
  22593569.164     8302927.09449   6479174.48049  22593573.1404   22593578.2384
  24509805.338    21239841.60849  16545203.16849  24509811.1404   24509818.4164
  20228277.020   -13954292.39049 -10856394.20449  20228280.5964   20228285.6174
  22955510.491   -12643091.54749  -9838387.79349  22955515.4754   22955520.8504
  22722030.372   -13333388.01049 -10373735.78849  22722033.9594   22722040.5374
  21670615.123    -1181767.58549   -909316.62749  21670619.0384   21670625.2504
  24380086.197    -5720640.35849  -4435006.12649  24380090.9764   24380096.6104
 96  4 18  2 40  0.0000000  0  8 16 20  5  6 26 23 17 22
  22469491.128     3875181.40749   3334812.32249  22469496.0624   22469501.2484
  22611162.054     8395377.11249   6551213.42549  22611165.6794   22611172.1444
  24529841.342    21345155.69849  16627265.99749  24529850.9054   24529859.5754
  20226286.284   -13964747.70149 -10864541.20749  20226290.8604   20226295.9494
  22942588.834   -12710996.39649  -9891300.63849  22942593.2894   22942598.7994
  22704796.361   -13423955.33949 -10444307.70949  22704799.9084   22704806.3874
  21661415.578    -1230117.20249   -946991.65049  21661418.7334   21661424.5544
  24367179.882    -5788464.22449  -4487855.85949  24367182.4504   24367189.0124
 96  4 18  2 40 30.0000000  0  8 16 20  5  6 26 23 17 22
  22485076.417     3957072.91749   3398623.87949  22485079.0564   22485084.4644
  22628792.091     8488025.05849   6623406.61149  22628795.6684   22628802.4794
  24549866.884    21450374.96349  16709254.93449  24549874.2874   24549881.1734
  20224380.492   -13974768.42549 -10872349.55849  20224384.0844   20224389.4484
  22929728.210   -12778589.04949  -9943970.22249  22929731.2254   22929736.1634
  22687612.684   -13514257.83849 -10514673.27449  22687615.3174   22687622.7164
  21652248.338    -1278286.92849   -984526.49549  21652252.1554   21652257.8124
  24354340.189    -5855928.76949  -4540425.58349  24354345.4904   24354350.3024
 96  4 18  2 41  0.0000000  0  8 16 20  5  6 26 23 17 22
  22500713.566     4039247.93849   3462656.35349  22500717.1124   22500722.0494
  22646464.507     8580894.11049   6695772.07149  22646467.9544   22646475.3024
  24569883.327    21555545.99049  16791206.34849  24569887.5694   24569894.8724
  20222562.505   -13984322.09049 -10879793.97749  20222566.1164   20222570.8904
  22916926.716   -12845858.84449  -9996388.22549  22916930.6254   22916935.1584
  22670485.522   -13604259.44249 -10584804.37649  22670488.9394   22670495.5974
  21643123.423    -1326236.43649  -1021889.74949  21643127.3334   21643132.9784
  24341583.555    -5922974.48449  -4592668.96949  24341587.4144   24341592.6824
 96  4 18  2 41 30.0000000  0  8 16 20  5  6 26 23 17 22
  22516394.670     4121652.17449   3526867.44549  22516397.9624   22516403.0444
  22664173.584     8673946.65049   6768280.50749  22664175.3554   22664182.3324
  24589881.121    21660657.40449  16873111.26249  24589888.2854   24589895.7344
  20220824.640   -13993454.09849 -10886909.82649  20220828.2754   20220833.3024
  22904176.665   -12912851.27849 -10048590.09549  22904181.4244   22904186.5134
  22653413.696   -13693975.11249 -10654712.67449  22653416.8024   22653423.3844
  21634035.093    -1373995.90749  -1059104.92049  21634039.1354   21634044.5964
  24328907.670    -5989604.39949  -4644588.35649  24328908.4414   24328913.6454
 96  4 18  2 42  0.0000000  0  8 16 20  5  6 26 23 17 22
  22532121.180     4204293.14949   3591263.00549  22532123.9014   22532128.9884
  22681913.029     8767178.84149   6840928.95249  22681917.0194   22681923.3334
  24609882.383    21765714.71049  16954974.03049  24609881.8754   24609888.3084
  20219164.160   -14002177.10649 -10893706.97949  20219168.5324   20219173.4624
  22891483.021   -12979553.92849 -10100566.15849  22891488.3684   22891494.1084
  22636396.246   -13783395.99449 -10724391.25849  22636400.5144   22636407.1834
  21624983.670    -1421564.22449  -1096171.12749  21624987.0314   21624992.9524
  24316308.992    -6055794.61049  -4696165.12449  24316311.9114   24316317.8024
 96  4 18  2 42 30.0000000  0  8 16 20  5  6 26 23 17 22
  22547888.058     4287153.99149   3655829.89049  22547891.6314   22547897.4204
  22699681.419     8860558.40749   6913692.25149  22699686.2564   22699693.8064
  24629860.515    21870723.07649  17036798.62649  24629862.0414   24629871.7324
  20217579.882   -14010509.51149 -10900199.76149  20217583.0214   20217587.9784
  22878844.202   -13045976.21449 -10152323.78149  22878849.4024   22878853.6934
  22619434.755   -13872536.53049 -10793851.38649  22619437.2554   22619443.9724
  21615965.004    -1468953.64049  -1133097.94149  21615969.6254   21615975.2824
  24303799.298    -6121543.65649  -4747398.10249  24303800.8954   24303805.7844
 96  4 18  2 43  0.0000000  0  8 16 20  5  6 26 23 17 22
  22563705.625     4370270.35149   3720595.87749  22563708.0034   22563713.5564
  22717487.797     8954116.51649   6986594.65449  22717489.9854   22717497.0214
  24649835.924    21975708.54349  17118605.38549  24649841.4814   24649849.1964
  20216073.273   -14018423.11649 -10906366.21249  20216076.9494   20216081.9414
  22866266.284   -13112069.51849 -10203825.03149  22866271.8174   22866276.5864
  22602527.080   -13961381.19749 -10863080.97949  22602530.5944   22602537.7714
  21606988.211    -1516134.57449  -1169862.29549  21606991.1174   21606997.1064
  24291375.249    -6186826.95849  -4798268.19549  24291377.1514   24291382.6594
 96  4 18  2 43 30.0000000  0  8 16 20  5  6 26 23 17 22
  22579572.863     4453650.08649   3785567.08849  22579574.6984   22579580.2304
  22735320.640     9047842.63949   7059627.94249  22735325.2944   22735332.8254
  24669811.096    22080630.80349  17200362.87149  24669807.4204   24669814.2294
  20214640.883   -14025943.90949 -10912226.56949  20214645.3634   20214650.6544
  22853753.434   -13177830.19649 -10255067.10549  22853758.6324   22853762.5094
  22585671.230   -14049958.68349 -10932102.37049  22585675.2604   22585682.2024
  21598041.136    -1563141.40949  -1206490.97049  21598045.7614   21598051.7014
  24279027.871    -6251695.06249  -4848814.72949  24279032.3274   24279037.9354
 96  4 18  2 44  0.0000000  0  7 16 20  6 26 23 17 22
  22595495.705     4537332.89249   3850774.47049  22595499.0924   22595504.9624
  22753194.047     9141760.36749   7132810.53349  22753197.4974   22753203.9574
  20213290.600   -14033045.77549 -10917760.48749  20213294.1374   20213299.1324
  22841307.192   -13243243.95849 -10306038.84649  22841310.0574   22841314.2234
  22568866.647   -14138272.49049 -11000918.29049  22568869.8054   22568876.3204
  21589133.140    -1609956.84149  -1242970.50849  21589137.0194   21589142.7254
  24266765.784    -6316171.15649  -4899055.79149  24266764.2704   24266768.3894
 96  4 18  2 44 30.0000000  0  7 16 20  6 26 23 17 22
  22611475.777     4621313.81949   3916214.14449  22611479.8094   22611485.7334
  22771102.704     9235874.75849   7206146.37849  22771106.5424   22771113.8944
  20212018.385   -14039725.77249 -10922965.68849  20212023.0404   20212028.2614
  22828923.791   -13308321.59849 -10356748.68149  22828926.6974   22828931.3614
  22552110.769   -14226320.80349 -11069527.33649  22552114.4744   22552120.9314
  21580262.190    -1656576.69549  -1279297.65649  21580265.7444   21580271.3194
  24254564.585    -6380265.28649  -4948999.23149  24254567.6944   24254573.4744
 96  4 18  2 45  0.0000000  0  7 16 20  6 26 23 17 22
  22627510.957     4705577.03649   3981873.78349  22627514.9604   22627520.3004
  22789052.939     9330196.54549   7279643.87149  22789055.9334   22789062.5364
  20210825.298   -14046000.28149 -10927854.91649  20210829.5754   20210834.2644
  22816599.385   -13373075.41349 -10407206.17249  22816603.8264   22816609.2134
  22535406.792   -14314104.05249 -11137929.84449  22535409.6264   22535416.5734
  21571424.412    -1703020.92549  -1315487.96649  21571427.5314   21571434.0104
  24242434.645    -6443993.53649  -4998657.58349  24242440.8744   24242446.9494
 96  4 18  2 45 30.0000000  0  7 16 20  6 26 23 17 22
  22643600.050     4790123.50949   4047754.14149  22643603.2444   22643609.4484
  22807042.550     9424725.94549   7353303.15949  22807044.4214   22807051.0564
  20209712.341   -14051850.85749 -10932413.80749  20209715.8544   20209720.9364
  22804339.815   -13437507.40749 -10457412.90349  22804342.6704   22804348.2534
  22518752.540   -14401609.15449 -11206115.60649  22518758.1794   22518765.0854
  21562619.562    -1749290.99549  -1351542.57349  21562622.5984   21562628.7694
  24230383.205    -6507332.84249  -5048012.87449  24230386.3764   24230393.2714
 96  4 18  2 46  0.0000000  0  7 16 20  6 26 23 17 22
  22659738.556     4874936.56049   4113842.21849  22659742.5664   22659748.1544
  22825065.193     9519451.30449   7427115.12049  22825070.1394   22825076.5514
  20208682.784   -14057257.85449 -10936627.04749  20208687.2404   20208692.1834
  22792138.353   -13501620.58249 -10507371.19149  22792142.6494   22792147.3644
  22502158.058   -14488821.55549 -11274073.30049  22502162.0974   22502169.1374
  21553848.580    -1795377.29649  -1387453.96149  21553852.8784   21553859.0624
  24218409.111    -6570265.48849  -5097051.26449  24218410.7524   24218418.1524
 96  4 18  2 46 30.0000000  0  7 16 20  6 26 23 17 22
  22675926.483     4960000.91749   4180126.11549  22675930.2224   22675935.4044
  22843124.715     9614343.58749   7501057.12449  22843127.4094   22843133.4824
  20207738.869   -14062222.83349 -10940495.86449  20207742.4644   20207747.3574
  22779999.401   -13565405.52949 -10557073.73149  22780004.3474   22780009.3144
  22485618.873   -14575732.99349 -11341796.47549  22485623.6874   22485630.0284
  21545112.481    -1841294.42849  -1423233.52249  21545115.0614   21545121.2544
  24206511.478    -6632772.24349  -5145757.79549  24206516.1864   24206523.0544
 96  4 18  2 47  0.0000000  0  7 16 20  6 26 23 17 22
  22692166.810     5045338.60649   4246623.00949  22692169.0474   22692174.9524
  22861213.059     9709406.09149   7575131.74649  22861217.6574   22861223.9154
  20206884.168   -14066712.91649 -10943994.63449  20206887.8034   20206892.3724
  22767931.049   -13628826.39549 -10606492.57849  22767936.1904   22767940.9004
  22469139.058   -14662341.85049 -11409283.88449  22469142.2664   22469148.4294
  21536408.768    -1887024.90749  -1458867.66149  21536412.8534   21536418.7184
  24194701.979    -6694830.99849  -5194115.24749  24194705.9794   24194712.7024
 96  4 18  2 47 30.0000000  0  7 16 20  6 26 23 17 22
  22708454.615     5130947.19049   4313330.96849  22708459.8184   22708465.3824
  22879330.678     9804613.11149   7649318.98849  22879333.9204   22879340.9744
  20206119.021   -14070735.89249 -10947129.43149  20206122.3444   20206127.2594
  22755929.906   -13691887.30949 -10655630.91849  22755935.1264   22755940.2914
  22452711.793   -14748674.59049 -11476556.12049  22452714.0494   22452720.6064
  21527741.172    -1932578.23149  -1494363.76049  21527744.5584   21527750.1844
  24182980.413    -6756447.00949  -5242127.66249  24182982.6154   24182987.8454
 96  4 18  2 48  0.0000000  0  7 16 20  6 26 23 17 22
  22724795.505     5216813.41749   4380239.71249  22724799.9994   22724805.4794
  22897476.606     9899969.22149   7723622.41249  22897479.7744   22897486.4534
  20205437.571   -14074315.33449 -10949918.60449  20205441.0804   20205446.1634
  22744000.730   -13754584.31149 -10704485.70049  22744004.2414   22744009.7804
  22436331.208   -14834744.39749 -11543623.47049  22436335.6604   22436341.8004
  21519103.842    -1977960.08549  -1529726.22949  21519108.6754   21519114.2784
  24171335.638    -6817638.75849  -5289809.49649  24171338.1804   24171344.3284
 96  4 18  2 48 30.0000000  0  7 16 20  6 26 23 17 22
  22741184.890     5302934.80549   4447347.27549  22741187.9334   22741193.8194
  22915651.117     9995483.95249   7798049.45749  22915655.7884   22915662.8234
  20204839.653   -14077460.18949 -10952369.13949  20204842.5594   20204847.5464
  22732142.187   -13816908.40449 -10753049.91449  22732144.5994   22732149.2934
  22420003.118   -14920558.30749 -11610491.43149  22420006.0094   22420012.0434
  21510500.738    -2023169.82349  -1564954.57949  21510505.3164   21510511.4864
  24159773.191    -6878392.31649  -5337149.93149  24159777.2924   24159783.3004
 96  4 18  2 49  0.0000000  0  7 16 20  6 26 23 17 22
  22757617.205     5389275.49349   4514625.72249  22757618.2984   22757624.2254
  22933859.093    10091160.27049   7872602.39949  22933862.6744   22933868.9914
  20204318.780   -14080191.86249 -10954497.72049  20204322.6984   20204327.7204
  22720348.545   -13878877.41449 -10801337.44549  22720353.0144   22720358.2744
  22403719.041   -15006121.09749 -11677163.70749  22403723.5374   22403729.8684
  21501928.447    -2068216.54849  -1600055.92749  21501933.0884   21501939.3824
  24148292.652    -6938720.73749  -5384159.07449  24148296.5834   24148303.0444
 96  4 18  2 49 30.0000000  0  7 16 20  6 26 23 17 22
  22774083.220     5475823.89049   4582066.02249  22774088.1614   22774093.7434
  22952098.494    10187003.83149   7947285.66749  22952101.6664   22952108.3444
  20203879.408   -14082503.97549 -10956299.36249  20203882.9434   20203887.4994
  22708622.812   -13940505.28349 -10849359.14949  22708625.7464   22708630.1094
  22387493.355   -15091396.04949 -11743611.68949  22387496.3034   22387502.9194
  21493390.095    -2113092.72149  -1635024.39449  21493393.9704   21493399.6704
  24136892.231    -6998637.86749  -5430847.72649  24136893.8484   24136900.1634
 96  4 18  2 50  0.0000000  0  7 16 20  6 26 23 17 22
  22790595.888     5562581.84849   4649669.61649  22790597.7694   22790603.2084
  22970369.481    10283024.90849   8022107.27649  22970373.2774   22970381.2984
  20203523.332   -14084372.96449 -10957755.72149  20203527.0494   20203532.0834
  22696960.391   -14001779.94849 -10897105.61849  22696965.5284   22696970.3284
  22371327.289   -15176349.74249 -11809809.33749  22371330.4274   22371336.8194
  21484887.628    -2157774.57149  -1669841.41649  21484890.7984   21484896.7964
  24125568.613    -7058135.01849  -5477209.12849  24125572.7394   24125578.5094
 96  4 18  2 50 30.0000000  0  7 16 20  6 26 23 17 22
  22807144.842     5649559.84349   4717444.66149  22807148.5664   22807155.1614
  22988672.444    10379208.11849   8097055.21249  22988676.3094   22988683.7624
  20203255.003   -14085781.65349 -10958853.40049  20203259.1234   20203263.7284
  22685368.735   -14062700.35549 -10944576.05949  22685372.9254   22685377.2554
  22355227.337   -15260956.04649 -11875736.29649  22355230.0914   22355236.9024
  21476423.785    -2202249.01249  -1704496.82949  21476427.8194   21476433.5554
  24114329.144    -7117204.01949  -5523236.89049  24114332.4304   24114338.7684
 96  4 18  2 51  0.0000000  0  7 16 20  6 26 23 17 22
  22823739.015     5736757.94849   4785391.22349  22823742.0284   22823747.5814
  23007003.664    10475538.98049   8172118.17649  23007007.7954   23007013.9634
  20203075.760   -14086722.91249 -10959586.85249  20203080.0934   20203084.8924
  22673843.057   -14123277.12849 -10991778.73249  22673845.8444   22673850.0864
  22339194.008   -15345206.88949 -11941386.27149  22339197.4114   22339203.8844
  21467999.272    -2246519.00149  -1738992.92549  21468003.3194   21468009.2734
  24103168.186    -7175865.06049  -5568946.74849  24103169.8124   24103175.2854
 96  4 18  2 51 30.0000000  0  7 16 20  6 26 23 17 22
  22840376.051     5824181.25749   4853513.25149  22840377.6234   22840384.0664
  23025360.662    10572001.80849   8247283.97849  23025364.4384   23025371.2854
  20202987.031   -14087193.56649 -10959953.59349  20202990.2984   20202995.3784
  22662379.936   -14183508.95249 -11038712.59249  22662383.2044   22662388.1104
  22323227.159   -15429115.38749 -12006769.49149  22323229.6244   22323236.7754
  21459613.891    -2290587.99649  -1773332.40749  21459617.3624   21459623.0834
  24092083.212    -7234120.05549  -5614340.20849  24092083.9904   24092088.9574
 96  4 18  2 52  0.0000000  0  7 16 20  6 26 23 17 22
  22857054.941     5911833.81549   4921813.93849  22857057.8154   22857062.8434
  23043740.591    10668597.09749   8322553.00149  23043745.2594   23043751.8694
  20202983.350   -14087210.71749 -10959966.95749  20202987.3194   20202991.9314
  22650987.573   -14243372.57549 -11085359.55049  22650991.7444   22650996.7464
  22307318.455   -15512705.84849 -12071904.88849  22307322.7894   22307329.7074
  21451261.843    -2334476.54649  -1807531.29649  21451265.6624   21451271.3174
  24081075.655    -7291947.58449  -5659400.59749  24081079.8374   24081085.6804
 96  4 18  2 52 30.0000000  0  7 16 20  6 26 23 17 22
  22873778.071     5999711.40549   4990289.97449  22873780.1644   22873786.2724
  23062150.183    10765320.96949   8397922.21849  23062151.3374   23062158.1004
  20203065.293   -14086775.57249 -10959627.88249  20203069.5974   20203074.7454
  22639667.904   -14302859.38949 -11131712.89949  22639671.7604   22639676.4674
  22291472.129   -15595988.06149 -12136800.09949  22291475.2844   22291481.1944
  21442942.139    -2378200.06149  -1841601.56849  21442945.4234   21442951.5094
  24070156.939    -7349340.82449  -5704122.59849  24070159.0644   24070164.3164
 96  4 18  2 53  0.0000000  0  7 16 20  6 26 23 17 22
  22890541.556     6087802.66449   5058932.49449  22890543.6544   22890549.1334
  23080578.183    10862178.18049   8473395.35249  23080582.5414   23080589.5564
  20203234.786   -14085893.38949 -10958940.47049  20203237.9054   20203242.7414
  22628418.962   -14361959.70349 -11177765.07349  22628424.5944   22628428.8964
  22275680.474   -15678971.23149 -12201462.29549  22275684.2064   22275689.5234
  21434650.857    -2421771.01549  -1875552.94849  21434654.1144   21434660.3954
  24059315.536    -7406298.13949  -5748504.91249  24059319.3704   24059326.0674
 96  4 18  2 53 30.0000000  0  7 16 20  6 26 23 17 22
  22907342.342     6176100.72349   5127736.15249  22907346.6754   22907352.2904
  23099035.918    10959169.71549   8548973.13949  23099039.7374   23099046.5854
  20203483.255   -14084585.61149 -10957921.43049  20203486.7984   20203491.9454
  22617248.074   -14420669.85549 -11223513.22449  22617253.0454   22617257.6634
  22259944.784   -15761663.79849 -12265898.04449  22259948.6184   22259954.3744
  21426386.302    -2465199.24149  -1909393.09649  21426389.6994   21426396.0464
  24048561.093    -7462807.56649  -5792538.21549  24048566.0664   24048572.1384
 96  4 18  2 53 59.9990000  0  7 16 20  6 26 23 17 22
  22924187.229     6264624.39049   5196715.62249  22924191.6084   22924196.9924
  23117520.559    11056301.25849   8624660.02349  23117523.4604   23117530.1194
  20203814.053   -14082849.85049 -10956568.89149  20203817.3624   20203821.9174
  22606152.506   -14478972.43249 -11268943.79249  22606158.4864   22606163.1494
  22244266.983   -15844051.49749 -12330096.22849  22244271.0404   22244276.6274
  21418150.914    -2508474.53349  -1943114.07549  21418155.2374   21418161.1544
  24037897.418    -7518860.88949  -5836216.10049  24037900.1084   24037905.9334
 96  4 18  2 54 29.9990000  0  7 16 20  6 26 23 17 22
  22941078.238     6353368.72149   5265867.02849  22941079.4274   22941084.7944
  23136027.810    11153562.84949   8700448.24949  23136031.4744   23136038.7364
  20204225.215   -14080684.10949 -10954881.30849  20204229.2214   20204233.8064
  22595133.384   -14536882.85949 -11314068.77649  22595138.1654   22595142.7204
  22228649.801   -15926125.05249 -12394049.61649  22228652.5764   22228658.7224
  21409947.276    -2551586.97949  -1976708.18749  21409950.5854   21409956.8224
  24027313.287    -7574471.22649  -5879548.79849  24027317.8244   24027322.7734
 96  4 18  2 54 59.9990000  0  7 16 20  6 26 23 17 22
  22958005.754     6442341.03249   5335196.08049  22958010.4574   22958015.5584
  23154561.999    11250952.79149   8776336.48349  23154564.5474   23154571.2994
  20204720.854   -14078078.90849 -10952851.28749  20204724.9864   20204729.6834
  22584190.441   -14594392.92249 -11358881.79749  22584194.7054   22584199.8784
  22213093.848   -16007868.84049 -12457746.04749  22213097.4334   22213103.3734
  21401777.167    -2594520.49849  -2010162.87949  21401780.7094   21401786.8534
  24016820.075    -7629622.55749  -5922523.83949  24016821.9994   24016827.4704
 96  4 18  2 55 29.9990000  0  7 16 20  6 26 23 17 22
  22974976.510     6531518.26549   5404684.82549  22974979.8174   22974985.7534
  23173111.018    11348435.58449   8852297.07849  23173114.6734   23173121.5054
  20205298.822   -14075041.50349 -10950484.48949  20205302.8384   20205307.6024
  22573318.895   -14651523.41349 -11403399.05249  22573322.6524   22573328.1394
  22197595.209   -16089309.96749 -12521206.62749  22197599.2794   22197605.5274
  21393639.452    -2637287.25249  -2043487.60649  21393642.4564   21393648.6624
  24006406.727    -7684337.64149  -5965158.93549  24006410.6324   24006415.3594
 96  4 18  2 55 59.9990000  0  7 16 20  6 26 23 17 22
  22991986.107     6620898.19449   5474331.50249  22991988.0304   22991994.1004
  23191676.377    11446000.84349   8928321.94349  23191680.2134   23191687.5094
  20205963.089   -14071551.78549 -10947765.23249  20205967.0024   20205972.0134
  22562523.144   -14708255.61049 -11447605.94749  22562527.3554   22562531.7254
  22182157.732   -16170440.61149 -12584425.26649  22182160.7014   22182166.7824
  21385533.607    -2679879.65749  -2076676.47549  21385537.6064   21385543.3724
  23996077.954    -7738622.78349  -6007459.04749  23996079.9304   23996086.7714
 96  4 18  2 56 29.9990000  0  7 16 20  6 26 23 17 22
  23009026.228     6710456.53449   5544117.20849  23009030.7204   23009036.7004
  23210257.347    11543632.65849   9004398.65749  23210259.7564   23210266.2264
  20206715.706   -14067597.58149 -10944684.04449  20206719.2944   20206724.0174
  22551800.623   -14764608.10049 -11491516.95749  22551803.1894   22551808.3994
  22166776.053   -16251270.14149 -12647409.26749  22166779.1064   22166785.3244
  21377460.902    -2722305.32249  -2109735.43349  21377463.9024   21377470.0414
  23985826.344    -7792476.71349  -6049423.12149  23985831.9104   23985837.5014
 96  4 18  2 56 59.9990000  0  7 16 20  6 26 23 17 22
  23026108.520     6800214.62349   5614058.56649  23026111.1424   23026116.7024
  23228851.059    11641341.11549   9080535.07549  23228853.3414   23228859.5034
  20207560.246   -14063156.69549 -10941223.62349  20207564.4334   20207569.5104
  22541149.087   -14820569.50449 -11535123.22749  22541154.2234   22541159.8934
  22151450.060   -16331802.47649 -12710161.70149  22151454.4274   22151460.3334
  21369420.914    -2764554.40449  -2142656.77549  21369424.3024   21369430.5024
  23975667.239    -7845884.99749  -6091039.94649  23975670.1024   23975675.0064
 96  4 18  2 57 29.9990000  0  7 16 20  6 26 23 17 22
  23043229.850     6890190.64949   5684169.73849  23043232.7214   23043239.2504
  23247461.415    11739147.26949   9156747.62249  23247465.1844   23247472.2004
  20208499.457   -14058227.30849 -10937382.55449  20208502.8484   20208507.8634
  22530578.391   -14876127.38449 -11578415.07149  22530582.4374   22530587.5774
  22136184.589   -16412028.57249 -12772675.52149  22136187.8794   22136193.8854
  21361417.669    -2806608.82349  -2175426.44649  21361421.9184   21361427.5074
  23965587.144    -7898838.69349  -6132302.56149  23965591.6174   23965596.9764
 96  4 18  2 57 59.9990000  0  7 16 20  6 26 23 17 22
  23060395.071     6980397.04749   5754460.43249  23060398.9524   23060405.1024
  23266096.676    11837072.54849   9233053.01449  23266099.4954   23266106.5074
  20209529.058   -14052812.73949 -10933163.41949  20209532.8404   20209537.6684
  22520081.242   -14931286.37949 -11621396.09849  22520086.1484   22520090.9234
  22120979.403   -16491930.65049 -12834936.85649  22120982.9184   22120989.4784
  21353453.690    -2848464.39149  -2208041.18849  21353457.0364   21353462.6794
  23955602.231    -7951319.57849  -6173196.74249  23955605.3014   23955610.5084
 96  4 18  2 58 29.9990000  0  7 16 20  6 26 23 17 22
  23077602.716     7070831.71749   5824928.99249  23077607.3274   23077613.4734
  23284752.906    11935120.84249   9309454.23949  23284757.2434   23284765.1294
  20210651.986   -14046916.29449 -10928568.79449  20210655.0334   20210659.6974
  22509659.664   -14986052.82849 -11664071.24449  22509664.4884   22509669.5404
  22105836.525   -16571505.12449 -12896942.92249  22105840.2654   22105847.0594
  21345526.680    -2890119.85349  -2240499.97349  21345530.1774   21345535.8764
  23945707.340    -8003313.00549  -6213711.10549  23945710.6484   23945716.1454
 96  4 18  2 58 59.9990000  0  7 16 20  6 26 23 17 22
  23094853.824     7161476.89449   5895561.59049  23094856.8614   23094862.8814
  23303431.828    12033296.41949   9385954.65949  23303438.2554   23303446.7234
  20211858.846   -14040567.36649 -10923621.58749  20211863.3994   20211868.1054
  22499314.589   -15040418.61649 -11706434.18149  22499318.6244   22499323.5304
  22090758.684   -16650750.40149 -12958692.48549  22090760.5624   22090767.0154
  21337635.558    -2931588.47549  -2272813.18849  21337638.9284   21337644.8044
  23935905.444    -8054831.39449  -6253855.28549  23935907.8814   23935911.8984
 96  4 18  2 59 29.9990000  0  7 16 20  6 26 23 17 22
  23112138.158     7252307.87849   5966338.98649  23112141.6044   23112146.5484
  23322142.671    12131604.65149   9462558.45249  23322145.5674   23322153.7844
  20213152.340   -14033774.01149 -10918328.07749  20213155.8084   20213160.7694
  22489045.002   -15094374.03349 -11748477.34049  22489050.6374   22489056.1444
  22075744.721   -16729646.77049 -13020170.17049  22075747.1394   22075753.0434
  21329779.438    -2972869.52249  -2304980.21749  21329783.2084   21329788.9974
  23926191.445    -8105872.36749  -6293627.44249  23926194.4844   23926201.0934
 96  4 18  2 59 59.9990000  0  7 16 20  6 26 23 17 22
  23129449.012     7343281.18949   6037227.28949  23129453.5404   23129459.3104
  23340872.195    12230019.63449   9539245.42949  23340874.4244   23340880.5514
  20214528.417   -14026543.14349 -10912693.64049  20214531.9454   20214537.0574
  22478857.246   -15147927.22649 -11790207.08249  22478859.8024   22478865.0544
  22060795.446   -16808205.89849 -13081385.06149  22060797.8854   22060803.9364
  21321954.341    -3013989.35349  -2337021.64149  21321958.2674   21321964.5084
  23916564.641    -8156460.31049  -6333046.60749  23916568.1654   23916572.8514
 96  4 18  3  0 29.9990000  0  7 16 20  6 26 23 17 22
  23146785.474     7434392.35149   6108222.98149  23146790.7024   23146797.3394
  23359616.948    12328539.40249   9616014.04949  23359622.0254   23359629.0874
  20215987.204   -14018872.74949 -10906716.72349  20215991.1714   20215996.6724
  22468746.938   -15201060.05749 -11831609.26649  22468749.7464   22468754.4954
  22045909.430   -16886428.56349 -13142337.77249  22045912.4494   22045918.3314
  21314160.330    -3054948.23249  -2368937.68049  21314164.3754   21314170.2754
  23907022.243    -8206604.27949  -6372119.83149  23907026.0804   23907030.3834
 96  4 18  3  0 59.9990000  0  7 16 20  6 26 23 17 22
  23164155.191     7525655.34349   6179336.97449  23164157.4754   23164163.6684
  23378389.180    12427174.60449   9692872.61049  23378391.3474   23378398.3674
  20217534.431   -14010746.52649 -10900384.61149  20217537.7254   20217542.7574
  22458717.731   -15253756.96949 -11872671.78649  22458721.5374   22458726.3004
  22031089.750   -16964303.32149 -13203019.38449  22031093.4004   22031099.4384
  21306399.610    -3095735.43649  -2400719.92849  21306402.9744   21306408.6824
  23897567.194    -8256306.24749  -6410848.61149  23897567.3984   23897574.7974
 96  4 18  3  1 29.9990000  0  7 16 20  6 26 23 17 22
  23181550.891     7617069.01349   6250568.40649  23181553.9254   23181558.5544
  23397177.791    12525900.50149   9769801.84849  23397179.2904   23397186.3544
  20219168.147   -14002157.39649 -10893691.79649  20219172.2364   20219177.2584
  22448770.812   -15306021.45849 -11913397.35349  22448775.8564   22448780.4214
  22016335.427   -17041848.80649 -13263444.41349  22016337.4244   22016343.2954
  21298670.278    -3136351.36549  -2432368.68849  21298673.9444   21298679.5324
  23888188.085    -8305575.82949  -6449240.47549  23888192.6934   23888199.0214
 96  4 18  3  1 59.9990000  0  7 16 20  6 26 23 17 22
  23198975.895     7708642.61549   6321924.45249  23198979.5344   23198984.3514
  23415976.603    12624699.39649   9846787.95949  23415979.4644   23415987.3824
  20220890.417   -13993108.84949 -10886640.99049  20220893.8294   20220899.4084
  22438907.270   -15357854.43149 -11953786.68449  22438912.7684   22438917.4054
  22001635.152   -17119091.04349 -13323633.15949  22001638.7264   22001644.6134
  21290971.019    -3176807.98249  -2463893.32249  21290975.1724   21290981.3074
  23878893.967    -8354421.31649  -6487301.90049  23878897.9054   23878902.8674
 96  4 18  3  2 29.9990000  0  7 16 20  6 26 23 17 22
  23216439.315     7800405.84549   6393428.24249  23216441.5434   23216447.6744
  23434792.589    12723575.27449   9923834.04649  23434794.6614   23434802.4744
  20222704.054   -13983578.44749 -10879214.70949  20222707.2984   20222712.8014
  22429132.061   -15409232.04849 -11993821.18149  22429135.7734   22429140.9264
  21986997.163   -17196009.40549 -13383569.54649  21987001.3554   21987007.3814
  21283308.842    -3217078.20449  -2495272.71049  21283312.0894   21283317.9454
  23869687.177    -8402809.20649  -6525006.74749  23869690.2424   23869694.7394
 96  4 18  3  2 59.9990000  0  7 16 20  6 26 23 17 22
  23233935.129     7892341.78049   6465066.62949  23233936.2124   23233942.3794
  23453617.050    12822500.46449  10000918.58649  23453621.0554   23453627.8824
  20224608.913   -13973570.50949 -10871416.32649  20224612.0344   20224617.2234
  22419438.866   -15460166.22749 -12033510.13049  22419443.4264   22419447.7354
  21972420.647   -17272616.04049 -13443263.02749  21972423.5194   21972429.2104
  21275679.272    -3257164.87949  -2526509.07649  21275684.0764   21275689.3974
  23860564.560    -8450727.85949  -6562345.92149  23860570.6074   23860578.0054
 96  4 18  3  3 29.9990000  0  7 16 20  6 26 23 17 22
  23251460.768     7984451.28749   6536840.26949  23251464.4254   23251469.4994
  23472452.226    12921482.96149  10078047.77749  23472456.2244   23472463.3184
  20226604.609   -13963081.73249 -10863243.26649  20226608.0674   20226613.2594
  22409833.828   -15510645.44249 -12072844.56949  22409837.9684   22409841.8384
  21957905.941   -17348893.19849 -13502699.73949  21957908.5664   21957914.2164
  21268090.905    -3297044.72349  -2557584.28049  21268094.8334   21268100.7174
  23851542.433    -8498150.10349  -6599298.32049  23851545.4604   23851552.2744
 96  4 18  3  3 59.9990000  0  7 16 20  6 26 23 17 22
  23269020.019     8076716.61749   6608735.34349  23269021.0844   23269026.1804
  23491299.158    13020511.90449  10155213.14949  23491301.1944   23491307.8154
  20228689.121   -13952128.91649 -10854708.61349  20228692.3054   20228697.5674
  22400307.815   -15560694.45249 -12111843.77549  22400312.2534   22400317.9684
  21943452.518   -17424832.98449 -13561873.53949  21943457.3034   21943463.6254
  21260537.674    -3336739.42249  -2588515.21249  21260540.9984   21260547.1204
  23842612.389    -8545077.72149  -6635865.29249  23842616.4034   23842621.3344
 96  4 18  3  4 29.9990000  0  7 16 20  6 26 23 17 22
  23286603.377     8169128.88449   6680744.88949  23286607.2754   23286613.0654
  23510155.622    13119596.78349  10232422.10049  23510155.2774   23510164.0524
  20230862.131   -13940707.88849 -10845809.11749  20230866.0324   20230870.9524
  22390865.966   -15610322.93449 -12150515.31449  22390869.2744   22390873.9454
  21929070.080   -17500423.09649 -13620774.88249  21929072.9244   21929079.5614
  21253020.399    -3376245.57049  -2619299.22249  21253023.5914   21253029.7314
  23833778.191    -8591504.68149  -6672042.12249  23833781.9984   23833787.2324
 96  4 18  3  4 59.9990000  0  7 16 20  6 26 23 17 22
  23304213.532     8261676.11349   6752859.61149  23304217.9424   23304224.0244
  23529019.987    13218735.83349  10309673.27949  23529021.6394   23529028.8684
  20233120.713   -13928838.70149 -10836560.40249  20233124.2684   20233129.7314
  22381498.663   -15659550.39849 -12188874.37349  22381501.5294   22381506.8604
  21914749.731   -17575674.24549 -13679412.11849  21914753.2434   21914759.5144
  21245534.574    -3415584.29849  -2649952.77549  21245537.6494   21245543.8564
  23825036.230    -8637452.44349  -6707845.54149  23825038.3984   23825043.7934
 96  4 18  3  5 29.9990000  0  7 16 20  6 26 23 17 22
  23321854.013     8354370.28049   6825088.82349  23321857.8924   23321862.8764
  23547895.759    13317935.92249  10386972.01549  23547897.9044   23547904.7464
  20235464.749   -13916518.10049 -10826959.94249  20235468.6864   20235474.0634
  22372208.790   -15708363.11849 -12226910.24349  22372212.7864   22372217.6314
  21900495.174   -17650581.42049 -13737781.30249  21900498.8444   21900505.2914
  21238079.722    -3454754.64349  -2680475.12949  21238083.6464   21238089.8414
  23816380.263    -8682940.68549  -6743290.89849  23816382.3234   23816387.8664
 96  4 18  3  5 59.9990000  0  7 16 20  6 26 23 17 22
  23339522.555     8447226.81149   6897444.57849  23339526.8304   23339533.0864
  23566778.736    13417195.73749  10464317.29149  23566786.8694   23566795.0684
  20237898.526   -13903731.26649 -10816996.18249  20237902.2854   20237907.4454
  22363000.222   -15756747.79449 -12264612.57649  22363005.5914   22363009.9384
  21886304.970   -17725150.77949 -13795887.25749  21886308.4464   21886315.0634
  21230655.978    -3493768.12449  -2710875.24149  21230659.6574   21230665.1504
  23807811.215    -8727969.03349  -6778377.88949  23807813.9304   23807819.4684
 96  4 18  3  6 29.9990000  0  7 16 20  6 26 23 17 22
  23357229.356     8540268.51549   6969944.59449  23357232.9884   23357238.6384
  23585683.609    13516520.90049  10541713.49649  23585688.3524   23585695.1544
  20240423.798   -13890457.99949 -10806653.38049  20240427.8194   20240433.0884
  22353881.905   -15804671.93149 -12301956.04449  22353885.7554   22353890.6064
  21872179.447   -17799384.35249 -13853731.58149  21872182.4244   21872188.5914
  21223266.527    -3532600.80549  -2741134.46349  21223269.8894   21223275.5824
  23799330.706    -8772526.01549  -6813097.60949  23799334.7794   23799341.1424
 96  4 18  3  6 59.9990000  0  7 16 20  6 26 23 17 22
  23374965.833     8633486.90749   7042582.29649  23374971.4234   23374977.4354
  23604591.034    13615868.92649  10619127.49349  23604593.4614   23604599.9064
  20243039.047   -13876720.18649 -10795948.60049  20243042.1964   20243047.3644
  22344848.946   -15852140.06149 -12338944.17849  22344853.3444   22344858.1914
  21858115.024   -17873291.83949 -13911321.81249  21858118.3644   21858124.5714
  21215907.238    -3571270.40749  -2771266.62549  21215911.3644   21215917.1294
  23790939.276    -8816629.31249  -6847463.81049  23790942.2684   23790947.6254
 96  4 18  3  7 29.9990000  0  7 16 20  6 26 23 17 22
  23392740.037     8726877.41949   7115354.11649  23392742.7294   23392749.0924
  23623500.976    13715236.05349  10696556.39549  23623502.3494   23623508.9584
  20245742.344   -13862508.31949 -10784874.42849  20245746.3354   20245751.6124
  22335905.233   -15899143.61749 -12375570.31949  22335908.7574   22335913.6554
  21844113.070   -17946872.40349 -13968657.26549  21844116.2764   21844122.5714
  21208578.476    -3609783.25049  -2801276.63849  21208582.4554   21208588.8214
  23782631.438    -8860273.33149  -6881472.13449  23782635.4534   23782642.7214
 96  4 18  3  7 59.9990000  0  7 16 20  6 26 23 17 22
  23410544.519     8820437.02749   7188257.71749  23410546.9044   23410552.3784
  23642412.025    13814631.73549  10774007.53049  23642416.0304   23642422.4544
  20248540.164   -13847810.52649 -10773421.60749  20248543.3164   20248548.5804
  22327047.587   -15945682.53249 -12411834.40449  22327052.6194   22327057.2484
  21830176.075   -18020107.53549 -14025723.52949  21830180.2444   21830186.4994
  21201282.082    -3648131.08849  -2831158.07049  21201285.1714   21201291.1334
  23774422.198    -8903425.84849  -6915097.49549  23774425.1104   23774430.3844
 96  4 18  3  8 29.9990000  0  7 16 20  6 26 23 17 22
  23428375.018     8914145.55549   7261277.33249  23428378.3194   23428384.6274
  23661332.322    13914048.36249  10851475.01149  23661335.4804   23661341.9114
  20251429.310   -13832627.11649 -10761590.39049  20251432.9954   20251437.7554
  22318279.903   -15991765.48049 -12447743.18049  22318284.0154   22318288.1754
  21816308.637   -18092987.43549 -14082512.97949  21816311.7274   21816317.7314
  21194018.276    -3686301.02249  -2860900.88049  21194021.4744   21194027.0554
  23766306.541    -8946083.31249  -6948337.06849  23766307.6834   23766312.1604
 96  4 18  3  8 59.9990000  0  7 16 20  6 26 23 17 22
  23446234.162     9007989.74049   7334402.66749  23446236.8054   23446243.2014
  23680257.564    14013500.13749  10928969.86549  23680259.8404   23680267.1404
  20254411.661   -13816958.29349 -10749380.92949  20254414.8474   20254419.5434
  22309595.874   -16037402.10949 -12483304.16349  22309598.6304   22309603.7244
  21802510.508   -18165495.81849 -14139012.95049  21802513.9684   21802519.9324
  21186787.335    -3724298.34349  -2890509.18449  21186790.9544   21186796.7574
  23758283.476    -8988245.10049  -6981190.37149  23758284.7874   23758289.2704
 96  4 18  3  9 29.9990000  0  7 16 20  6 26 23 17 22
  23464114.950     9101956.55049   7407623.54949  23464118.6324   23464123.9064
  23699191.757    14113015.34949  11006514.16749  23699196.6064   23699203.3464
  20257487.280   -13800788.85749 -10736781.37449  20257491.5964   20257496.7394
  22300998.332   -16082579.72449 -12518507.47749  22301001.7344   22301006.1794
  21788784.313   -18237626.97349 -14195219.00449  21788787.6854   21788793.2594
  21179592.126    -3762112.79249  -2919974.98249  21179595.3044   21179601.4384
  23750354.836    -9029903.67949  -7013651.57749  23750356.2264   23750363.1694
 96  4 18  3  9 59.9990000  0  7 16 20  6 26 23 17 22
  23482020.643     9196044.26649   7480938.64349  23482022.8764   23482028.7624
  23718142.268    14212587.08449  11084102.50049  23718145.0634   23718151.3084
  20260660.466   -13784118.49749 -10723791.48949  20260664.0484   20260668.9824
  22292491.042   -16127288.37249 -12553345.36749  22292493.3714   22292498.8144
  21775130.257   -18309380.72549 -14251130.98849  21775133.4804   21775138.8114
  21172431.925    -3799738.77249  -2949293.92449  21172435.3624   21172441.1624
  23742518.398    -9071067.97949  -7045727.65449  23742524.1844   23742529.6274
 96  4 18  3 10 29.9990000  0  7 16 20  6 26 23 17 22
  23499946.251     9290243.56049   7554340.67749  23499948.2394   23499954.3044
  23737096.302    14312186.98349  11161712.77149  23737098.8104   23737104.6994
  20263924.395   -13766965.79949 -10710425.74949  20263927.5974   20263932.8674
  22284069.432   -16171536.03849 -12587824.05949  22284073.4864   22284078.7804
  21761543.722   -18380776.10549 -14306763.72849  21761547.3064   21761552.5604
  21165303.594    -3837197.59649  -2978482.61849  21165307.0804   21165312.7974
  23734776.644    -9111771.13349  -7077444.37249  23734777.6454   23734784.8144
 96  4 18  3 10 59.9990000  0  7 16 20  6 26 23 17 22
  23517896.256     9384586.39649   7627854.55049  23517900.6314   23517907.3314
  23756061.616    14411847.23449  11239370.09549  23756063.9384   23756068.9904
  20267283.049   -13749311.72449 -10696669.33049  20267286.9794   20267292.5214
  22275744.056   -16215283.22349 -12621912.77349  22275749.1144   22275754.1384
  21748030.497   -18451791.54949 -14362100.41849  21748033.5734   21748038.9604
  21158208.754    -3874481.74649  -3007535.18049  21158212.4564   21158217.9524
  23727120.865    -9151998.76649  -7108790.56149  23727123.2104   23727128.7034
 96  4 18  3 11 29.9990000  0  7 16 20  6 26 23 17 22
  23535889.325     9479122.21349   7701518.82249  23535890.6224   23535896.3734
  23775041.674    14511584.06749  11317087.04149  23775042.2504   23775049.9704
  20270744.583   -13731120.15849 -10682494.09149  20270749.1174   20270754.5014
  22267523.081   -16258484.29449 -12655575.91749  22267527.6264   22267532.6884
  21734593.921   -18522399.15349 -14417119.32649  21734597.4384   21734602.8934
  21151155.201    -3911547.02149  -3036417.20549  21151159.0774   21151164.8034
  23719564.682    -9191705.99349  -7139731.25349  23719567.2864   23719573.0214
 96  4 18  3 11 59.9990000  0  7 16 20  6 26 23 17 22
  23553905.061     9573813.14649   7775303.95049  23553908.8254   23553915.2164
  23794020.924    14611319.70349  11394803.11549  23794021.7794   23794027.9374
  20274298.163   -13712447.49149 -10667943.96949  20274301.9814   20274307.5884
  22259394.200   -16301206.73649 -12688866.11049  22259398.3534   22259403.3314
  21721223.948   -18592659.32149 -14471867.49949  21721227.2044   21721233.1214
  21144133.950    -3948440.96149  -3065165.70849  21144138.1674   21144144.1844
  23712099.317    -9230934.64949  -7170299.03049  23712102.4334   23712106.3774
 96  4 18  3 12 29.9990000  0  7 16 20  6 26 23 17 22
  23571951.630     9668639.70749   7849194.77349  23571954.4264   23571960.3264
  23812993.596    14711043.68849  11472510.05649  23812998.7214   23813004.5644
  20277939.932   -13693312.13949 -10653033.30749  20277943.5144   20277948.9784
  22251349.377   -16343486.32049 -12721811.22349  22251353.2004   22251357.6044
  21707917.216   -18662586.50549 -14526356.23149  21707920.1294   21707926.2824
  21137144.957    -3985170.40149  -3093786.03649  21137148.4824   21137154.5754
  23704727.554    -9269678.68849  -7200489.18649  23704729.4464   23704735.5574
 96  4 18  3 12 59.9990000  0  7 16 20  6 26 23 17 22
  23590021.696     9763608.84349   7923196.68449  23590025.8724   23590033.3214
  23831975.792    14810783.42349  11550229.30549  23831978.3754   23831985.5574
  20281670.258   -13673706.93149 -10637756.52549  20281674.4684   20281679.6404
  22243390.243   -16385303.89449 -12754396.32849  22243395.0144   22243400.0264
  21694677.038   -18732159.19849 -14580568.73449  21694681.0224   21694687.3274
  21130190.060    -4021725.07749  -3122270.18849  21130193.1474   21130198.4374
  23697449.811    -9307913.35949  -7230282.41349  23697453.3704   23697458.8414
 96  4 18  3 13 29.9990000  0  7 16 20  6 26 23 17 22
  23608115.808     9858687.46849   7997283.91849  23608119.2184   23608125.2934
  23850952.253    14910503.61149  11627933.29849  23850955.8974   23850961.3654
  20285487.716   -13653649.51449 -10622127.37849  20285491.2104   20285496.7664
  22235515.834   -16426687.99549 -12786643.65849  22235519.3724   22235524.5114
  21681502.076   -18801392.83949 -14634516.98149  21681505.9154   21681512.7094
  21123263.903    -4058117.64649  -3150628.02449  21123267.0734   21123273.3284
  23690269.568    -9345650.55049  -7259688.01949  23690272.3544   23690278.3014
 96  4 18  3 13 59.9990000  0  7 16 20  6 26 23 17 22
  23626224.390     9953848.06749   8071435.03649  23626227.6234   23626233.9764
  23869926.754    15010218.85049  11705633.44649  23869930.1494   23869937.1024
  20289391.396   -13633134.40549 -10606141.59449  20289395.3924   20289400.3884
  22227725.990   -16467630.99249 -12818547.26349  22227728.3684   22227733.6434
  21668391.934   -18870288.86449 -14688202.15949  21668395.7894   21668402.0594
  21116368.087    -4094353.79149  -3178863.97049  21116371.7374   21116377.7314
  23683179.828    -9382904.05049  -7288716.69349  23683184.1194   23683188.8694
 96  4 18  3 14 29.9990000  0  7 16 20  6 26 23 17 22
  23644350.156    10049087.59049   8145647.64749  23644351.6874   23644357.0314
  23888907.924    15109962.26849  11783355.56949  23888910.1394   23888917.0124
  20293385.754   -13612142.00049 -10589783.88649  20293389.7684   20293394.7284
  22220025.452   -16508089.19549 -12850073.11249  22220029.2634   22220034.7974
  21655351.791   -18938820.15049 -14741603.11149  21655354.5274   21655360.9834
  21109502.691    -4130429.57649  -3206974.95549  21109506.8084   21109512.3134
  23676182.299    -9419670.26549  -7317365.67749  23676186.8134   23676192.1694
 96  4 18  3 14 59.9990000  0  7 16 20  6 26 23 17 22
  23662487.638    10144411.49349   8219926.02749  23662491.0494   23662495.8134
  23907892.477    15209726.57149  11861093.94749  23907894.4804   23907902.1724
  20297474.211   -13590658.00049 -10573043.11749  20297478.2574   20297483.4924
  22212423.774   -16548033.61249 -12881198.62049  22212428.6974   22212433.1614
  21642381.188   -19006980.77449 -14794715.24249  21642384.1324   21642390.3384
  21102670.032    -4166337.88949  -3234955.45349  21102673.8234   21102679.5824
  23669275.931    -9455951.74349  -7345636.95349  23669282.1274   23669287.3104
 96  4 18  3 15 29.9990000  0  8 16 21 20  6 26 23 17 22
  23680645.401    10239829.74649   8294277.92749  23680648.8184   23680653.3024
  24992715.467    -1991052.21559  -1537785.91359  24992721.0644   24992728.4874
  23926879.124    15309502.95349  11938841.75549  23926881.8434   23926888.6264
  20301658.909   -13568667.87849 -10555907.96849  20301662.8044   20301667.6494
  22204922.148   -16587461.65049 -12911921.74749  22204925.5204   22204930.5224
  21629478.956   -19074783.03549 -14847548.14349  21629481.9304   21629488.1644
  21095875.862    -4202045.12049  -3262779.24849  21095878.8644   21095884.5104
  23662469.301    -9491744.55549  -7373527.45449  23662471.3494   23662477.6834
 96  4 18  3 15 59.9990000  0  8 16 21 20  6 26 23 17 22
  23698818.692    10335348.28149   8368707.95349  23698825.0334   23698830.2814
  24973831.238    -2090293.08349  -1615116.41249  24973836.8704   24973844.3034
  23945869.067    15409281.25749  12016591.08849  23945867.6674   23945876.0134
  20305937.404   -13546182.52749 -10538386.92549  20305941.4864   20305946.5894
  22197516.186   -16626382.26849 -12942249.48349  22197519.4074   22197524.1384
  21616642.260   -19142237.46549 -14900110.01849  21616645.3124   21616651.6804
  21089115.551    -4237562.10349  -3290454.80949  21089119.8294   21089125.9064
  23655749.666    -9527055.22849  -7401042.25249  23655751.6864   23655757.5404
 96  4 18  3 16 29.9990000  0  8 16 21 20  6 26 23 17 22
  23717023.510    10430996.90049   8443239.33749  23717026.4154   23717032.7604
  24954971.531    -2189412.07949  -1692351.93149  24954974.9134   24954982.3634
  23964851.927    15509054.92149  12094336.76449  23964853.7644   23964862.0664
  20310309.972   -13523205.89949 -10520483.07249  20310314.0164   20310319.0214
  22190204.988   -16664800.85249 -12972186.01149  22190208.4874   22190213.2234
  21603875.261   -19209325.88949 -14952386.67549  21603878.9844   21603885.0834
  21082395.628    -4272882.02149  -3317976.83749  21082398.8144   21082405.0584
  23649125.487    -9561861.62049  -7428164.10849  23649128.3494   23649134.7684
 96  4 18  3 16 59.9990000  0  8 16 21 20  6 26 23 17 22
  23735250.157    10526776.07649   8517872.44749  23735252.8064   23735258.4294
  24936125.259    -2288443.48249  -1769519.21249  24936129.5374   24936138.3194
  23983832.103    15608804.83749  12172063.92949  23983837.2214   23983843.7614
  20314771.978   -13499760.09249 -10502213.62049  20314775.5894   20314780.8504
  22182986.624   -16702740.71849 -13001749.52149  22182988.4964   22182993.7334
  21591176.013   -19276063.54349 -15004390.03149  21591179.2124   21591184.9654
  21075710.742    -4308010.91649  -3345350.02149  21075714.3684   21075720.0334
  23642597.395    -9596164.60849  -7454893.70249  23642600.9334   23642605.5454
 96  4 18  3 17 29.9990000  0  8 16 21 20  6 26 23 17 22
  23753502.768    10622696.70249   8592615.77649  23753505.1774   23753511.8384
  24917298.040    -2387389.60549  -1846620.02249  24917300.8364   24917308.3664
  24002813.164    15708556.17249  12249792.21449  24002818.8564   24002826.1104
  20319324.771   -13475836.52349 -10483571.88149  20319327.9864   20319333.1974
  22175859.273   -16740183.39449 -13030925.61549  22175863.9474   22175868.5434
  21578546.556   -19342429.70649 -15056103.92349  21578550.4074   21578555.9684
  21069063.706    -4342939.17849  -3372566.86049  21069067.5584   21069073.1264
  23636167.103    -9629958.11049  -7481226.27849  23636170.6084   23636175.7344
 96  4 18  3 17 59.9990000  0  8 16 21 20  6 26 23 17 22
  23771782.653    10718746.47049   8667459.74649  23771784.0164   23771789.2454
  24898483.327    -2486248.67849  -1923653.02649  24898488.4044   24898495.2164
  24021798.623    15808307.26349  12327520.29649  24021800.3374   24021807.9014
  20323965.908   -13451440.94849 -10464562.35349  20323970.5434   20323975.5704
  22168829.633   -16777126.65649 -13059712.54949  22168833.7264   22168838.3664
  21565992.878   -19408407.78849 -15107515.40549  21565995.3704   21566000.8214
  21062450.921    -4377700.17449  -3399653.34049  21062452.4464   21062459.0404
  23629833.245    -9663243.54849  -7507162.98249  23629835.9124   23629841.4214
 96  4 18  3 18 29.9990000  0  8 16 21 20  6 26 23 17 22
  23790071.814    10814882.30949   8742370.78149  23790077.4984   23790082.8914
  24879685.055    -2585046.09949  -2000637.96549  24879687.5794   24879694.4444
  24040774.485    15908036.67349  12405231.48749  24040778.4764   24040786.2904
  20328694.081   -13426597.26049 -10445203.64149  20328697.8914   20328703.1794
  22161892.459   -16813578.96549 -13088116.92549  22161897.1804   22161901.7874
  21553504.799   -19474025.37949 -15158645.97749  21553508.7794   21553514.4474
  21055860.051    -4412324.40049  -3426633.25349  21055863.7854   21055869.6404
  23623589.912    -9696050.46849  -7532726.82049  23623593.4954   23623600.0294
 96  4 18  3 18 59.9990000  0  8 16 21 20  6 26 23 17 22
  23808386.853    10911118.67849   8817360.14049  23808390.5384   23808397.0144
  24860899.646    -2683750.82049  -2077550.63649  24860902.9294   24860910.1134
  24059754.048    16007769.41149  12482945.28249  24059757.5544   24059764.8904
  20333514.594   -13401265.55049 -10425464.65649  20333518.7124   20333523.5614
  22155057.131   -16849496.10149 -13116104.27549  22155062.2194   22155067.0064
  21541091.963   -19539257.28049 -15209475.97049  21541095.2734   21541101.0014
  21049303.307    -4446780.25349  -3453481.97349  21049307.3974   21049313.0734
  23617440.976    -9728363.87249  -7557906.08849  23617444.8854   23617450.3784
 96  4 18  3 19 29.9990000  0  8 16 21 20  6 26 23 17 22
  23826714.291    11007439.69149   8892415.46649  23826719.4604   23826725.5764
  24842138.454    -2782355.92049  -2154385.69549  24842140.4304   24842148.7644
  24078728.410    16107470.22349  12560634.17949  24078730.0074   24078738.4184
  20338429.561   -13375441.87449 -10405342.31949  20338432.6934   20338437.4064
  22148321.979   -16884895.20749 -13143687.97149  22148325.5534   22148330.7424
  21528750.105   -19604112.67749 -15260012.57649  21528753.5514   21528759.5744
  21042776.889    -4481080.34449  -3480209.32049  21042780.0624   21042785.9994
  23611382.345    -9760200.58949  -7582713.92249  23611387.1334   23611392.0844
 96  4 18  3 19 59.9990000  0  8 16 21 20  6 26 23 17 22
  23845060.999    11103842.09749   8967534.21649  23845063.9804   23845070.2584
  24823394.592    -2880850.06849  -2231134.34549  24823398.0744   24823405.7484
  24097692.904    16207123.07549  12638285.70349  24097692.4554   24097700.4744
  20343435.591   -13349129.34649 -10384839.05749  20343439.7654   20343444.6244
  22141677.743   -16919798.53749 -13170885.35049  22141683.8274   22141688.4214
  21516479.479   -19668593.60949 -15310257.42749  21516483.3384   21516488.9654
  21036277.870    -4515231.76049  -3506820.79749  21036281.1294   21036287.2744
  23605418.207    -9791549.76149  -7607141.81549  23605420.4934   23605425.6884
 96  4 18  3 20 29.9990000  0  8 16 21 20  6 26 23 17 22
  23863425.397    11200341.34249   9042728.39749  23863427.9314   23863433.3514
  24804676.146    -2979213.73049  -2307781.31649  24804679.8724   24804687.1864
  24116651.755    16306749.61049  12715916.74049  24116651.6784   24116659.1844
  20348541.316   -13322302.89949 -10363935.33949  20348544.6094   20348549.7194
  22135133.903   -16954194.56549 -13197687.42249  22135138.2874   22135143.5074
  21504282.843   -19732688.92849 -15360201.82349  21504286.7484   21504291.9204
  21029814.005    -4549199.88249  -3533289.44249  21029817.2344   21029823.2994
  23599545.296    -9822402.90849  -7631183.22249  23599549.0704   23599554.8164
 96  4 18  3 20 59.9990000  0  8 16 21 20  6 26 23 17 22
  23881808.548    11296931.96849   9117993.81149  23881808.7114   23881814.2684
  24785989.529    -3077435.49549  -2384317.71449  24785988.0064   24785997.4384
  24135595.960    16406335.71849  12793516.26949  24135601.0364   24135609.5904
  20353743.111   -13294966.88749 -10342634.56449  20353746.7034   20353751.8884
  22128684.266   -16988101.22049 -13224108.18049  22128685.9124   22128690.7874
  21492159.686   -19796403.19949 -15409849.29349  21492161.8154   21492167.7014
  21023385.150    -4582976.96149  -3559609.22849  21023389.6124   21023395.9414
  23593771.725    -9852761.44249  -7654839.23049  23593773.0234   23593778.2524
 96  4 18  3 21 29.9990000  0  8 16 21 20  6 26 23 17 22
  23900204.825    11393621.23149   9193336.06849  23900207.2304   23900213.1554
  24767324.860    -3175499.55849  -2460731.21549  24767327.6764   24767336.0544
  24154545.305    16505895.34549  12871095.14449  24154547.3854   24154554.3924
  20359042.090   -13267119.56149 -10320935.35549  20359045.6904   20359050.4154
  22122322.846   -17021517.47849 -13250146.79549  22122327.0794   22122332.1684
  21480106.170   -19859734.72249 -15459198.51349  21480110.2414   21480116.4884
  21016996.896    -4616554.16049  -3585773.27449  21017000.2324   21017006.2014
  23588089.173    -9882607.36449  -7678095.78849  23588092.4484   23588097.8564
 96  4 18  3 21 59.9990000  0  8 16 21 20  6 26 23 17 22
  23918614.267    11490368.54449   9268723.58349  23918617.1504   23918624.9404
  24748687.493    -3273436.77049  -2537045.89149  24748691.5774   24748698.1744
  24173487.480    16605433.42949  12948657.25049  24173489.0584   24173496.0054
  20364431.479   -13238798.63249 -10298867.10249  20364434.9484   20364440.1104
  22116056.781   -17054452.56049 -13275810.46849  22116060.0804   22116064.6754
  21468122.113   -19922714.51949 -15508273.68049  21468125.4064   21468131.8254
  21010637.385    -4649963.55749  -3611806.56449  21010642.4244   21010648.4814
  23582504.131    -9911962.96949  -7700970.27549  23582506.0664   23582512.0394
 96  4 18  3 22 29.9990000  0  8 16 21 20  6 26 23 17 22
  23937037.380    11587188.85249   9344167.94349  23937041.9444   23937048.8964
  24730078.286    -3371224.10349  -2613243.76649  24730081.9814   24730090.2424
  24192427.384    16704968.71149  13026217.19549  24192430.5254   24192438.0574
  20369915.810   -13209977.46649 -10276409.05749  20369919.3704   20369924.5634
  22109890.604   -17086856.04349 -13301059.91649  22109893.6924   22109898.0464
  21456206.712   -19985331.27049 -15557065.94349  21456209.9544   21456215.9334
  21004319.454    -4683177.31149  -3637687.38849  21004322.4054   21004328.3274
  23577012.719    -9940813.32849  -7723451.07249  23577016.4244   23577022.2574
 96  4 18  3 22 59.9990000  0  8 16 21 20  6 26 23 17 22
  23955471.008    11684064.72049   9419655.59549  23955476.3484   23955482.6254
  24711494.752    -3468885.28249  -2689343.31449  24711497.9424   24711506.0784
  24211361.252    16804472.87949  13103752.86549  24211364.7644   24211371.6694
  20375491.110   -13180679.53249 -10253579.50549  20375494.5454   20375499.6664
  22103824.818   -17118730.37149 -13325897.02349  22103828.3124   22103833.4424
  21444356.785   -20047601.35649 -15605588.07049  21444360.4474   21444366.2804
  20998029.276    -4716226.53049  -3663440.02149  20998032.9974   20998038.8434
  23571619.511    -9969162.36049  -7745541.21849  23571621.6024   23571628.0754
 96  4 18  3 23 29.9990000  0  8 16 21 20  6 26 23 17 22
  23973919.402    11780989.43449   9495181.33349  23973921.7384   23973928.1924
  24692929.575    -3566443.41049  -2765362.57849  24692933.1114   24692940.9284
  24230288.714    16903937.97949  13181258.10449  24230293.4594   24230299.8444
  20381153.252   -13150923.83049 -10230393.25449  20381157.0424   20381162.0404
  22097857.499   -17150083.01549 -13350327.62749  22097862.0074   22097866.8234
  21432571.938   -20109528.16849 -15653842.68849  21432575.7954   21432581.8254
  20991766.308    -4749137.09549  -3689084.61249  20991770.7844   20991775.9914
  23566317.916    -9997023.49349  -7767251.19149  23566320.2454   23566324.5074
 96  4 18  3 23 59.9990000  0  8 16 21 20  6 26 23 17 22
  23992374.076    11877984.90049   9570762.21249  23992380.6834   23992385.4124
  24674383.806    -3663892.96349  -2841297.24949  24674390.0174   24674396.7234
  24249212.116    17003373.65549  13258740.44349  24249215.7694   24249222.7054
  20386908.569   -13120683.62849 -10206829.47149  20386911.5864   20386916.3794
  22091993.795   -17180887.79149 -13374331.33749  22091999.3854   22092004.9794
  21420861.258   -20171077.95449 -15701803.52249  21420863.5934   21420869.3914
  20985532.415    -4781901.19749  -3714615.08749  20985535.9334   20985541.2844
  23561110.295   -10024380.69649  -7788568.50749  23561114.3114   23561119.9914
 96  4 18  3 24 29.9990000  0  8 16 21 20  6 26 23 17 22
  24010849.637    11975049.74349   9646397.18049  24010851.1124   24010855.2764
  24655860.257    -3761247.10949  -2917157.55649  24655863.3614   24655871.3584
  24268117.091    17102740.02549  13336168.70549  24268124.0164   24268130.4844
  20392753.021   -13089965.73849 -10182893.45549  20392756.7914   20392761.9734
  22086234.275   -17211162.98649 -13397922.36849  22086238.5944   22086243.9054
  21409220.506   -20232242.39049 -15749464.08249  21409224.3654   21409230.3794
  20979324.976    -4814515.19949  -3740028.58549  20979329.2174   20979335.0704
  23555997.333   -10051247.04949  -7809503.30549  23556002.7204   23556006.9184
 96  4 18  3 24 59.9990000  0  8 16 21 20  6 26 23 17 22
  24029332.861    12072197.22949   9722096.57349  24029336.3974   24029342.5334
  24637355.093    -3858496.65249  -2992936.36349  24637356.8054   24637364.8004
  24287017.294    17202044.26649  13413548.64749  24287021.5454   24287027.9714
  20398689.270   -13058773.52749 -10158587.84549  20398692.6854   20398697.6154
  22080572.095   -17240919.81849 -13421109.49349  22080576.3114   22080581.2384
  21397660.924   -20292994.25449 -15796803.15849  21397663.7814   21397669.7314
  20973150.702    -4846968.09149  -3765316.53549  20973153.4974   20973159.7054
  23550982.972   -10077607.04049  -7830043.54849  23550986.4614   23550990.9204
 96  4 18  3 25 29.9990000  0  8 16 21 20  6 26 23 17 22
  24047840.719    12169437.12649   9797867.95949  24047840.7224   24047847.3444
  24618870.933    -3955629.53549  -3068624.25349  24618873.9414   24618880.9714
  24305903.052    17301289.33449  13490882.41049  24305906.8744   24305914.2424
  20404714.365   -13027105.61049 -10133911.55749  20404718.7664   20404723.8444
  22075008.787   -17270156.19949 -13443891.06649  22075012.7044   22075017.5824
  21386179.097   -20353326.75249 -15843815.46449  21386182.7784   21386188.4884
  20967009.511    -4879233.21449  -3790458.18649  20967013.7514   20967020.3674
  23546061.944   -10103456.03049  -7850185.60049  23546066.2224   23546072.8554
 96  4 18  3 25 59.9990000  0  8 16 21 20  6 26 23 17 22
  24066348.484    12266723.69649   9873675.66949  24066354.6354   24066359.7344
  24600405.503    -4052661.54249  -3144233.57049  24600408.8144   24600416.4204
  24324768.381    17400438.85649  13568141.74049  24324773.7894   24324780.8304
  20410828.063   -12994980.98949 -10108879.38749  20410831.8894   20410837.0224
  22069540.235   -17298894.14449 -13466284.25149  22069543.8204   22069548.6764
  21374772.382   -20413273.84349 -15890527.45849  21374775.2654   21374780.8024
  20960903.853    -4911325.06549  -3815464.81149  20960907.4474   20960913.1744
  23541233.657   -10128826.90149  -7869955.09949  23541238.6704   23541245.4354
 96  4 18  3 26 29.9990000  0  8 16 21 20  6 26 23 17 22
  24084874.448    12364086.42749   9949542.69449  24084879.6764   24084887.6554
  24581969.571    -4149537.72649  -3219721.44949  24581973.0894   24581981.7494
  24343622.662    17499525.18849  13645351.86749  24343629.8354   24343635.6744
  20417031.410   -12962380.34149 -10083476.29549  20417035.3584   20417040.7174
  22064171.593   -17327102.69149 -13488264.92949  22064175.8334   22064181.1244
  21363441.368   -20472817.76149 -15936925.30449  21363444.5494   21363450.0844
  20954839.044    -4943196.05049  -3840299.34049  20954842.3484   20954847.8854
  23536504.803   -10153682.01849  -7889322.73649  23536509.5574   23536514.5694
 96  4 18  3 26 59.9990000  0  8 16 21 20  6 26 23 17 22
  24103414.022    12461503.52949  10025452.10949  24103418.0104   24103425.6494
  24563562.858    -4246273.14149  -3295099.64749  24563565.1954   24563574.8194
  24362472.032    17598552.37849  13722515.87749  24362472.2494   24362481.2424
  20423322.798   -12929319.82749 -10057714.86649  20423326.6364   20423331.8244
  22058902.309   -17354797.77149 -13509845.49349  22058905.9174   22058910.4854
  21352177.653   -20532002.70149 -15983043.41949  21352181.7664   21352187.2884
  20948810.148    -4974877.67949  -3864986.31449  20948813.4464   20948819.0354
  23531875.829   -10178027.85049  -7908293.48349  23531876.5544   23531881.7504
 96  4 18  3 27 29.9990000  0  8 16 21 20  6 26 23 17 22
  24121963.315    12558969.31249  10101399.41949  24121967.4574   24121972.9654
  24545179.799    -4342857.45349  -3370360.11549  24545186.3504   24545194.0074
  24381308.626    17697535.47949  13799645.54149  24381309.6404   24381316.2884
  20429707.905   -12895765.55049 -10031568.68549  20429711.6774   20429716.9354
  22053734.636   -17381951.29349 -13531004.05649  22053738.7084   22053743.2404
  21340982.567   -20590835.76549 -16028887.33449  21340986.1674   21340991.9174
  20942817.940    -5006361.85949  -3889519.43349  20942822.2464   20942828.1254
  23527338.106   -10201857.50249  -7926862.03049  23527342.0874   23527346.9484
 96  4 18  3 27 59.9990000  0  8 16 21 20  6 26 23 17 22
  24140524.393    12656482.53549  10177383.69149  24140522.4424   24140529.5184
  24526834.690    -4439284.62949  -3445498.10949  24526837.0454   24526844.0304
  24400136.491    17796475.94849  13876741.96849  24400138.2214   24400144.6704
  20436191.203   -12861697.36449 -10005022.05949  20436194.6014   20436200.0384
  22048669.738   -17408565.04649 -13551742.02649  22048674.6334   22048678.7794
  21329856.360   -20649306.57949 -16074449.00249  21329859.5444   21329865.3104
  20936860.576    -5037667.07949  -3913913.09849  20936865.0974   20936871.0044
  23522901.156   -10225172.54949  -7945029.58449  23522904.9684   23522910.4504
 96  4 18  3 28 29.9990000  0  8 16 21 20  6 26 23 17 22
  24159080.801    12754022.36249  10253388.70749  24159083.7004   24159089.1114
  24508508.282    -4535593.94049  -3520544.27549  24508510.3704   24508517.3654
  24418949.109    17895344.45349  13953782.33749  24418951.7444   24418959.3304
  20442766.708   -12827139.97049  -9978094.22649  20442770.8664   20442776.1284
  22043703.031   -17434669.36149 -13572083.02949  22043706.8974   22043711.4634
  21318794.658   -20707433.51949 -16119742.72849  21318798.3594   21318804.1494
  20930931.519    -5068833.04349  -3938198.26149  20930934.5004   20930940.3954
  23518558.815   -10247990.06449  -7962809.46849  23518562.5634   23518568.3674
 96  4 18  3 28 59.9990000  0  8 16 21 20  6 26 23 17 22
  24177644.983    12851594.63949  10329419.04249  24177651.4154   24177657.1944
  24490204.834    -4631778.91949  -3595493.55149  24490206.4514   24490213.5444
  24437749.539    17994146.68449  14030771.06149  24437753.3594   24437760.4864
  20449442.040   -12792060.36549  -9950759.48149  20449446.2504   20449451.1724
  22038836.753   -17460238.58149 -13592007.08249  22038841.6244   22038845.9434
  21307805.296   -20765185.62049 -16164744.37549  21307808.6154   21307814.1724
  20925028.801    -5099847.79549  -3962365.59849  20925032.6724   20925038.0094
  23514314.593   -10270301.32149  -7980194.83649  23514317.2094   23514322.6064
 96  4 18  3 29 29.9990000  0  8 16 21 20  6 26 23 17 22
  24196219.811    12949224.23649  10405494.04349  24196228.7934   24196235.5504
  24471926.099    -4727812.87849  -3670325.13249  24471931.4464   24471937.8674
  24456537.722    18092874.40349  14107701.75649  24456541.1744   24456548.2854
  20456223.447   -12756426.51449  -9922992.85549  20456227.0224   20456231.8134
  22034078.892   -17485245.74149 -13611493.17249  22034082.5244   22034086.7094
  21296895.233   -20822517.37649 -16209418.49449  21296898.7284   21296904.2654
  20919160.000    -5130687.62749  -3986396.63449  20919163.7444   20919169.3194
  23510164.750   -10292104.20049  -7997184.08349  23510167.7894   23510174.0374
 96  4 18  3 29 59.9990000  0  8 16 21 20  6 26 23 17 22
  24214811.754    13046905.85149  10481609.57149  24214816.8434   24214824.8104
  24453678.669    -4823707.92249  -3745048.46749  24453683.8684   24453691.0124
  24475303.531    18191492.88749  14184547.29449  24475306.9194   24475313.7614
  20463103.525   -12720271.91449  -9894820.44849  20463106.7464   20463111.9424
  22029424.010   -17509705.97249 -13630553.09149  22029427.4434   22029432.2204
  21286064.545   -20879432.75349 -16253768.12349  21286068.4084   21286073.6024
  20913321.952    -5161366.59949  -4010302.31749  20913325.7744   20913331.4114
  23506110.170   -10313411.04549  -8013786.80449  23506113.3594   23506118.8434
 96  4 18  3 30 29.9990000  0  8 16 21 20  6 26 23 17 22
  24233412.241    13144655.29449  10557777.93249  24233417.1844   24233424.7964
  24435461.434    -4919448.46949  -3819651.42749  24435464.7184   24435471.1864
  24494050.983    18290007.77049  14261312.06949  24494054.3994   24494061.5344
  20470081.537   -12683601.02749  -9866245.74049  20470085.3224   20470090.7894
  22024879.993   -17533587.79149 -13649162.28349  22024882.8134   22024887.7234
  21275312.599   -20935934.35849 -16297795.31649  21275315.9364   21275321.7934
  20907521.497    -5191850.81849  -4034056.23749  20907524.5284   20907530.6184
  23502153.300   -10334195.82149  -8029982.73149  23502158.5584   23502163.2544
 96  4 18  3 30 59.9990000  0  8 16 21 20  6 26 23 17 22
  24252026.589    13242448.39349  10633980.35749  24252027.2014   24252032.1544
  24417265.453    -5015063.24849  -3894156.38949  24417268.0844   24417275.9684
  24512772.304    18388384.20749  14337969.00849  24512775.9724   24512780.9434
  20477150.406   -12646454.36349  -9837300.30349  20477154.2434   20477159.5584
  22020439.470   -17556922.24049 -13667344.95649  22020442.6374   22020447.6474
  21264630.391   -20992068.79249 -16341536.39149  21264633.9584   21264639.9964
  20901751.531    -5222165.56549  -4057678.11849  20901755.9924   20901761.8884
  23498294.346   -10354489.27749  -8045795.80649  23498295.9404   23498301.8034
 96  4 18  3 31 29.9990000  0  8 16 21 20  6 26 23 17 22
  24270646.695    13340303.84349  10710231.37949  24270647.8144   24270655.4254
  24399098.188    -5110536.65449  -3968551.22949  24399101.1184   24399108.0994
  24531468.210    18486646.01449  14414536.62749  24531473.9904   24531479.7784
  20484308.221   -12608839.31649  -9807989.88749  20484311.8934   20484317.2804
  22016101.880   -17579714.12649 -13685104.84549  22016105.8684   22016110.1564
  21254018.651   -21047835.83349 -16384991.17049  21254021.8574   21254027.9954
  20896017.965    -5252300.47549  -4081159.86249  20896021.5834   20896027.6454
  23494527.114   -10374274.54449  -8061212.90849  23494531.4934   23494537.6944
 96  4 18  3 31 59.9990000  0  8 16 21 20  6 26 23 17 22
  24289276.522    13438218.73449  10786528.76349  24289281.6004   24289288.7214
  24380957.061    -5205860.04749  -4042829.13249  24380959.7814   24380967.9424
  24550153.816    18584820.82349  14491036.46449  24550155.6644   24550162.7874
  20491552.350   -12570771.62849  -9778326.76249  20491556.1984   20491561.4474
  22011866.794   -17601970.48449 -13702447.45249  22011870.2894   22011874.6684
  21243475.112   -21103237.65449 -16428161.39449  21243479.3124   21243485.2534
  20890319.120    -5282248.03649  -4104495.61849  20890322.7914   20890328.7154
  23490864.549   -10393528.68249  -8076216.14049  23490866.4634   23490872.8254
 96  4 18  3 32 29.9990000  0  8 16 21 20  6 26 23 17 22
  24307916.046    13536174.72149  10862858.11149  24307921.9704   24307929.4194
  24362846.064    -5301048.26249  -4117001.71749  24362848.3534   24362854.2904
  24568821.414    18682917.14149  14567475.08149  24568822.3334   24568828.2974
  20498878.996   -12532268.95049  -9748324.68349  20498883.0264   20498888.2714
  22007729.948   -17623712.40349 -13719389.19049  22007732.2344   22007737.4954
  21233001.057   -21158282.45349 -16471053.43249  21233004.6754   21233010.3324
  20884652.355    -5312028.17149  -4127700.90449  20884655.7894   20884661.6584
  23487297.888   -10412277.41749  -8090825.54549  23487299.6854   23487305.0984
 96  4 18  3 32 59.9990000  0  8 16 21 20  6 26 23 17 22
  24326564.975    13634159.91149  10939210.22849  24326568.5324   24326573.8804
  24344757.837    -5396102.16849  -4191069.65249  24344760.8234   24344766.2204
  24587469.931    18780940.17249  14643856.65949  24587474.9204   24587483.3724
  20506292.018   -12493320.13549  -9717974.97649  20506294.9624   20506299.9034
  22003686.584   -17644952.20849 -13735939.68249  22003690.7024   22003695.8064
  21222596.310   -21212959.92649 -16513659.24349  21222599.8084   21222605.4904
  20879012.909    -5341659.31849  -4150790.11249  20879017.0824   20879023.2704
  23483820.455   -10430543.90149  -8105059.16649  23483823.5934   23483829.3364
 96  4 18  3 33 29.9990000  0  8 16 21 20  6 26 23 17 22
  24345217.645    13732169.89949  11015581.68949  24345219.2834   24345226.9404
  24326697.796    -5491010.07049  -4265023.80449  24326699.4474   24326706.3954
  24606112.119    18878890.02449  14720181.19649  24606113.7674   24606122.9674
  20513789.882   -12453916.02449  -9687270.48649  20513793.1964   20513798.2574
  21999742.562   -17665680.17449 -13752091.32549  21999746.6124   21999751.8644
  21212264.472   -21267253.04349 -16555965.54749  21212268.2044   21212273.7704
  20873404.950    -5371135.20749  -4173758.32949  20873407.9404   20873413.7274
  23480435.666   -10448330.91349  -8118919.18949  23480438.8694   23480445.3844
 96  4 18  3 33 59.9990000  0  8 16 21 20  6 26 23 17 22
  24363868.597    13830208.97149  11091975.74149  24363874.6554   24363882.6494
  24308668.648    -5585759.21349  -4338854.25349  24308670.6074   24308675.4734
  24624733.412    18976758.77149  14796442.57949  24624738.4754   24624745.8334
  20521378.766   -12414036.47649  -9656195.52649  20521382.0744   20521387.1924
  21995901.416   -17685866.07849 -13767820.59249  21995905.8604   21995910.3544
  21202009.819   -21321142.47249 -16597957.29149  21202013.3374   21202019.4074
  20867827.395    -5400444.64449  -4196596.84849  20867830.7924   20867836.3274
  23477140.864   -10465631.90549  -8132400.52049  23477146.3074   23477153.3394
 96  4 18  3 34 29.9990000  0  8 16 21 20  6 26 23 17 22
  24382535.283    13928289.13749  11168401.83049  24382536.8074   24382544.9394
  24290667.144    -5680337.04849  -4412551.18849  24290672.1294   24290678.8744
  24643343.629    19074540.56249  14872636.13849  24643343.8584   24643354.7514
  20529063.054   -12373654.82549  -9624729.31449  20529065.9654   20529071.3494
  21992168.874   -17705480.98349 -13783104.92149  21992172.8844   21992177.9734
  21191833.628   -21374621.56149 -16639629.32249  21191836.5084   21191842.4804
  20862285.480    -5429566.41649  -4219289.13449  20862289.0324   20862294.6224
  23473944.479   -10482443.54149  -8145500.50749  23473948.0864   23473953.2914
 96  4 18  3 34 59.9990000  0  8 16 21 20  6 26 23 17 22
  24401201.048    14026398.26349  11244850.43949  24401207.7814   24401215.3384
  24272701.091    -5774750.91049  -4486120.38549  24272706.2854   24272713.1644
  24661927.022    19172204.75549  14948738.09149  24661930.0974   24661939.3224
  20536840.868   -12332769.61449  -9592870.72349  20536846.2054   20536851.9784
  21988542.482   -17724537.32349 -13797954.01249  21988546.3894   21988551.0584
  21181731.430   -21427710.44649 -16680997.27749  21181734.3074   21181740.1584
  20856779.032    -5458502.49649  -4241836.72649  20856782.7304   20856788.4234
  23470837.141   -10498763.37449  -8158217.26549  23470841.5644   23470847.0094
 96  4 18  3 35 29.9990000  0  8 16 21 20  6 26 23 17 22
  24419877.132    14124529.51549  11321316.35049  24419881.9244   24419888.4344
  24254766.675    -5868995.07949  -4559557.32149  24254771.7034   24254778.4864
  24680486.615    19269745.48749  15024743.87949  24680491.8594   24680499.8924
  20544715.950   -12291395.41349  -9560631.09349  20544719.8054   20544725.3504
  21985022.756   -17743032.61649 -13812365.90949  21985026.8324   21985031.5354
  21171702.255   -21480412.83649 -16722064.05849  21171705.4444   21171710.7984
  20851309.595    -5487243.31949  -4264232.16349  20851313.5774   20851319.4054
  23467829.931   -10514581.46149  -8170543.07249  23467831.4624   23467836.8894
 96  4 18  3 35 59.9990000  0  8 16 21 20  6 26 23 17 22
  24438559.316    14222695.93149  11397809.64549  24438562.5574   24438568.8234
  24236869.512    -5963045.59349  -4632843.37549  24236874.5194   24236881.6844
  24699031.424    19367200.89549  15100683.14849  24699036.5854   24699044.9704
  20552686.472   -12249508.34549  -9527991.82949  20552690.5394   20552696.2284
  21981614.624   -17760941.02149 -13826320.50149  21981619.3544   21981623.5594
  21161751.097   -21532704.11249 -16762810.51049  21161754.8514   21161760.3014
  20845882.435    -5515763.16849  -4286455.41949  20845886.4674   20845892.1954
  23464918.825   -10529871.95849  -8182457.75149  23464921.6104   23464928.4224
 96  4 18  3 36 29.9990000  0  8 16 21 20  6 26 23 17 22
  24457240.700    14320860.97949  11474301.87649  24457242.6604   24457248.6774
  24219002.099    -6056945.11549  -4706011.78849  24219005.3744   24219013.2444
  24717562.295    19464550.97549  15176540.35249  24717562.3834   24717570.8124
  20560748.632   -12207144.32849  -9494980.91849  20560752.2874   20560757.4754
  21978309.279   -17778311.89449 -13839856.24049  21978313.2894   21978318.1334
  21151873.105   -21584613.33749 -16803259.26949  21151876.5344   21151882.2694
  20840490.517    -5544100.58849  -4308536.52049  20840493.6604   20840499.7384
  23462103.392   -10544669.10649  -8193987.99649  23462106.0964   23462113.0664
 96  4 18  3 36 59.9990000  0  8 16 21 20  6 26 23 17 22
  24475921.357    14419028.71349  11550796.20949  24475923.8634   24475929.2944
  24201164.602    -6150682.46149  -4779053.82049  24201168.8444   24201174.4504
  24736066.404    19561809.16949  15252325.93849  24736068.6674   24736078.0464
  20568901.250   -12164303.82749  -9461598.72649  20568904.8424   20568909.8054
  21975107.200   -17795143.11749 -13852971.47049  21975110.7314   21975115.2804
  21142071.298   -21636120.01349 -16843394.32349  21142075.2694   21142080.6604
  20835130.448    -5572263.17749  -4330481.39649  20835134.9264   20835140.3764
  23459385.868   -10558956.63249  -8205121.16249  23459388.1334   23459394.1104
 96  4 18  3 37 29.9990000  0  8 16 21 20  6 26 23 17 22
  24494602.061    14517182.60049  11627279.74749  24494601.2344   24494608.1454
  24183355.273    -6244273.78849  -4851982.08249  24183357.9464   24183364.6344
  24754557.083    19658960.48249  15328028.20649  24754556.6654   24754564.4684
  20577143.012   -12120993.16949  -9427850.17049  20577146.4234   20577151.6884
  21972008.090   -17811430.77149 -13865663.12949  21972011.1214   21972015.6454
  21132346.697   -21687225.85749 -16883217.03049  21132350.0424   21132355.7844
  20829801.668    -5600270.49249  -4352305.26649  20829805.2734   20829811.0914
  23456761.835   -10572742.65949  -8215863.55249  23456764.6514   23456770.8084
 96  4 18  3 37 59.9990000  0  7 16 21  6 26 23 17 22
  24513279.288    14615345.85649  11703770.56949  24513282.0994   24513287.5724
  24165569.138    -6337723.25549  -4924799.82149  24165574.9114   24165583.2534
  20585477.473   -12077193.56149  -9393720.61449  20585481.1914   20585486.2274
  21969013.189   -17827168.02149 -13877925.91449  21969016.3874   21969021.0084
  21122700.759   -21737915.28349 -16922715.24849  21122703.9764   21122709.9204
  20824501.152    -5628116.54149  -4374003.48249  20824506.0944   20824512.3034
  23454233.869   -10586010.66149  -8226202.29349  23454239.2724   23454245.2044
 96  4 18  3 38 29.9990000  0  7 16 21  6 26 23 17 22
  24531956.021    14713511.14549  11780262.99549  24531962.0124   24531967.9264
  24147810.477    -6431051.09849  -4997522.75349  24147815.3374   24147823.0874
  20593900.432   -12032929.73149  -9359229.33449  20593904.1094   20593909.5064
  21966119.953   -17842363.73749 -13889766.73149  21966124.7204   21966129.9004
  21113129.189   -21788213.10249 -16961908.33949  21113132.7264   21113138.2964
  20819230.902    -5655814.82049  -4395586.55749  20819235.1184   20819241.4354
  23451808.856   -10598770.83449  -8236145.33249  23451811.6544   23451816.4424
 96  4 18  3 38 59.9990000  0  7 16 21  6 26 23 17 22
  24550642.399    14811705.50549  11856778.07849  24550646.5724   24550653.0554
  24130081.053    -6524228.74249  -5070128.65849  24130083.9424   24130092.5674
  20602416.637   -11988178.65249  -9324358.37649  20602419.9954   20602425.3304
  21963342.618   -17856967.68849 -13901146.41149  21963346.0154   21963350.5094
  21103633.219   -21838111.97049 -17000790.56049  21103637.3074   21103642.9784
  20813995.000    -5683332.00049  -4417028.50949  20813998.7744   20814004.7294
  23449479.828   -10611000.03349  -8245674.59049  23449483.6894   23449490.0504
 96  4 18  3 39 29.9990000  0  7 16 21  6 26 23 17 22
  24569330.152    14909921.64249  11933310.08049  24569337.6394   24569343.4624
  24112374.850    -6617275.47949  -5142632.57349  24112378.3384   24112385.3354
  20611023.712   -11942945.16949  -9289111.51949  20611027.7974   20611033.2244
  21960674.121   -17870987.52649 -13912070.94549  21960677.9694   21960682.7714
  21094210.166   -21887635.27049 -17039380.13549  21094213.3474   21094219.2964
  20808794.248    -5710665.77849  -4438327.54349  20808797.7124   20808802.8244
  23447251.043   -10622721.70949  -8254808.37249  23447253.5264   23447259.5574
 96  4 18  3 39 59.9990000  0  7 16 21  6 26 23 17 22
  24588023.103    15008162.76349  12009861.57349  24588032.5054   24588037.2834
  24094696.461    -6710177.44549  -5215023.67449  24094699.4384   24094707.2164
  20619721.464   -11897240.25149  -9253497.30649  20619724.9334   20619730.4224
  21958115.784   -17884429.59349 -13922545.27549  21958119.9494   21958124.3824
  21084855.852   -21936790.55749 -17077682.93049  21084859.2104   21084865.2764
  20803627.235    -5737812.40849  -4459480.76149  20803631.5684   20803637.3944
  23445116.434   -10633938.47549  -8263548.75649  23445118.9214   23445126.0554
 96  4 18  3 40 29.9990000  0  7 16 21  6 26 23 17 22
  24606721.938    15106401.30549  12086411.14849  24606726.9884   24606734.8864
  24077043.072    -6802932.83449  -5287300.55849  24077048.6524   24077055.8324
  20628507.854   -11851070.09649  -9217520.56849  20628511.1684   20628516.4734
  21955668.312   -17897295.77349 -13932570.86349  21955671.8824   21955676.0754
  21075568.777   -21985591.32549 -17115709.47949  21075572.7294   21075578.8824
  20798494.392    -5764792.19849  -4480503.97149  20798497.6884   20798503.4874
  23443075.370   -10644667.21349  -8271908.86649  23443077.3604   23443084.5744
 96  4 18  3 40 59.9990000  0  7 16 21  6 26 23 17 22
  24625418.758    15204657.79649  12162974.63549  24625425.6474   24625429.3484
  24059428.433    -6895515.10149  -5359442.54949  24059430.0964   24059438.3724
  20637387.174   -11804403.29249  -9181156.83449  20637391.3604   20637396.8354
  21953329.737   -17909580.04749 -13942143.01649  21953334.5484   21953338.8664
  21066355.031   -22034012.21649 -17153440.01249  21066358.5224   21066364.1004
  20793390.833    -5791603.87749  -4501396.18649  20793395.3044   20793401.0784
  23441129.360   -10654890.69149  -8279875.25549  23441132.2034   23441138.4934
 96  4 18  3 41 29.9990000  0  7 16 21  6 26 23 17 22
  24644116.136    15302889.18649  12239518.62349  24644116.6524   24644122.3804
  24041835.580    -6987957.17549  -5431475.30049  24041839.1634   24041846.2084
  20646354.126   -11757285.91849  -9144442.01149  20646357.5844   20646362.7864
  21951090.367   -17921347.28149 -13951312.27349  21951094.6924   21951099.5934
  21057208.666   -22082079.50349 -17190895.01249  21057211.6914   21057217.2134
  20788314.799    -5818286.33149  -4522187.70049  20788317.8264   20788323.4144
  23439276.601   -10664638.68849  -8287471.14049  23439277.6584   23439283.4394
 96  4 18  3 41 59.9990000  0  7 16 21  6 26 23 17 22
  24662813.673    15401135.99449  12316074.60549  24662815.6074   24662815.3274
  24024281.223    -7080204.86049  -5503356.59049  24024284.6064   24024292.5034
  20655412.763   -11709679.03549  -9107345.75449  20655417.2174   20655422.2284
  21948956.616   -17932554.47749 -13960045.14649  21948962.0164   21948966.6044
  21048139.199   -22129737.15149 -17228030.80849  21048142.9294   21048148.2954
  20783270.377    -5844795.05649  -4542843.84449  20783273.4664   20783278.9384
  23437517.759   -10673863.27649  -8294659.16849  23437521.7704   23437528.0164
 96  4 18  3 42 29.9990000  0  7 16 21  6 26 23 17 22
  24681505.515    15499379.97849  12392628.41449  24681506.7244   24681515.0284
  24006758.454    -7172283.94849  -5575106.48749  24006764.1224   24006770.6004
  20664562.526   -11661602.38849  -9069883.44649  20664565.8614   20664570.8014
  21946929.271   -17943215.57749 -13968352.49549  21946933.7664   21946938.1874
  21039145.486   -22176998.00049 -17264857.42649  21039149.3584   21039155.1174
  20778256.965    -5871135.30849  -4563368.71749  20778261.2624   20778266.9134
  23435854.985   -10682602.03849  -8301468.64749  23435858.8854   23435865.3414
 96  4 18  3 42 59.9990000  0  6 21  6 26 23 17 22
  23989274.209    -7264178.55649  -5646712.62449  23989277.3474   23989282.7434
  20673800.380   -11613055.14449  -9032054.43849  20673803.9014   20673809.0134
  21945004.706   -17953324.77949 -13976229.78849  21945009.3564   21945014.1604
  21030229.680   -22223851.61249 -17301366.70749  21030233.1954   21030238.9824
  20773282.209    -5897282.66749  -4583743.27449  20773285.2954   20773291.4584
  23434288.241   -10690846.68249  -8307893.10549  23434290.2084   23434296.7574
 96  4 18  3 43 29.9990000  0  6 21  6 26 23 17 22
  23971814.453    -7355915.06149  -5718195.57849  23971819.1904   23971826.6324
  20683120.355   -11564074.28249  -8993887.54149  20683124.3544   20683129.4214
  21943184.228   -17962901.37249 -13983692.05749  21943187.2554   21943191.9154
  21021385.037   -22270331.85549 -17337585.06549  21021388.3174   21021393.8754
  20768338.413    -5923258.06249  -4603983.84049  20768342.3904   20768348.0164
  23432804.205   -10698640.11649  -8313965.95649  23432807.7734   23432813.3154
 96  4 18  3 43 59.9990000  0  6 21  6 26 23 17 22
  23954395.664    -7447456.21249  -5789526.31649  23954399.5404   23954406.5814
  20692532.928   -11514611.81949  -8955345.37949  20692536.8354   20692542.4804
  21941470.352   -17971895.94849 -13990700.81049  21941475.3084   21941480.3194
  21012616.693   -22316412.49749 -17373492.05349  21012619.7584   21012625.2194
  20763434.175    -5949029.48749  -4624065.46149  20763438.3544   20763444.0344
  23431409.512   -10705952.75049  -8319664.16649  23431415.3034   23431421.5254
 96  4 18  3 44 29.9990000  0  6 21  6 26 23 17 22
  23937013.947    -7538805.72149  -5860707.70849  23937016.0964   23937023.8084
  20702037.286   -11464667.54149  -8916427.76449  20702041.0084   20702046.5564
  21939868.908   -17980312.50549 -13997259.15649  21939873.7014   21939878.5644
  21003920.577   -22362110.12849 -17409100.59749  21003923.6554   21003929.1204
  20758566.779    -5974610.75449  -4643998.91949  20758570.1284   20758575.7624
  23430114.301   -10712776.10049  -8324981.10449  23430117.6174   23430122.3194
 96  4 18  3 44 59.9990000  0  6 21  6 26 23 17 22
  23919665.884    -7629959.89149  -5931736.89849  23919669.5804   23919678.2904
  20711633.723   -11414239.78049  -8877133.41349  20711637.2764   20711642.7404
  21938377.363   -17988149.10549 -14003365.58949  21938382.5264   21938387.6854
  20995295.693   -22407432.00849 -17444416.31949  20995299.2304   20995304.6494
  20753732.157    -6000019.13149  -4663797.65549  20753735.5184   20753741.2874
  23428914.409   -10719081.56949  -8329894.52749  23428917.5554   23428923.3814
 96  4 18  3 45 29.9990000  0  7 21 28  6 26 23 17 22
  23902353.300    -7720937.72749  -6002628.68349  23902358.0704   23902365.4824
  24622541.349    -5023362.95619  -3894964.86519  24622548.107    24622553.390
  20721320.542   -11363334.18549  -8837466.72749  20721324.2354   20721329.4814
  21936997.613   -17995409.35049 -14009022.91149  21937001.0754   21937005.3784
  20986741.141   -22452387.01849 -17479446.16349  20986744.3764   20986750.0524
  20748928.014    -6025257.92249  -4683464.24349  20748932.3674   20748938.3724
  23427813.019   -10724873.22849  -8334407.57049  23427815.1634   23427821.4464
 96  4 18  3 45 59.9990000  0  7 21 28  6 26 23 17 22
  23885069.030    -7811764.50349  -6073402.75049  23885073.1914   23885080.8624
  24601813.612    -5132299.160 9  -3979850.200 9  24601817.819    24601822.776
  20731093.104   -11311975.10449  -8797446.67349  20731097.5644   20731102.5384
  21935717.203   -18002129.87849 -14014259.67949  21935722.3904   21935727.0474
  20978254.092   -22496984.83649 -17514197.69049  20978257.8264   20978263.3054
  20744154.719    -6050347.94149  -4703014.90349  20744158.2134   20744163.8434
  23426805.018   -10730161.51849  -8338528.34349  23426808.5104   23426815.1224
 96  4 18  3 46 29.9990000  0  7 21 28  6 26 23 17 22
  23867821.180    -7902409.19549  -6144034.94649  23867824.8514   23867831.4024
  24581096.617    -5241183.270 9  -4064694.933 9  24581098.356    24581103.720
  20740955.192   -11260147.09449  -8757061.22149  20740960.1344   20740965.3974
  21934550.440   -18008271.12049 -14019045.06049  21934553.9164   21934558.2364
  20969846.043   -22541170.88949 -17548628.36649  20969849.5104   20969855.1894
  20739414.879    -6075249.76549  -4722418.92249  20739419.2594   20739425.0504
  23425901.368   -10734915.25749  -8342232.60549  23425904.4134   23425910.4064
 96  4 18  3 46 59.9990000  0  7 21 28  6 26 23 17 22
  23850607.207    -7992872.00349  -6214525.40549  23850610.5854   23850616.8954
  24560387.114    -5350010.374 9  -4149495.239 9  24560389.456    24560394.088
  20750906.113   -11207858.96749  -8716317.23849  20750909.9414   20750915.4094
  21933492.774   -18013819.92049 -14023368.79249  21933497.5844   21933502.2754
  20961518.510   -22584928.83449 -17582725.43749  20961522.2064   20961528.1824
  20734716.503    -6099948.30349  -4741664.53249  20734719.2964   20734725.0304
  23425096.100   -10739142.14949  -8345526.30349  23425100.4414   23425106.8054
 96  4 18  3 47 29.9990000  0  7 21 28  6 26 23 17 22
  23833423.977    -8083165.90049  -6284884.25249  23833427.5894   23833434.4154
  24539690.934    -5458786.371 9  -4234255.747 9  24539690.037    24539695.097
  20760943.236   -11155114.63649  -8675217.76949  20760947.0464   20760952.2154
  21932546.523   -18018801.06949 -14027250.20249  21932549.7944   21932553.9284
  20953273.134   -22628260.17749 -17616490.11849  20953276.7754   20953282.4884
  20730054.638    -6124443.68549  -4760751.83849  20730058.0554   20730064.1984
  23424387.603   -10742872.96449  -8348433.46649  23424390.5324   23424396.4774
 96  4 18  3 47 59.9990000  0  7 21 28  6 26 23 17 22
  23816271.849    -8173305.31649  -6355122.71249  23816274.6634   23816281.1014
  24518995.210    -5567530.234 9  -4318991.213 9  24518996.704    24519001.472
  20771063.177   -11101933.99349  -8633778.31249  20771066.7154   20771072.3534
  21931702.285   -18023231.07049 -14030702.14549  21931706.6854   21931710.8764
  20945106.859   -22671180.87449 -17649934.81549  20945109.5154   20945115.0194
  20725426.596    -6148763.03849  -4779701.98149  20725430.2864   20725436.0904
  23423763.762   -10746136.69349  -8350976.68349  23423769.0334   23423776.2214
 96  4 18  3 48 29.9990000  0  7 21 28  6 26 23 17 22
  23799147.464    -8263283.96349  -6425235.88849  23799151.9334   23799159.6684
  24498306.597    -5676235.754 9  -4403696.781 9  24498310.509    24498315.754
  20781268.668   -11048302.50349  -8591987.55149  20781272.5384   20781277.9534
  21930970.691   -18027085.04249 -14033705.23849  21930973.6004   21930977.2044
  20937014.436   -22713702.34549 -17683068.44449  20937017.9874   20937023.6274
  20720834.116    -6172897.91449  -4798508.37249  20720837.5914   20720843.4314
  23423234.837   -10748931.06749  -8353154.16049  23423237.1304   23423243.9384
 96  4 18  3 48 59.9990000  0  7 21 28  6 26 23 17 22
  23782063.733    -8353069.89749  -6495198.92649  23782067.1174   23782073.7634
  24477633.433    -5784879.036 9  -4488353.856 9  24477635.854    24477641.663
  20791570.149   -10994166.52149  -8549803.68149  20791574.6684   20791579.9144
  21930348.493   -18030349.87149 -14036249.25249  21930352.6644   21930356.7524
  20928998.038   -22755822.12849 -17715889.05249  20929002.6984   20929008.3934
  20716279.150    -6196837.38849  -4817162.50149  20716282.0194   20716287.6764
  23422796.407   -10751229.24349  -8354945.02249  23422799.7884   23422804.7534
 96  4 18  3 49 29.9990000  0  7 21 28  6 26 23 17 22
  23765011.378    -8442681.54949  -6565026.17349  23765014.8314   23765021.4404
  24456966.971    -5893484.452 9  -4572981.441 9  24456969.016    24456974.253
  20801967.904   -10939527.31349  -8507227.68249  20801971.9574   20801977.6174
  21929831.742   -18033065.50849 -14038365.32749  21929835.2254   21929839.7824
  20921054.340   -22797571.32149 -17748420.89049  20921058.0584   20921063.5794
  20711754.201    -6220610.70949  -4835687.15749  20711757.9334   20711763.4924
  23422447.724   -10753065.66149  -8356376.02749  23422450.2584   23422456.8594
 96  4 18  3 49 59.9990000  0  7 21 28  6 26 23 17 22
  23747998.081    -8532079.22049  -6634686.67649  23748002.7774   23748009.7294
  24436312.827    -6002021.997 9  -4657556.142 9  24436315.075    24436321.497
  20812464.466   -10884368.71849  -8464246.96749  20812468.4114   20812473.4254
  21929427.363   -18035183.09349 -14040015.38749  21929432.3224   21929437.1784
  20913185.152   -22838924.19549 -17780643.91349  20913188.8684   20913194.3284
  20707268.632    -6244185.69549  -4854057.27049  20707271.9814   20707277.6544
  23422193.071   -10754400.03249  -8357415.85849  23422197.3654   23422203.4894
 96  4 18  3 50 29.9990000  0  7 21 28  6 26 23 17 22
  23731025.054    -8621286.23049  -6704198.61549  23731027.3374   23731034.5944
  24415669.705    -6110516.031 9  -4742096.933 9  24415670.030    24415675.315
  20823053.035   -10828723.00949  -8420886.68549  20823057.1934   20823062.7324
  21929135.083   -18036731.55449 -14041221.98249  21929137.7434   21929142.6264
  20905386.072   -22879913.15849 -17812583.37049  20905388.8674   20905394.4244
  20702814.624    -6267589.27249  -4872293.81549  20702818.4094   20702824.3434
  23422033.085   -10755249.46949  -8358077.80249  23422035.8844   23422041.6024
 96  4 18  3 50 59.9990000  0  7 21 28  6 26 23 17 22
  23714082.994    -8710300.19349  -6773560.11349  23714088.3664   23714095.2474
  24395032.225    -6218957.554 9  -4826596.802 9  24395033.836    24395039.893
  20833734.349   -10772596.99349  -8377152.13549  20833737.7784   20833742.8594
  21928946.532   -18037707.14349 -14041982.18049  21928952.5054   21928956.8914
  20897656.753   -22920526.87549 -17844230.40949  20897660.4674   20897665.9734
  20698396.263    -6290809.23049  -4890387.27749  20698399.4724   20698405.7354
  23421963.060   -10755612.36049  -8358360.59249  23421966.3174   23421971.5714
 96  4 18  3 51 29.9990000  0  7 21 28  6 26 23 17 22
  23697183.733    -8799116.80549  -6842767.83149  23697187.7484   23697193.2394
  24374408.482    -6327336.349 9  -4911047.814 9  24374410.258    24374415.674
  20844500.335   -10716014.44449  -8333061.84449  20844504.6374   20844510.3754
  21928876.876   -18038086.19549 -14042277.53049  21928880.0304   21928884.3944
  20890003.968   -22960745.17249 -17875569.35149  20890007.0814   20890013.0214
  20694016.335    -6313824.60249  -4908321.32149  20694020.0094   20694025.6714
  23421988.120   -10755481.72349  -8358258.83149  23421990.9834   23421996.9184
 96  4 18  3 51 59.9990000  0  7 21 28  6 26 23 17 22
  23680314.626    -8887761.55249  -6911841.63349  23680318.6224   23680324.8344
  24353791.604    -6435663.860 9  -4995458.906 9  24353795.881    24353800.518
  20855347.144   -10659022.39049  -8288652.46549  20855350.4384   20855355.6264
  21928916.525   -18037876.22749 -14042113.91949  21928920.1934   21928924.5844
  20882423.085   -23000583.67449 -17906612.32849  20882426.2274   20882431.8574
  20689671.552    -6336657.41749  -4926113.10949  20689675.1224   20689680.8214
  23422107.203   -10754857.78549  -8357772.72749  23422110.6114   23422115.4884
 96  4 18  3 52 29.9990000  0  7 21 28  6 26 23 17 22
  23663482.806    -8976226.82849  -6980775.59749  23663484.2244   23663490.8204
  24333190.667    -6543922.592 9  -5079816.370 9  24333194.738    24333200.888
  20866274.031   -10601598.25649  -8243906.40149  20866277.7294   20866283.0204
  21929066.611   -18037081.67549 -14041494.76949  21929070.7994   21929076.0794
  20874916.486   -23040028.08749 -17937348.20349  20874920.1344   20874926.0244
  20685360.153    -6359307.25249  -4943762.31149  20685364.8094   20685370.5374
  23422320.108   -10753734.90649  -8356897.79849  23422322.9884   23422330.5364
 96  4 18  3 52 59.9990000  0  7 21 28  6 26 23 17 22
  23646674.930    -9064532.88349  -7049585.48249  23646679.5084   23646686.6334
  24312600.212    -6652125.963 9  -5164130.681 9  24312604.411    24312610.223
  20877280.141   -10543760.53449  -8198838.05649  20877283.9794   20877289.2244
  21929324.295   -18035726.81649 -14040439.03249  21929328.8234   21929333.8624
  20867483.925   -23079084.45149 -17967781.72049  20867487.4674   20867493.4504
  20681082.276    -6381794.20449  -4961284.59849  20681085.5864   20681091.2694
  23422625.572   -10752131.67349  -8355648.55449  23422628.5684   23422634.7844
 96  4 18  3 53 29.9990000  0  7 21 28  6 26 23 17 22
  23629907.879    -9152647.92349  -7118246.54149  23629912.7204   23629919.1904
  24292031.659    -6760246.027 9  -5248380.071 9  24292029.637    24292035.876
  20888370.129   -10485479.17249  -8153424.02749  20888374.1864   20888379.6714
  21929690.035   -18033803.66049 -14038940.46649  21929694.5864   21929699.7764
  20860133.058   -23117715.89249 -17997884.13349  20860136.2834   20860142.1964
  20676837.499    -6404101.11449  -4978666.59949  20676840.9874   20676846.6934
  23423028.531   -10750019.54849  -8354002.77949  23423030.2934   23423036.9564
 96  4 18  3 53 59.9990000  0  7 21 28  6 26 23 17 22
  23613174.604    -9240589.24549  -7186772.23349  23613176.9014   23613183.8584
  24271464.070    -6868300.427 9  -5332578.298 9  24271468.030    24271472.681
  20899544.493   -10426757.95749  -8107667.24849  20899548.6544   20899554.4954
  21930159.392   -18031340.32449 -14037020.98249  21930163.5244   21930168.5544
  20852856.981   -23155950.31749 -18027677.18549  20852860.8004   20852866.3334
  20672623.034    -6426246.98349  -4995923.11549  20672626.7274   20672632.5184
  23423521.153   -10747424.95249  -8351981.03649  23423523.8574   23423530.6454
 96  4 18  3 54 29.9990000  0  7 21 28  6 26 23 17 22
  23596474.097    -9328350.22049  -7255157.40149  23596476.9654   23596484.5604
  24250912.386    -6976292.635 9  -5416728.080 9  24250917.347    24250921.420
  20910804.396   -10367585.47949  -8061558.84349  20910808.6834   20910814.3794
  21930730.235   -18028340.16549 -14034683.18549  21930734.4234   21930739.3894
  20845654.340   -23193804.51949 -18057173.95549  20845657.1824   20845663.1064
  20668439.940    -6448230.52549  -5013053.14649  20668443.3044   20668449.2614
  23424102.508   -10744364.93249  -8349596.68249  23424107.2104   23424113.6694
 96  4 18  3 54 59.9990000  0  7 21 28  6 26 23 17 22
  23579810.764    -9415909.84249  -7323385.65249  23579814.9294   23579821.7984
  24230376.270    -7084207.734 9  -5500817.770 9  24230381.180    24230384.924
  20922153.871   -10307946.49649  -8015086.91949  20922157.8044   20922163.4954
  21931409.585   -18024775.07349 -14031905.18649  21931412.5304   21931417.4614
  20838523.687   -23231271.33549 -18086368.88949  20838527.5114   20838533.5394
  20664293.430    -6470023.73049  -5030034.86349  20664296.2174   20664301.7364
  23424777.711   -10740829.97449  -8346842.18449  23424779.8424   23424786.1474
 96  4 18  3 55 29.9990000  0  7 21 28  6 26 23 17 22
  23563188.121    -9503259.84949  -7391450.56249  23563192.4924   23563199.4914
  24209854.454    -7192043.860 9  -5584845.918 9  24209860.256    24209865.356
  20933593.974   -10247827.62649  -7968241.05849  20933598.0194   20933603.6234
  21932196.494   -18020634.63349 -14028678.86049  21932200.7734   21932205.6724
  20831466.234   -23268361.95149 -18115270.66849  20831469.3344   20831475.4564
  20660181.511    -6491623.83149  -5046866.09049  20660185.6174   20660191.5504
  23425540.917   -10736819.42649  -8343717.12349  23425542.4824   23425549.1184
 96  4 18  3 55 59.9990000  0  7 21 28  6 26 23 17 22
  23546609.550    -9590396.56549  -7459349.29649  23546610.6344   23546618.3414
  24189350.012    -7299801.355 9  -5668812.812 9  24189354.684    24189360.077
  20945123.283   -10187241.08649  -7921030.78249  20945127.3664   20945132.9074
  21933096.619   -18015902.14349 -14024991.20749  21933101.1414   21933105.7554
  20824477.776   -23305083.57849 -18143884.93049  20824481.6704   20824487.2474
  20656107.073    -6513037.33149  -5063551.93049  20656111.0164   20656116.5764
  23426391.689   -10732339.11449  -8340226.02449  23426394.9464   23426401.3144
 96  4 18  3 56 29.9990000  0  7 21 28  6 26 23 17 22
  23530066.132    -9677325.04849  -7527085.76449  23530069.1744   23530075.8054
  24168858.875    -7407481.645 9  -5752719.492 9  24168864.586    24168869.444
  20956739.078   -10126197.81649  -7873464.61149  20956743.4944   20956749.0594
  21934109.766   -18010588.63749 -14020850.79549  21934112.6784   21934117.0914
  20817562.074   -23341428.78649 -18172205.86549  20817565.2094   20817571.1494
  20652066.126    -6534274.47249  -5080100.34449  20652069.8984   20652075.8614
  23427334.656   -10727388.64849  -8336368.56749  23427337.2394   23427343.4554
 96  4 18  3 56 59.9990000  0  7 21 28  6 26 23 17 22
  23513562.955    -9764056.42349  -7594668.63449  23513565.0404   23513571.9424
  24148384.301    -7515087.078 9  -5836567.867 9  24148387.858    24148393.506
  20968438.939   -10064712.90049  -7825554.29849  20968443.5394   20968448.7724
  21935229.334   -18004694.58949 -14016258.02949  21935234.1494   21935238.4474
  20810721.335   -23377374.94749 -18200215.85349  20810725.0824   20810730.5054
  20648056.504    -6555342.20249  -5096516.75349  20648060.6334   20648066.2604
  23428366.338   -10721966.29149  -8332143.38749  23428368.9944   23428375.6784
 96  4 18  3 57 29.9990000  0  7 21 28  6 26 23 17 22
  23497097.419    -9850576.23949  -7662086.64949  23497100.9544   23497108.0174
  24127927.262    -7622599.016 9  -5920343.395 9  24127929.697    24127935.160
  20980225.203   -10002785.46649  -7777299.16749  20980228.2874   20980233.7364
  21936466.112   -17998197.81349 -14011195.59849  21936469.9144   21936474.6324
  20803962.380   -23412893.91149 -18227892.94449  20803966.0204   20803971.3554
  20644081.473    -6576234.48749  -5112796.45449  20644085.2684   20644090.6684
  23429491.054   -10716055.31149  -8327537.45849  23429493.6394   23429501.0474
 96  4 18  3 57 59.9990000  0  7 21 28  6 26 23 17 22
  23480669.352    -9936900.90849  -7729352.60649  23480672.8214   23480680.7494
  24107482.411    -7730024.524 9  -6004051.576 9  24107487.462    24107492.903
  20992089.414    -9940432.29849  -7728712.29349  20992093.6094   20992098.9204
  21937815.140   -17991106.54249 -14005669.92749  21937819.7194   21937824.2244
  20797283.203   -23447992.78349 -18255242.71249  20797287.1674   20797292.2304
  20640139.061    -6596950.60449  -5128938.87449  20640142.6894   20640148.7124
  23430705.427   -10709667.45149  -8322559.92449  23430709.3204   23430715.9634
 96  4 18  3 58 29.9990000  0  7 21 28  6 26 23 17 22
  23464281.003   -10023024.46349  -7796461.84349  23464284.9104   23464292.0614
  24087058.425    -7837354.160 9  -6087685.037 9  24087063.094    24087069.339
  21004039.636    -9877635.98849  -7679780.11249  21004043.2844   21004048.6354
  21939278.192   -17983417.94649 -13999678.80949  21939282.9124   21939287.6974
  20790684.388   -23482669.66149 -18282263.65349  20790687.8944   20790693.4984
  20636234.728    -6617465.29949  -5144924.34449  20636238.9204   20636244.7624
  23432016.245   -10702792.45149  -8317202.79249  23432018.0424   23432024.0084
 96  4 18  3 58 59.9990000  0  7 21 28  6 26 23 17 22
  23447926.402   -10108963.13449  -7863427.02449  23447930.8584   23447938.1864
  24066650.172    -7944606.362 9  -6171258.161 9  24066653.890    24066659.834
  21016070.280    -9814412.83549  -7630515.32849  21016073.8244   21016079.7904
  21940853.094   -17975140.76649 -13993229.05349  21940857.7904   21940862.6174
  20784159.726   -23516958.83249 -18308982.49049  20784163.0124   20784168.6274
  20632365.618    -6637798.72949  -5160768.56049  20632369.4864   20632375.6104
  23433411.223   -10695453.71249  -8311484.30849  23433414.3174   23433420.9954
 96  4 18  3 59 29.9990000  0  7 21 28  6 26 23 17 22
  23431606.678   -10194727.42949  -7930256.31649  23431610.1334   23431617.2434
  24046255.749    -8051787.615 9  -6254776.010 9  24046258.280    24046263.646
  21028180.765    -9750768.29449  -7580922.19749  21028185.5674   21028190.6104
  21942536.957   -17966295.94449 -13986336.97849  21942540.9484   21942545.6834
  20777702.631   -23550893.12949 -18335424.79549  20777705.5474   20777710.9644
  20628532.170    -6657949.53849  -5176470.48349  20628535.0614   20628540.9984
  23434891.403   -10687668.03749  -8305417.52449  23434895.7774   23434901.6054
 96  4 18  3 59 59.9990000  0  7 21 28  6 26 23 17 22
  23415325.348   -10280286.40749  -7996925.62349  23415329.0994   23415336.6414
  24025879.899    -8158858.281 9  -6338207.688 9  24025883.398    24025888.688
  21040381.373    -9686661.84149  -7530969.12849  21040384.5074   21040390.1684
  21944332.826   -17956860.67749 -13978984.80949  21944336.7764   21944341.2714
  20771316.971   -23584447.55049 -18361571.08449  20771320.5024   20771326.0564
  20624740.694    -6677868.51849  -5191991.75449  20624744.7424   20624750.5184
  23436469.453   -10679394.22149  -8298970.37349  23436469.4544   23436477.2064
 96  4 18  4  0 29.9990000  0  7 21 28  6 26 23 17 22
  23399082.763   -10365653.50549  -8063445.39549  23399084.7074   23399091.3694
  24005524.633    -8265831.447 9  -6421563.389 9  24005526.895    24005532.692
  21052662.566    -9622121.57049  -7480678.02049  21052666.1464   21052671.8894
  21946237.220   -17946860.66249 -13971192.58049  21946239.7654   21946243.8364
  20764999.622   -23617640.57749 -18387435.76449  20765003.6584   20765009.5574
  20620988.813    -6697586.74649  -5207356.60549  20620992.3834   20620998.0394
  23438130.664   -10670654.05649  -8292159.88949  23438133.5154   23438140.7804
 96  4 18  4  0 59.9990000  0  7 21 28  6 26 23 17 22
  23382871.926   -10450838.45949  -8129823.25649  23382874.5754   23382881.1474
  23985186.735    -8372707.266 9  -6504843.240 9  23985189.152    23985194.499
  21065023.608    -9557162.46749  -7430060.54849  21065027.3284   21065032.9954
  21948244.592   -17936308.52149 -13962970.12649  21948247.3414   21948252.1584
  20758752.238   -23650469.86749 -18413017.01949  20758756.4964   20758762.3784
  20617271.660    -6717121.07749  -5222578.16049  20617274.9034   20617281.3094
  23439883.980   -10661451.31049  -8284988.95249  23439885.7584   23439891.8044
 96  4 18  4  1 29.9990000  0  7 21 28  6 26 23 17 22
  23366697.618   -10535820.11549  -8196042.71449  23366702.8064   23366709.8764
  23964873.301    -8479461.343 9  -6588028.212 9  23964874.800    23964879.154
  21077467.737    -9491768.39649  -7379104.14149  21077471.4444   21077477.0794
  21950358.440   -17925195.34149 -13954310.50149  21950362.0524   21950367.2224
  20752580.926   -23682905.08549 -18438291.20749  20752584.3584   20752589.7494
  20613593.853    -6736446.77749  -5237637.14349  20613597.1784   20613603.5244
  23441724.560   -10651766.88849  -8277442.67549  23441728.1254   23441734.4024
 96  4 18  4  1 59.9990000  0  7 21 28  6 26 23 17 22
  23350566.152   -10620603.14849  -8262107.40849  23350569.0474   23350575.0424
  23944578.374    -8586099.322 9  -6671122.718 9  23944581.529    23944586.650
  21089994.059    -9425942.03049  -7327810.87249  21089997.6554   21090003.4844
  21952577.355   -17913528.84349 -13945219.71549  21952582.2224   21952587.0524
  20746482.670   -23714951.88749 -18463262.74649  20746486.1254   20746491.8364
  20609951.813    -6755589.50249  -5252553.54449  20609954.8384   20609960.6544
  23443659.284   -10641607.92849  -8269526.60949  23443660.5434   23443667.3684
 96  4 18  4  2 29.9990000  0  7 21 28  6 26 23 17 22
  23334468.263   -10705182.53549  -8328013.40549  23334474.0574   23334480.6864
  23924306.760    -8692623.986 9  -6754128.952 9  23924310.628    23924315.709
  21102604.404    -9359675.30049  -7276174.47149  21102608.0274   21102613.6154
  21954901.667   -17901313.77049 -13935701.46749  21954906.6894   21954911.5564
  20740459.634   -23746605.61949 -18487927.97949  20740462.8074   20740468.1644
  20606340.464    -6774560.39949  -5267336.05949  20606344.5234   20606350.4734
  23445677.221   -10630986.99049  -8261250.61049  23445681.9694   23445687.9524
 96  4 18  4  2 59.9990000  0  7 21 28  6 26 23 17 22
  23318413.419   -10789555.76549  -8393758.76549  23318418.6734   23318425.6044
  23904056.698    -8799035.548 9  -6837047.026 9  23904060.625    23904066.075
  21115301.356    -9292951.35449  -7224181.80249  21115304.9034   21115310.5934
  21957332.768   -17888542.76249 -13925750.03049  21957337.3934   21957341.8914
  20734510.182   -23777868.91149 -18512288.97549  20734513.8444   20734519.2814
  20602764.478    -6793353.35349  -5281979.91949  20602768.3064   20602774.5084
  23447786.979   -10619909.46849  -8252618.79849  23447791.2254   23447796.0184
 96  4 18  4  3 29.9990000  0  7 21 28  6 26 23 17 22
  23302398.074   -10873731.03649  -8459349.86849  23302400.5244   23302406.2974
  23883826.006    -8905344.956 9  -6919885.503 9  23883830.597    23883835.464
  21128084.793    -9225770.24149  -7171832.89649  21128089.2894   21128095.0344
  21959868.367   -17875217.60749 -13915366.78549  21959872.8794   21959877.6984
  20728631.384   -23808762.56649 -18536361.94349  20728634.6514   20728640.2974
  20599219.700    -6811982.61749  -5296496.21749  20599223.5634   20599229.0684
  23449976.707   -10608394.34849  -8243645.99549  23449981.8494   23449987.7374
 96  4 18  4  3 59.9990000  0  7 21 28  6 26 23 17 22
  23286422.275   -10957678.65449  -8524763.58049  23286426.2504   23286432.4844
  23863619.541    -9011524.418 9  -7002622.718 9  23863625.834    23863629.882
  21140958.752    -9158120.16049  -7119118.55949  21140962.6714   21140968.3964
  21962516.744   -17861301.14349 -13904522.78449  21962521.2004   21962525.1934
  20722826.694   -23839266.33949 -18560131.10449  20722829.9504   20722835.5894
  20595710.668    -6830425.32049  -5310867.14749  20595713.9494   20595719.9394
  23452257.691   -10596410.88249  -8234308.25349  23452261.7224   23452268.6274
 96  4 18  4  4 29.9990000  0  7 21 28  6 26 23 17 22
  23270487.025   -11041414.09849  -8590011.96149  23270491.4954   23270497.7504
  23843439.721    -9117594.594 9  -7085274.808 9  23843441.200    23843444.948
  21153914.602    -9090037.55549  -7066067.18549  21153918.2364   21153923.8864
  21965273.582   -17846815.18849 -13893235.02449  21965277.4254   21965282.2204
  20717093.393   -23869394.90549 -18583607.89649  20717096.7804   20717102.2934
  20592234.086    -6848694.73549  -5325103.05249  20592237.5034   20592243.1754
  23454623.293   -10583985.16349  -8224625.90049  23454626.3644   23454632.0494
 96  4 18  4  4 59.9990000  0  7 21 28  6 26 23 17 22
  23254596.456   -11124919.44749  -8655081.01649  23254600.5574   23254607.5474
  23823281.464    -9223527.577 9  -7167819.975 9  23823283.141    23823287.396
  21166952.615    -9021516.75949  -7012674.36949  21166957.2754   21166963.2044
  21968144.592   -17831728.29949 -13881479.00449  21968148.1644   21968152.8364
  20711436.467   -23899122.39749 -18606772.15049  20711439.8584   20711445.2164
  20588795.900    -6866762.54249  -5339181.85549  20588799.0554   20588804.8584
  23457075.070   -10571086.37749  -8214574.91849  23457081.4284   23457087.0114
 96  4 18  4  5 29.9990000  0  7 21 28  6 26 23 17 22
  23238748.316   -11208201.61349  -8719976.20449  23238752.5924   23238759.7574
  23803148.752    -9329325.608 9  -7250259.977 9  23803150.434    23803155.429
  21180070.806    -8952587.94349  -6958963.62249  21180074.1564   21180079.6414
  21971128.975   -17816045.76049 -13869258.83349  21971132.5654   21971137.1754
  20705855.617   -23928451.64149 -18629626.09849  20705858.7784   20705863.8114
  20585394.729    -6884628.84749  -5353103.63949  20585399.2494   20585404.8754
  23459623.055   -10557711.79149  -8204153.21849  23459626.1394   23459632.9534
 96  4 18  4  5 59.9990000  0  7 21 28  6 26 23 17 22
  23222939.397   -11291278.18649  -8784711.15349  23222943.8334   23222950.1924
  23783036.661    -9435003.532 9  -7332606.391 9  23783040.741    23783045.193
  21193260.102    -8883277.35049  -6904955.37449  21193263.7444   21193269.1154
  21974221.735   -17799789.22649 -13856591.39649  21974226.0304   21974230.7824
  20700348.048   -23957391.08049 -18652176.29649  20700351.7224   20700357.1474
  20582033.666    -6902300.00349  -5366873.35549  20582036.6854   20582042.1944
  23462255.506   -10543878.24249  -8193373.88349  23462258.6154   23462264.9804
 96  4 18  4  6 29.9990000  0  7 21 28  6 26 23 17 22
  23207170.213   -11374147.61149  -8849284.69049  23207174.4694   23207180.3944
  23762953.111    -9540545.534 9  -7414846.884 9  23762956.639    23762961.059
  21206527.121    -8813553.17449  -6850624.86149  21206531.4964   21206537.1484
  21977426.558   -17782949.25449 -13843469.33049  21977430.6964   21977435.1154
  20694918.043   -23985927.92849 -18674412.80449  20694921.1594   20694926.7424
  20578710.344    -6919757.30749  -5380476.43649  20578714.7604   20578720.2474
  23464979.017   -10529576.01949  -8182229.32549  23464980.6474   23464986.8474
 96  4 18  4  6 59.9990000  0  7 21 28  6 26 23 17 22
  23191440.883   -11456818.92949  -8913703.86249  23191442.0584   23191449.7344
  23742896.308    -9645953.654 9  -7496983.065 9  23742898.183    23742902.776
  21219873.363    -8743421.20949  -6795976.59049  21219877.0934   21219882.7564
  21980742.682   -17765517.50549 -13829886.14849  21980747.1304   21980752.1474
  20689558.978   -24014084.20449 -18696352.74749  20689563.0614   20689568.7454
  20575429.870    -6936998.31749  -5393910.97249  20575433.5974   20575439.5654
  23467789.385   -10514802.40349  -8170717.46549  23467791.5794   23467797.8014
 96  4 18  4  7 29.9990000  0  7 21 28  6 26 23 17 22
  23175744.770   -11539296.09049  -8977971.76149  23175747.2384   23175754.5464
  23722860.089    -9751240.262 9  -7579024.550 9  23722863.030    23722867.123
  21233294.911    -8672892.17749  -6741018.91349  21233298.4584   21233304.2674
  21984170.492   -17747512.44049 -13815856.22349  21984173.5574   21984178.7714
  20684269.030   -24041886.15249 -18718016.60149  20684272.3964   20684278.0064
  20572186.068    -6954042.89349  -5407192.45449  20572190.1324   20572195.7974
  23470684.283   -10499578.56649  -8158854.79949  23470688.5874   23470695.1064
 96  4 18  4  7 59.9990000  0  7 21 28  6 26 23 17 22
  23160095.251   -11621531.92549  -9042051.60049  23160098.5164   23160104.5074
  23702854.548    -9856362.137 9  -7660937.704 9  23702858.844    23702862.866
  21246801.648    -8601911.17049  -6685709.05249  21246805.9094   21246811.1234
  21987711.402   -17728904.30249 -13801356.37349  21987715.1174   21987719.4574
  20679055.073   -24069288.04149 -18739368.70949  20679058.1944   20679063.8464
  20568986.853    -6970861.71549  -5420298.02649  20568990.1854   20568995.3924
  23473670.182   -10483872.16249  -8146616.10449  23473676.7844   23473683.4654
 96  4 18  4  8 29.9990000  0  7 21 28  6 26 23 17 22
  23144484.459   -11703549.52149  -9105961.38749  23144489.9674   23144497.0694
  23682876.688    -9961348.714 9  -7742745.418 9  23682880.480    23682884.169
  21260386.919    -8530520.49449  -6630079.96949  21260391.0374   21260396.4694
  21991359.627   -17709724.67549 -13786411.21749  21991364.3434   21991369.2664
  20673908.128   -24096335.22149 -18760444.42549  20673911.4404   20673916.8874
  20565822.055    -6987489.72949  -5433254.91249  20565825.6014   20565831.0994
  23476746.961   -10467712.24349  -8134023.99749  23476751.9684   23476759.2684
 96  4 18  4  8 59.9990000  0  7 21 28  6 26 23 17 22
  23128923.029   -11785332.62649  -9169688.44549  23128928.2934   23128934.2604
  23662924.230   -10066202.329 9  -7824449.520 9  23662927.092    23662931.102
  21274046.909    -8458739.32849  -6574146.60549  21274050.2934   21274056.2014
  21995115.299   -17689986.96849 -13771031.17349  21995120.4104   21995125.3574
  20668827.486   -24123029.75849 -18781245.36449  20668831.5144   20668837.0114
  20562692.123    -7003935.14149  -5446069.51949  20562696.2164   20562701.6614
  23479907.589   -10451119.56249  -8121094.67349  23479910.5404   23479916.3764
 96  4 18  4  9 29.9990000  0  7 21 28  6 26 23 17 22
  23113410.759   -11866867.47549  -9233222.07949  23113413.1084   23113419.0274
  23642997.994   -10170907.354 9  -7906037.832 9  23643002.306    23643006.801
  21287784.492    -8386548.78749  -6517894.24849  21287788.1984   21287793.7434
  21998976.705   -17669697.43549 -13755221.15049  21998981.6744   21998986.8764
  20663820.941   -24149340.24249 -18801747.01549  20663824.8064   20663830.1344
  20559597.757    -7020199.73649  -5458743.22849  20559601.0354   20559606.6724
  23483145.941   -10434101.21249  -8107833.62149  23483149.0194   23483155.7944
 96  4 18  4  9 59.9990000  0  7 21 28  6 26 23 17 22
  23097938.567   -11948165.14049  -9296570.88349  23097942.7084   23097948.6174
  23623103.516   -10275465.175 9  -7987511.458 9  23623105.878    23623110.061
  21301598.287    -8313951.36349  -6461324.84249  21301602.6994   21301608.3484
  22002941.746   -17648865.66349 -13738988.60249  22002945.4944   22002950.3444
  20658888.764   -24175262.26249 -18821945.97949  20658892.0314   20658897.6504
  20556537.325    -7036279.21849  -5471272.68649  20556541.3664   20556546.6004
  23486465.443   -10416653.86749  -8094238.31849  23486469.6014   23486475.7284
 96  4 18  4 10 29.9990000  0  7 21 28  6 26 23 17 22
  23082514.259   -12029224.63649  -9359734.05949  23082517.2634   23082523.9824
  23603234.943   -10379863.897 9  -8068861.082 9  23603239.471    23603243.498
  21315491.681    -8240942.91349  -6404435.15049  21315495.9634   21315501.7964
  22007012.580   -17627477.07849 -13722322.17049  22007015.8314   22007020.5294
  20654031.269   -24200790.53549 -18841838.15049  20654034.4104   20654040.1414
  20553519.455    -7052146.86449  -5483637.08449  20553521.8094   20553527.2804
  23489870.354   -10398767.79049  -8080301.14349  23489872.8034   23489878.6284
 96  4 18  4 10 59.9990000  0  7 21 28  6 26 23 17 22
  23067128.434   -12110066.57549  -9422727.74549  23067133.4934   23067139.6594
  23583398.935   -10484107.432 9  -8150089.787 9  23583402.704    23583406.455
  21329463.419    -8167518.17749  -6347221.08149  21329467.9754   21329473.1924
  22011188.177   -17605537.97749 -13705226.76449  22011190.7304   22011195.3594
  20649248.790   -24225917.90749 -18861417.92849  20649252.6594   20649258.2564
  20550537.310    -7067809.05849  -5495841.39149  20550541.2474   20550546.8964
  23493352.886   -10380460.26449  -8066035.59649  23493356.1914   23493362.6564
 96  4 18  4 11 29.9990000  0  7 21 28  6 26 23 17 22
  23051783.720   -12190706.52149  -9485564.01849  23051787.8594   23051794.3504
  23563591.045   -10588199.053 9  -8231200.137 9  23563594.609    23563598.334
  21343515.473    -8093676.71249  -6289682.29449  21343519.6264   21343524.9304
  22015466.373   -17583041.95349 -13687697.38649  22015471.5734   22015476.7234
  20644543.153   -24250650.60949 -18880690.15049  20644546.2174   20644551.6164
  20547595.047    -7083272.72249  -5507890.99149  20547598.8264   20547604.1984
  23496918.990   -10361710.26649  -8051425.25349  23496923.4774   23496929.8964
 96  4 18  4 11 59.9990000  0  7 21 28  6 26 23 17 22
  23036476.458   -12271149.10049  -9548246.53649  23036480.5284   23036486.3254
  23543812.885   -10692132.664 9  -8312187.377 9  23543816.830    23543820.221
  21357647.092    -8019411.50449  -6231813.31849  21357651.6244   21357657.8674
  22019858.116   -17559972.43649 -13669721.12549  22019861.7134   22019866.4454
  20639910.750   -24274992.39649 -18899657.76649  20639913.9524   20639919.3784
  20544693.258    -7098521.99449  -5519773.54249  20544696.9474   20544702.3074
  23500574.503   -10342498.61249  -8036455.18449  23500579.9034   23500586.0074
 96  4 18  4 12 29.9990000  0  7 21 28  6 26 23 17 22
  23021207.707   -12351395.17849  -9610775.92049  23021209.3874   23021216.4374
  23524066.868   -10795904.947 9  -8393048.872 9  23524069.393    23524073.516
  21371859.833    -7944727.90949  -6173618.31549  21371863.6494   21371869.2674
  22024360.221   -17536316.00549 -13651287.52849  22024363.4114   22024368.2714
  20635351.695   -24298947.17949 -18918323.82349  20635355.5484   20635361.2704
  20541829.689    -7113570.51449  -5531499.66249  20541833.1994   20541838.6374
  23504319.046   -10322837.99949  -8021135.26049  23504322.0304   23504328.1294
 96  4 18  4 12 59.9990000  0  7 21 28  6 26 23 17 22
  23005977.207   -12431422.29649  -9673134.67549  23005981.5374   23005987.6844
  23504353.105   -10899493.507 9  -8473767.221 9  23504357.371    23504361.254
  21386154.570    -7869613.33449  -6115087.49549  21386157.7934   21386163.6994
  22028976.421   -17512049.54149 -13632378.59749  22028981.0294   22028986.0224
  20630869.467   -24322502.35849 -18936678.49849  20630872.9514   20630878.8364
  20539002.185    -7128419.69049  -5543070.44849  20539007.4024   20539012.8484
  23508148.782   -10302712.70949  -8005453.27449  23508151.4544   23508158.2464
 96  4 18  4 13 29.9990000  0  7 21 28  6 26 23 17 22
  22990786.429   -12511245.14149  -9735334.24049  22990791.2274   22990798.1584
  23484674.523   -11002909.128 9  -8554350.798 9  23484677.140    23484681.486
  21400525.898    -7794089.90749  -6056238.08749  21400528.9584   21400534.8194
  22033706.601   -17487192.91549 -13613009.79149  22033710.9334   22033715.7384
  20626459.158   -24345682.12949 -18954740.63549  20626462.1444   20626467.7094
  20536214.069    -7143082.73649  -5554496.19649  20536217.1154   20536222.5614
  23512064.022   -10282130.14049  -7989414.91949  23512068.8524   23512074.2644
 96  4 18  4 13 59.9990000  0  7 21 28  6 26 23 17 22
  22975634.071   -12590884.66849  -9797390.95549  22975636.5234   22975642.8944
  23465023.684   -11106160.456 9  -8634806.363 9  23465029.400    23465033.477
  21414970.751    -7718180.73349  -5997088.08449  21414974.0354   21414979.8754
  22038544.899   -17461771.36549 -13593200.79549  22038549.0234   22038553.6954
  20622115.245   -24368505.65049 -18972525.17249  20622119.2624   20622124.5154
  20533458.913    -7157561.92649  -5565778.67949  20533461.9454   20533467.5414
  23516061.694   -10261129.34649  -7973050.67049  23516064.1384   23516069.8384
 96  4 18  4 14 29.9990000  0  7 21 28  6 26 23 17 22
  22960514.750   -12670326.63249  -9859293.73549  22960519.3694   22960525.8194
  23445407.380   -11209246.212 9  -8715132.905 9  23445412.670    23445417.329
  21429484.840    -7641902.29649  -5937650.34949  21429489.5004   21429495.1774
  22043484.998   -17435801.33049 -13572964.40849  22043491.0554   22043495.7274
  20617837.941   -24390982.22949 -18990039.37249  20617841.8964   20617847.6534
  20530737.659    -7171857.54749  -5576918.12349  20530741.4014   20530747.4464
  23520134.173   -10239724.69749  -7956371.72949  23520137.9084   23520144.4594
 96  4 18  4 14 59.9990000  0  7 21 28  6 26 23 17 22
  22945441.207   -12749545.86949  -9921022.97649  22945444.1814   22945451.1654
  23425828.472   -11312151.563 9  -8795318.884 9  23425830.386    23425835.077
  21444075.600    -7565232.52349  -5877907.68249  21444079.1044   21444084.8454
  22048531.799   -17409286.66549 -13552303.62149  22048536.2404   22048541.1874
  20613630.610   -24413099.01949 -19007273.21249  20613632.9184   20613638.7374
  20528058.858    -7185937.49149  -5587889.51049  20528062.1524   20528067.5264
  23524287.890   -10217895.87849  -7939362.27649  23524291.4024   23524297.6234
 96  4 18  4 15 29.9990000  0  8 21 28  3  6 26 23 17 22
  22930411.718   -12828529.68749  -9982568.78449  22930414.6704   22930420.8254
  23406280.986   -11414869.897 9  -8875359.129 9  23406283.847    23406288.545
  24556377.331    -4812730.86859  -3462184.22759  24556383.4124   24556389.8434
  21458742.486    -7488157.24949  -5817849.03749  21458745.8414   21458752.2014
  22053679.479   -17382229.90749 -13531220.42749  22053685.2354   22053689.6224
  20609491.956   -24434841.13849 -19024215.11549  20609495.7334   20609501.1504
  20525424.123    -7199778.46349  -5598674.68849  20525428.3894   20525433.9994
  23528523.244   -10195636.57349  -7922017.37749  23528527.0304   23528533.0464
 96  4 18  4 15 59.9990000  0  8 21 28  3  6 26 23 17 22
  22915423.280   -12907288.93949 -10043939.60249  22915427.2144   22915433.8544
  23386766.020   -11517428.761 9  -8955275.116 9  23386767.542    23386772.139
  24535465.554    -4922621.42749  -3547813.22049  24535471.6774   24535478.0164
  21473480.191    -7410706.69449  -5757497.97549  21473484.3114   21473490.4874
  22058928.369   -17354655.77949 -13509734.08849  22058932.4924   22058937.0334
  20605422.943   -24456225.90549 -19040878.55749  20605426.2024   20605431.5604
  20522831.821    -7213408.14049  -5609295.21249  20522834.6224   20522840.4284
  23532833.413   -10172975.64449  -7904359.51749  23532839.6074   23532846.4724
 96  4 18  4 16 29.9990000  0  8 21 28  3  6 26 23 17 22
  22900487.571   -12985773.26449 -10105096.19749  22900491.1714   22900498.1684
  23367285.587   -11619791.323 9  -9035038.132 9  23367288.616    23367293.156
  24514572.420    -5032416.46549  -3633367.76249  24514579.1384   24514585.0054
  21488300.414    -7332832.94649  -5696817.14349  21488303.3684   21488309.0654
  22064283.039   -17326523.87549 -13487813.11549  22064285.4454   22064290.0984
  20601430.680   -24477203.06549 -19057224.37549  20601434.1874   20601439.8634
  20520284.028    -7226790.71549  -5619723.18849  20520288.0204   20520293.7624
  23537234.009   -10149868.04049  -7886353.61249  23537236.1984   23537243.2874
 96  4 18  4 16 59.9990000  0  8 21 28  3  6 26 23 17 22
  22885601.289   -13064006.91049 -10166057.46449  22885604.6504   22885610.6594
  23347840.012   -11721976.321 9  -9114662.798 9  23347843.567    23347847.842
  24493702.681    -5142106.52249  -3718840.52749  24493704.5924   24493711.6564
  21503194.674    -7254555.99249  -5635822.11649  21503198.9984   21503204.5304
  22069737.409   -17297846.01149 -13465466.72349  22069742.1714   22069747.3734
  20597512.362   -24497793.34549 -19073268.74249  20597516.2124   20597521.9794
  20517777.975    -7239959.82649  -5629984.82549  20517781.8484   20517787.6434
  23541712.475   -10126333.80049  -7868015.26049  23541715.5884   23541721.7654
 96  4 18  4 17 29.9990000  0  8 21 28  3  6 26 23 17 22
  22870760.551   -13141995.03049 -10226827.40449  22870764.1964   22870770.8794
  23328432.261   -11823974.831 9  -9194142.132 9  23328434.017    23328438.604
  24472849.963    -5251662.98949  -3804209.20449  24472856.7144   24472863.8204
  21518164.386    -7175892.09549  -5574525.58249  21518168.2904   21518174.3564
  22075302.973   -17268612.15049 -13442687.09649  22075305.8284   22075310.4434
  20593667.974   -24517999.33749 -19089013.65549  20593671.0104   20593676.7514
  20515312.234    -7252920.79949  -5640084.28449  20515315.4284   20515321.2794
  23546269.978   -10102379.89649  -7849349.88449  23546273.1324   23546279.7974
 96  4 18  4 17 59.9990000  0  8 21 28  3  6 26 23 17 22
  22855968.828   -13219722.44249 -10287394.18749  22855972.0884   22855979.6464
  23309061.482   -11925755.918 9  -9273452.052 9  23309065.593    23309070.323
  24452037.751    -5361052.80249  -3889448.01649  24452041.0344   24452047.2074
  21533208.424    -7096829.35049  -5512918.25449  21533213.2214   21533219.0214
  22080976.424   -17238795.76549 -13419453.54549  22080979.9494   22080984.6214
  20589899.228   -24537804.29949 -19104446.07649  20589902.3294   20589907.9664
  20512889.636    -7265651.24749  -5650004.10549  20512893.0034   20512898.8134
  23550912.354   -10077989.02049  -7830343.99349  23550914.8574   23550920.9964
 96  4 18  4 18 29.9990000  0  8 21 28  3  6 26 23 17 22
  22841220.594   -13297226.91349 -10347787.26249  22841223.5564   22841230.6534
  23289729.611   -12027346.864 9  -9352613.807 9  23289733.523    23289738.039
  24431248.660    -5470307.24249  -3974581.33249  24431250.2424   24431256.2754
  21548325.373    -7017397.76649  -5451023.51949  21548328.9534   21548334.0564
  22086755.091   -17208429.04749 -13395791.15949  22086758.2834   22086762.8404
  20586195.716   -24557262.72749 -19119608.47449  20586199.4714   20586204.9184
  20510503.603    -7278188.56749  -5659773.43849  20510507.2664   20510512.9324
  23555626.762   -10053212.71849  -7811037.79449  23555629.4574   23555635.6224
 96  4 18  4 18 59.9990000  0  8 21 28  3  6 26 23 17 22
  22826511.118   -13374523.19649 -10408018.09749  22826514.4814   22826521.1244
  23270435.885   -12128742.033 9  -9431623.013 9  23270438.787    23270443.574
  24410479.691    -5579440.03049  -4059619.84249  24410482.9054   24410489.1924
  21563508.737    -6937607.75749  -5388849.48949  21563512.5554   21563518.2154
  22092638.396   -17177509.73949 -13371698.18049  22092641.7064   22092646.4414
  20582556.464   -24576387.83149 -19134511.13749  20582559.9364   20582565.7814
  20508153.584    -7290537.70249  -5669396.13649  20508157.0984   20508163.1154
  23560416.084   -10028050.65949  -7791431.00149  23560417.8694   23560424.0344
 96  4 18  4 19 29.9990000  0  8 21 28  3  6 26 23 17 22
  22811838.163   -13451621.28149 -10468094.50149  22811843.7694   22811850.0734
  23251179.523   -12229937.839 9  -9510476.864 9  23251181.678    23251186.369
  24389729.126    -5688475.94849  -4144582.88849  24389735.3874   24389741.2954
  21578760.424    -6857452.25349  -5326390.66649  21578765.6794   21578771.2034
  22098626.228   -17146038.49049 -13347175.12749  22098630.5664   22098635.1834
  20578983.229   -24595165.81449 -19149143.32049  20578986.6704   20578992.5904
  20505843.342    -7302680.31649  -5678857.91249  20505847.1164   20505852.3604
  23565276.610   -10002500.41849  -7771521.71849  23565279.9094   23565286.4194
 96  4 18  4 19 59.9990000  0  8 21 28  3  6 26 23 17 22
  22797203.887   -13528531.93549 -10528024.84249  22797208.0154   22797214.6144
  23231958.368   -12330944.410 9  -9589183.246 9  23231960.499    23231965.657
  24368990.928    -5797439.73449  -4229489.73249  24369000.0004   24369005.0154
  21594085.955    -6776925.41549  -5263642.48149  21594089.2924   21594094.3674
  22104719.906   -17114023.10449 -13322228.07049  22104723.1144   22104727.3854
  20575475.025   -24613604.55249 -19163511.15549  20575478.1354   20575483.6674
  20503570.105    -7314624.78249  -5688165.28149  20503573.7004   20503579.4594
  23570210.490    -9976563.07749  -7751310.87049  23570215.2224   23570222.0264
 96  4 18  4 20 29.9990000  0  8 21 28  3  6 26 23 17 22
  22782607.977   -13605233.65649 -10587792.36949  22782612.4504   22782618.8854
  23212777.659   -12431745.120 9  -9667729.224 9  23212779.157    23212783.766
  24348280.079    -5906301.77249  -4314317.27649  24348282.8834   24348289.3134
  21609482.995    -6696007.63249  -5200589.67449  21609487.4904   21609493.0204
  22110916.824   -17081448.10549 -13296844.94349  22110921.4994   22110925.9654
  20572032.792   -24631688.34949 -19177602.40749  20572036.4684   20572042.3384
  20501335.103    -7326363.99049  -5697312.70649  20501339.8574   20501345.5934
  23575227.123    -9950210.63749  -7730776.52449  23575230.8034   23575236.8394
 96  4 18  4 20 59.9990000  0  8 21 28  3  6 26 23 17 22
  22768054.052   -13681719.74949 -10647391.87849  22768057.2804   22768063.8734
  23193633.684   -12532336.014 9  -9746111.727 9  23193637.293    23193641.973
  24327587.311    -6015052.27549  -4399057.91249  24327589.6534   24327594.1404
  21624956.198    -6614698.95149  -5137232.26349  21624960.0564   21624965.4294
  22117223.860   -17048308.84149 -13271022.13049  22117228.3134   22117232.2444
  20568663.009   -24649400.32049 -19191403.92849  20568666.1814   20568671.6714
  20499143.554    -7337889.22049  -5706293.39749  20499146.8704   20499152.0324
  23580327.688    -9923419.52049  -7709900.35849  23580327.8874   23580334.3044
 96  4 18  4 21 29.9990000  0  8 21 28  3  6 26 23 17 22
  22753543.220   -13757978.37449 -10706814.13649  22753545.9714   22753552.1074
  23174528.938   -12632725.038 9  -9824336.932 9  23174533.298    23174539.214
  24306917.519    -6123682.81049  -4483705.05749  24306918.4804   24306921.3024
  21640499.380    -6533011.71449  -5073579.87849  21640504.2804   21640509.8534
  22123634.692   -17014616.21449 -13244768.13249  22123639.0534   22123643.4764
  20565361.901   -24666746.25849 -19204920.22749  20565365.2634   20565370.7064
  20496987.575    -7349209.80149  -5715114.61749  20496992.3244   20496997.8924
  23585506.133    -9896204.91549  -7688694.21449  23585507.3284   23585513.7764
 96  4 18  4 21 59.9990000  0  8 21 28  3  6 26 23 17 22
  22739080.274   -13833976.35149 -10766033.28949  22739083.5014   22739090.3744
  23155469.341   -12732889.237 9  -9902386.932 9  23155472.509    23155478.146
  24286276.117    -6232146.35449  -4568222.11349  24286278.5344   24286282.0614
  21656118.690    -6450933.83149  -5009623.09849  21656123.1754   21656129.0754
  22130153.753   -16980355.99849 -13218071.85249  22130158.2944   22130163.2254
  20562134.006   -24683707.83949 -19218137.02849  20562137.7674   20562142.8714
  20494874.635    -7360320.84549  -5723772.56949  20494878.0324   20494883.8494
  23590766.432    -9868556.77449  -7667150.22249  23590768.2894   23590773.8874
 96  4 18  4 22 29.9990000  0  8 21 28  3  6 26 23 17 22
  22724667.331   -13909713.33049 -10825049.07349  22724671.0914   22724677.9554
  23136449.709   -12832834.891 9  -9980266.657 9  23136453.575    23136459.503
  24265666.779    -6340451.75849  -4652615.94649  24265670.2314   24265671.4004
  21671809.696    -6368477.42049  -4945371.35649  21671813.7784   21671819.8884
  22136779.543   -16945546.24249 -13190947.36849  22136782.9884   22136787.4144
  20558980.043   -24700282.10649 -19231052.02749  20558983.3894   20558989.0384
  20492799.664    -7371226.09749  -5732270.16449  20492802.9144   20492808.8514
  23596105.073    -9840497.95249  -7645286.24149  23596108.2764   23596113.7164
 96  4 18  4 22 59.9990000  0  8 21 28  3  6 26 23 17 22
  22710306.716   -13985187.53849 -10883860.11649  22710308.6504   22710315.7204
  23117472.486   -12932560.002 9 -10057974.512 9  23117476.653    23117482.564
  24245080.520    -6448614.29149  -4736898.41349  24245083.8064   24245089.0354
  21687570.809    -6285648.54149  -4880829.38349  21687576.3464   21687581.6914
  22143505.761   -16910193.09549 -13163399.45549  22143510.4884   22143514.9634
  20555901.929   -24716456.91149 -19243655.75349  20555905.6174   20555911.5004
  20490766.633    -7381909.44049  -5740594.84949  20490769.9684   20490775.7644
  23601521.668    -9812034.74249  -7623107.14149  23601523.7764   23601530.8904
 96  4 18  4 23 29.9990000  0  8 21 28  3  6 26 23 17 22
  22695990.475   -14060414.78149 -10942478.70149  22695993.4634   22696000.2614
  23098537.503   -13032068.490 9 -10135513.580 9  23098540.763    23098546.212
  24224517.104    -6556649.71149  -4821081.82749  24224526.5114   24224529.0414
  21703400.218    -6202469.09849  -4816014.23649  21703404.2534   21703410.5754
  22150334.069   -16874311.56449 -13135439.81549  22150338.5114   22150342.7404
  20552899.433   -24732238.34449 -19255952.96549  20552902.6924   20552908.1154
  20488774.324    -7392376.15749  -5748750.73049  20488778.1774   20488783.6534
  23607010.739    -9783185.12449  -7600626.98249  23607014.4474   23607020.0564
